[[{"header":{"parameterUnit":"m.s-1","parameterCategory":1,"la1":30.6,"la2":29.2853,"lo1":-89.7004,"lo2":-87.6739,"dy":0.0162,"dx":0.0183,"nx":112,"ny":82,"refTime":"2024-06-23T12:00:00:Z","depth":0,"parameterNumber":2,"parameterNumberName":"U-component_of_WINDS"},"data":[0.0,0.0,0.0,0.0,0.0,0.0,0.0,0.0,0.0,0.0,0.0,0.0,0.0,0.0,0.0,0.0,0.0,0.0,0.0,0.0,0.0,0.0,0.0,0.0,0.0,0.0,0.0,0.0,0.0,0.0,0.0,0.0,0.0,0.0,0.0,0.0,0.0,0.0,0.0,0.0,0.0,0.0,0.0,0.0,0.0,0.0,0.0,0.0,0.0,0.0,0.0,0.0,0.0,0.0,0.0,0.0,0.0,0.0,0.0,0.0,0.0,0.0,0.0,0.0,0.0,0.0,0.0,0.0,0.0,0.0,0.0,0.0,0.0,0.0,0.0,0.0,0.0,0.0,0.0,0.0,0.0,0.0,0.0,0.0,0.0,0.0,0.0,0.0,0.0,0.0,0.0,-0.2347,-0.2574,-0.2617,-0.2355,-0.2427,-0.2418,-0.2237,0.0,0.0,0.0,0.0,0.0,0.0,0.0,0.0,0.0,0.0,0.0,0.0,0.0,0.0,0.0,0.0,0.0,0.0,0.0,0.0,0.0,0.0,0.0,0.0,0.0,0.0,0.0,0.0,0.0,0.0,0.0,0.0,0.0,0.0,0.0,0.0,0.0,0.0,0.0,0.0,0.0,0.0,0.0,0.0,0.0,0.0,0.0,0.0,0.0,0.0,0.0,0.0,0.0,0.0,0.0,0.0,0.0,0.0,0.0,0.0,0.0,0.0,0.0,0.0,0.0,0.0,0.0,0.0,0.0,0.0,0.0,0.0,0.0,0.0,0.0,0.0,0.0,0.0,0.0,0.0,0.0,0.0,0.0,0.0,0.0,0.0,0.0,0.0,0.0,0.0,0.0,0.0,0.0,0.0,0.0,0.0,0.0,0.0,0.0,0.0,0.0,0.0,0.0,0.0,-0.2123,-0.2519,-0.2685,-0.2748,-0.2612,-0.2628,-0.2463,-0.2239,0.0,0.0,0.0,0.0,0.0,0.0,0.0,0.0,0.0,0.0,0.0,0.0,0.0,0.0,0.0,0.0,0.0,0.0,0.0,0.0,0.0,0.0,0.0,0.0,0.0,0.0,0.0,0.0,0.0,0.0,0.0,0.0,0.0,0.0,0.0,0.0,0.0,0.0,0.0,0.0,0.0,0.0,0.0,0.0,0.0,0.0,0.0,0.0,0.0,0.0,0.0,0.0,0.0,0.0,0.0,0.0,0.0,0.0,0.0,0.0,0.0,0.0,0.0,0.0,0.0,0.0,0.0,0.0,0.0,0.0,0.0,0.0,0.0,0.0,0.0,0.0,0.0,0.0,0.0,0.0,0.0,0.0,0.0,0.0,0.0,0.0,0.0,0.0,0.0,0.0,0.0,0.0,0.0,0.0,0.0,0.0,0.0,0.0,0.0,0.0,0.0,0.0,0.0,-0.1925,-0.2327,-0.262,-0.2759,-0.2794,-0.27,-0.2636,-0.2473,-0.2241,-0.1982,0.0,0.0,0.0,0.0,0.0,0.0,0.0,0.0,0.0,0.0,0.0,0.0,0.0,0.0,0.0,0.0,0.0,0.0,0.0,0.0,0.0,0.0,0.0,0.0,0.0,0.0,0.0,0.0,0.0,0.0,0.0,0.0,0.0,0.0,0.0,0.0,0.0,0.0,0.0,0.0,0.0,0.0,0.0,0.0,0.0,0.0,0.0,0.0,0.0,0.0,0.0,0.0,0.0,0.0,0.0,0.0,0.0,0.0,0.0,0.0,0.0,0.0,0.0,0.0,0.0,0.0,0.0,0.0,0.0,0.0,0.0,0.0,0.0,0.0,0.0,0.0,0.0,0.0,0.0,0.0,0.0,0.0,0.0,0.0,0.0,0.0,0.0,0.0,0.0,0.0,0.0,0.0,0.0,0.0,0.0,0.0,0.0,0.0,0.0,0.0,0.0,0.0,-0.1993,-0.2527,-0.2696,-0.2809,-0.2831,-0.2723,-0.2631,-0.2458,-0.2239,-0.203,0.0,0.0,0.0,0.0,0.0,0.0,0.0,0.0,0.0,0.0,0.0,0.0,0.0,0.0,0.0,0.0,0.0,0.0,0.0,0.0,0.0,0.0,0.0,0.0,0.0,0.0,0.0,0.0,0.0,0.0,0.0,0.0,0.0,0.0,0.0,0.0,0.0,0.0,0.0,0.0,0.0,0.0,0.0,0.0,0.0,0.0,0.0,0.0,0.0,0.0,0.0,0.0,0.0,0.0,0.0,0.0,0.0,0.0,0.0,0.0,0.0,0.0,0.0,0.0,0.0,0.0,0.0,0.0,0.0,0.0,0.0,0.0,0.0,0.0,0.0,0.0,0.0,0.0,0.0,0.0,0.0,0.0,0.0,0.0,0.0,0.0,0.0,0.0,0.0,0.0,0.0,0.0,0.0,0.0,0.0,0.0,0.0,0.0,0.0,0.0,0.0,0.0,-0.2034,-0.2636,-0.2763,-0.2835,-0.2847,-0.2782,-0.2617,-0.2413,-0.2237,-0.2051,0.0,0.0,0.0,0.0,0.0,0.0,0.0,0.0,0.0,0.0,0.0,0.0,0.0,0.0,0.0,0.0,0.0,0.0,0.0,0.0,0.0,0.0,0.0,0.0,0.0,0.0,0.0,0.0,0.0,0.0,0.0,0.0,0.0,0.0,0.0,0.0,0.0,0.0,0.0,0.0,0.0,0.0,0.0,0.0,0.0,0.0,0.0,0.0,0.0,0.0,0.0,0.0,0.0,0.0,0.0,0.0,0.0,0.0,0.0,0.0,0.0,0.0,0.0,0.0,0.0,0.0,0.0,0.0,0.0,0.0,0.0,0.0,0.0,0.0,0.0,0.0,0.0,0.0,0.0,0.0,0.0,0.0,0.0,0.0,0.0,0.0,0.0,0.0,0.0,0.0,0.0,0.0,0.0,0.0,0.0,0.0,0.0,0.0,0.0,0.0,0.0,0.0,-0.2029,-0.262,0.0,-0.286,-0.285,-0.2788,-0.265,-0.2448,-0.2239,0.0,0.0,0.0,0.0,0.0,0.0,0.0,0.0,0.0,0.0,0.0,0.0,0.0,0.0,0.0,0.0,0.0,0.0,0.0,0.0,0.0,0.0,0.0,0.0,0.0,0.0,0.0,0.0,0.0,0.0,0.0,0.0,0.0,0.0,0.0,0.0,0.0,0.0,0.0,0.0,0.0,0.0,0.0,0.0,0.0,0.0,0.0,0.0,0.0,0.0,0.0,0.0,0.0,0.0,0.0,0.0,0.0,0.0,0.0,0.0,0.0,0.0,0.0,0.0,0.0,0.0,0.0,0.0,0.0,0.0,0.0,0.0,0.0,0.0,0.0,0.0,0.0,0.0,0.0,0.0,0.0,0.0,0.0,0.0,0.0,0.0,0.0,0.0,0.0,0.0,0.0,0.0,0.0,0.0,0.0,0.0,0.0,0.0,0.0,0.0,0.0,0.0,-0.0552,-0.1215,-0.1818,0.0,-0.1974,-0.1958,-0.1915,-0.181,-0.1747,-0.1763,0.0,0.0,0.0,0.0,0.0,0.0,0.0,0.0,0.0,0.0,0.0,0.0,0.0,0.0,0.0,0.0,0.0,0.0,0.0,0.0,0.0,0.0,0.0,0.0,0.0,0.0,0.0,0.0,0.0,0.0,0.0,0.0,0.0,0.0,0.0,0.0,0.0,0.0,0.0,0.0,0.0,0.0,0.0,0.0,0.0,0.0,0.0,0.0,0.0,0.0,0.0,0.0,0.0,0.0,0.0,0.0,0.0,0.0,0.0,0.0,0.0,0.0,0.0,0.0,0.0,0.0,0.0,0.0,0.0,0.0,0.0,0.0,0.0,0.0,0.0,0.0,0.0,0.0,0.0,0.0,0.0,0.0,0.0,0.0,0.0,0.0,0.0,0.0,0.0,0.0,0.0,0.0,0.0,0.0,0.0,0.0,0.0,0.0,0.0,0.0,0.0,0.0,0.0971,0.0391,-0.0,-0.0,-0.0,-0.0,-0.0087,-0.0,-0.0219,0.0,0.0,0.0,0.0,0.0,0.0,0.0,0.0,0.0,0.0,0.0,0.0,0.0,0.0,0.0,0.0,0.0,0.0,0.0,0.0,0.0,0.0,0.0,0.0,0.0,0.0,0.0,0.0,0.0,0.0,0.0,0.0,0.0,0.0,0.0,0.0,0.0,0.0,0.0,0.0,0.0,0.0,0.0,0.0,0.0,0.0,0.0,0.0,0.0,0.0,0.0,0.0,0.0,0.0,0.0,0.0,0.0,0.0,0.0,0.0,0.0,0.0,0.0,0.0,0.0,0.0,0.0,0.0,0.0,0.0,0.0,0.0,0.0,0.0,0.0,0.0,0.0,0.0,0.0,0.0,0.0,0.0,0.0,0.0,0.0,0.0,0.0,0.0,0.0,0.0,0.0,0.0,0.0,0.0,0.0,0.0,0.0,0.0,0.0,0.0,0.0,0.0,0.0,0.0356,0.0158,-0.0,-0.0091,-0.0,-0.0,-0.0087,-0.0,-0.0075,-0.027,0.0,0.0,0.0,0.0,0.0,0.0,0.0,0.0,0.0,0.0,0.0,0.0,0.0,0.0,0.0,0.0,0.0,0.0,0.0,0.0,0.0,0.0,0.0,0.0,0.0,0.0,0.0,0.0,0.0,0.0,0.0,0.0,0.0,0.0,0.0,0.0,0.0,0.0,0.0,0.0,0.0,0.0,0.0,0.0,0.0,0.0,0.0,0.0,0.0,0.0,0.0,0.0,0.0,0.0,0.0,0.0,0.0,0.0,0.0,0.0,0.0,0.0,0.0,0.0,0.0,0.0,0.0,0.0,0.0,0.0,0.0,0.0,0.0,0.0,0.0,0.0,0.0,0.0,0.0,0.0,0.0,0.0,0.0,0.0,0.0,0.0,0.0,0.0,0.0,0.0,0.0,0.0,0.0,0.0,0.0,0.0,0.0,0.0,0.0,0.0,0.0,0.0,0.0935,0.1032,0.1116,0.1089,0.1174,0.1156,0.1044,0.107,0.0916,0.055,0.0,0.0,0.0,0.0,0.0,0.0,0.0,0.0,0.0,0.0,0.0,0.0,0.0,0.0,0.0,0.0,0.0,0.0,0.0,0.0,0.0,0.0,0.0,0.0,0.0,0.0,0.0,0.0,0.0,0.0,0.0,0.0,0.0,0.0,0.0,0.0,0.0,0.0,0.0,0.0,0.0,0.0,0.0,0.0,0.0,0.0,0.0,0.0,0.0,0.0,0.0,0.0,0.0,0.0,0.0,0.0,0.0,0.0,0.0,0.0,0.0,0.0,0.0,0.0,0.0,0.0,0.0,0.0,0.0,0.0,0.0,0.0,0.0,0.0,0.0,0.0,0.0,0.0,0.0,0.0,0.0,0.0,0.0,0.0,0.0,0.0,0.0,0.0,0.0,0.0,0.0,0.0,0.0,0.0,0.0,0.0,0.0,0.0,0.0,0.0,0.0,0.0,0.2233,0.2549,0.2745,0.2861,0.2875,0.285,0.2788,0.2672,0.2267,0.1416,0.0,0.0,0.0,0.0,0.0,0.0,0.0,0.0,0.0,0.0,0.0,0.0,0.0,0.0,0.0,0.0,0.0,0.0,0.0,0.0,0.0,0.0,0.0,0.0,0.0,0.0,0.0,0.0,0.0,0.0,0.0,0.0,0.0,0.0,0.0,0.0,0.0,0.0,0.0,0.0,0.0,0.0,0.0,0.0,0.0,0.0,0.0,0.0,0.0,0.0,0.0,0.0,0.0,0.0,0.0,0.0,0.0,0.0,0.0,0.0,0.1331,0.0,0.0,0.0,0.0,0.0,0.0,0.0,0.0,0.0,0.0,0.0,0.0,0.0,0.0,0.0,0.0,0.0,0.0,0.0,0.0,0.0,0.0,0.0,0.0,0.0,0.0,0.0,0.0,0.0,0.0,0.0,0.0,0.0,0.0,0.0,0.0,0.0,0.0,0.0,0.0,0.0,0.2316,0.2586,0.2792,0.2867,0.2875,0.285,0.2788,0.2672,0.2441,0.2109,0.1722,0.0,0.0,0.0,0.0,0.0,0.0,0.0,0.0,0.0,0.0,0.0,0.0,0.0,0.0,0.0,0.0,0.0,0.0,0.0,0.0,0.0,0.0,0.0,0.0,0.0,0.0,0.0,0.0,0.0,0.0,0.0,0.0,0.0,0.0,0.0,0.0,0.0,0.0,0.0,0.0,0.0,0.0,0.0,0.0,0.0,0.0,0.0,0.0,0.0,0.0,0.0,0.0,0.0,0.0,0.0,0.0,0.0,0.0,0.0,0.0,0.1738,0.0,0.0,0.0,0.0,0.0,0.0,0.0,0.0,0.0,0.0,0.0,0.0,0.0,0.0,0.0,0.0,0.0,0.0,0.0,0.0,0.0,0.0,0.0,0.0,0.0,0.0,0.0,0.0,0.0,0.0,0.0,0.0,0.0,0.0,0.0,0.0,0.0,0.0,0.0,0.0,0.2397,0.2658,0.285,0.2909,0.2914,0.2891,0.2832,0.2743,0.2612,0.2431,0.2122,0.0,0.0,0.0,0.0,0.0,0.0,0.0,0.0,0.0,0.0,0.0,0.0,0.0,0.0,0.0,0.0,0.0,0.0,0.0,0.0,0.0,0.0,0.0,0.0,0.0,0.0,0.0,0.0,0.0,0.0,0.0,0.0,0.0,0.0,0.0,0.0,0.0,0.0,0.0,0.0,0.0,0.0,0.0,0.0,0.0,0.0,0.0,0.0,0.0,0.0,0.0,0.0,0.0,0.2001,0.2098,0.2202,0.2043,0.224,0.2619,0.2314,0.2171,0.2146,0.1856,0.0,0.0,0.0,0.0,0.0,0.0,0.0,0.0,0.0,0.0,0.0,0.0,0.0,0.0,0.0,0.0,0.0,0.0,0.0,0.0,0.0,0.0,0.0,0.0,0.2628,0.264,0.0,0.0,0.0,0.0,0.0,0.0,0.0,0.0,0.0,0.0,0.0,0.0,0.2497,0.2738,0.291,0.2967,0.2965,0.2939,0.2892,0.2824,0.2714,0.2552,0.2373,0.2112,0.0,0.0,0.0,0.0,0.0,0.0,0.0,0.0,0.0,0.0,0.0,0.0,0.0,0.0,0.0,0.0,0.0,0.0,0.0,0.0,0.0,0.0,0.0,0.0,0.0,0.0,0.0,0.0,0.0,0.0,0.0,0.0,0.1158,0.1381,0.0,0.0,0.0,0.0,0.0,0.0,0.0,0.0,0.0,0.0,0.0,0.0,0.0,0.1705,0.1824,0.242,0.268,0.2645,0.2975,0.3141,0.305,0.3103,0.313,0.3237,0.3114,0.0,0.2652,0.1957,0.0,0.0,0.0,0.0,0.0,0.0,0.0,0.0,0.0,0.0,0.0,0.0,0.0,0.0,0.0,0.0,0.0,0.0,0.0,0.0,0.0,0.0,0.2963,0.2902,0.2906,0.2894,0.0,0.2527,0.2198,0.2123,0.1896,0.0,0.0,0.0,0.0,0.0,0.0,0.0,0.2572,0.2798,0.297,0.3126,0.2989,0.2955,0.2947,0.2846,0.2751,0.2673,0.2497,0.236,0.2207,0.2065,0.0,0.0,0.0,0.0,0.0,0.0,0.0,0.0,0.0,0.0,0.0,0.0,0.0,0.0,0.0,0.0,0.0,0.0,0.0,0.0,0.0,0.0,0.0,0.0,0.0,0.0,0.0,0.0,0.0,0.1253,0.1309,0.139,0.1303,0.1247,0.0,0.0,0.0,0.0,0.0,0.0,0.0,0.0,0.0,0.1663,0.2088,0.2425,0.2473,0.2885,0.3038,0.2916,0.3035,0.3172,0.3125,0.315,0.3267,0.3372,0.3372,0.3283,0.3123,0.2474,0.2246,0.2368,0.0,0.0,0.0,0.0,0.2194,0.2221,0.2565,0.2598,0.0,0.2688,0.0,0.0,0.0,0.0,0.0,0.0,0.0,0.0,0.0,0.0,0.286,0.3059,0.3086,0.3095,0.3035,0.2872,0.267,0.0,0.239,0.2243,0.1986,0.0,0.0,0.0,0.0,0.2617,0.2738,0.2933,0.3071,0.3097,0.3076,0.3031,0.2963,0.2912,0.2842,0.2749,0.2636,0.253,0.2437,0.2267,0.2104,0.0,0.0,0.0,0.0,0.0,0.0,0.0,0.0,0.0,0.0,0.0,0.0,0.0,0.0,0.0,0.0,0.0,0.0,0.0,0.0,0.0,0.0,0.0,0.0,0.0,0.0,0.0,0.0,0.1381,0.1468,0.1412,0.1492,0.1444,0.0,0.0,0.0,0.0,0.0,0.0,0.1611,0.1858,0.2029,0.2112,0.2618,0.3009,0.3051,0.3334,0.3371,0.3153,0.3167,0.3174,0.3174,0.3174,0.3284,0.3503,0.3503,0.3486,0.344,0.2911,0.2652,0.2615,0.2344,0.2286,0.2347,0.26,0.2623,0.2455,0.2862,0.2893,0.2769,0.2894,0.0,0.2539,0.2333,0.0,0.0,0.0,0.0,0.2192,0.2914,0.2924,0.2912,0.3153,0.3198,0.3118,0.3073,0.2932,0.2921,0.0,0.2704,0.2644,0.2269,0.0,0.0,0.0,0.0,0.2782,0.2903,0.3048,0.3146,0.3161,0.3149,0.3102,0.3012,0.2977,0.2921,0.2834,0.2758,0.2674,0.2583,0.2451,0.2309,0.2157,0.0,0.0,0.0,0.0,0.0,0.0,0.0,0.0,0.0,0.0,0.0,0.0,0.0,0.0,0.0,0.0,0.0,0.0,0.0,0.0,0.0,0.0,0.0,0.0,0.0,0.0,0.0,0.0,0.0,0.1725,0.1761,0.0,0.0,0.0,0.0,0.162,0.1806,0.1995,0.2364,0.2455,0.2446,0.2538,0.2914,0.3054,0.3056,0.3494,0.3665,0.3665,0.3724,0.3751,0.3751,0.3751,0.3751,0.3751,0.3751,0.3685,0.3564,0.3171,0.2961,0.2901,0.2548,0.2624,0.272,0.2822,0.2989,0.327,0.3166,0.3166,0.3203,0.3142,0.3044,0.2948,0.2759,0.2592,0.0,0.0,0.2666,0.2759,0.3304,0.3273,0.3222,0.3528,0.3229,0.2825,0.2822,0.2618,0.257,0.0,0.2853,0.2774,0.2759,0.0,0.2694,0.2748,0.2818,0.2907,0.3119,0.3098,0.3162,0.3219,0.3174,0.3136,0.3131,0.3025,0.2955,0.295,0.2842,0.2777,0.277,0.2597,0.247,0.2402,0.2249,0.0,0.0,0.0,0.0,0.0,0.0,0.0,0.0,0.0,0.0,0.0,0.0,0.0,0.0,0.0,0.0,0.0,0.0,0.0,0.0,0.0,0.0,0.0,0.0,0.0,0.0,0.0,0.0,0.1982,0.1823,0.0,0.1892,0.1772,0.192,0.2157,0.2326,0.2409,0.2605,0.2776,0.295,0.3021,0.3414,0.356,0.356,0.3715,0.3737,0.3737,0.3759,0.377,0.377,0.377,0.377,0.377,0.377,0.3745,0.3699,0.3522,0.3396,0.324,0.2907,0.3003,0.3211,0.3211,0.3238,0.3373,0.3331,0.333,0.3343,0.3114,0.2953,0.2892,0.2893,0.2549,0.2212,0.2614,0.2448,0.238,0.2693,0.2711,0.2725,0.2826,0.2724,0.2623,0.2725,0.2725,0.2708,0.3048,0.2875,0.28,0.2909,0.291,0.2903,0.285,0.2958,0.306,0.3102,0.3161,0.3207,0.3229,0.3211,0.3183,0.3143,0.3064,0.3,0.2961,0.2849,0.2766,0.2726,0.2789,0.2679,0.2421,0.2419,0.2303,0.0,0.0,0.0,0.0,0.0,0.0,0.0,0.0,0.0,0.0,0.0,0.0,0.0,0.0,0.0,0.0,0.0,0.0,0.0,0.0,0.0,0.0,0.0,0.0,0.0,0.0,0.198,0.2125,0.197,0.1925,0.2062,0.195,0.2023,0.2381,0.2441,0.2608,0.2669,0.2938,0.3093,0.3243,0.3532,0.3681,0.38,0.382,0.3831,0.3831,0.3831,0.3831,0.3831,0.3831,0.3831,0.3831,0.3831,0.3819,0.38,0.38,0.3695,0.3533,0.3311,0.3421,0.353,0.34,0.3283,0.3278,0.3132,0.3107,0.3091,0.2878,0.2749,0.2723,0.2723,0.2493,0.2264,0.2571,0.2469,0.2161,0.2365,0.2468,0.2468,0.2468,0.2365,0.236,0.255,0.2445,0.2544,0.273,0.2798,0.2849,0.3063,0.2986,0.2891,0.3006,0.2901,0.2872,0.2971,0.3004,0.3029,0.3029,0.313,0.3214,0.3174,0.3095,0.3126,0.2992,0.286,0.2678,0.2639,0.2627,0.2455,0.2298,0.2425,0.2351,0.216,0.0,0.0,0.0,0.0,0.0,0.0,0.0,0.0,0.0,0.0,0.0,0.0,0.0,0.0,0.0,0.0,0.0,0.0,0.0,0.0,0.0,0.0,0.0,0.1391,0.1851,0.2228,0.2232,0.2122,0.2208,0.2438,0.2018,0.1971,0.2192,0.2261,0.2419,0.2651,0.2805,0.2945,0.3302,0.3353,0.3623,0.3865,0.3925,0.3956,0.3956,0.3956,0.3956,0.3956,0.3956,0.3956,0.3956,0.3954,0.392,0.3865,0.3864,0.3828,0.3775,0.3771,0.377,0.3762,0.3354,0.3219,0.3205,0.277,0.2601,0.2564,0.2562,0.2561,0.256,0.256,0.2559,0.2558,0.2451,0.2451,0.2451,0.2451,0.2451,0.2451,0.2451,0.2237,0.212,0.2084,0.187,0.1758,0.2032,0.2427,0.2828,0.313,0.2725,0.2623,0.313,0.2725,0.0,0.2725,0.2826,0.2826,0.2826,0.3029,0.323,0.323,0.3119,0.3048,0.3046,0.2698,0.2519,0.2519,0.2122,0.1967,0.2199,0.2195,0.2291,0.2363,0.0,0.0,0.0,0.0,0.0,0.0,0.0,0.0,0.0,0.0,0.0,0.0,0.0,0.0,0.0,0.0,0.0,0.0,0.0,0.0,0.0,0.0,0.2469,0.2377,0.2173,0.2258,0.2761,0.2415,0.2251,0.2615,0.232,0.2251,0.265,0.2676,0.2822,0.3213,0.3228,0.3372,0.3778,0.3832,0.3862,0.3986,0.4048,0.4078,0.4078,0.4078,0.4078,0.4078,0.4078,0.4078,0.4075,0.403,0.4001,0.3984,0.3943,0.3916,0.3892,0.3804,0.377,0.3767,0.3632,0.3627,0.3617,0.3427,0.3393,0.3372,0.2998,0.307,0.3148,0.2715,0.2692,0.2772,0.2344,0.2237,0.2237,0.2024,0.1917,0.1917,0.1917,0.2024,0.2234,0.2435,0.254,0.2643,0.2735,0.2598,0.2563,0.263,0.2623,0.2724,0.2623,0.2826,0.0,0.2522,0.2724,0.2826,0.2826,0.2826,0.3027,0.323,0.2924,0.2746,0.2709,0.2376,0.2122,0.2122,0.2134,0.2173,0.2173,0.2329,0.2312,0.0,0.0,0.0,0.0,0.0,0.0,0.0,0.0,0.0,0.0,0.0,0.0,0.0,0.0,0.0,0.0,0.0,0.0,0.0,0.0,0.0,0.0,0.2497,0.2658,0.2925,0.2554,0.2401,0.282,0.2522,0.2337,0.2515,0.2536,0.2449,0.2376,0.2528,0.28,0.3072,0.3092,0.324,0.3771,0.3802,0.3945,0.4072,0.4108,0.4125,0.4125,0.4125,0.4125,0.4125,0.4125,0.4125,0.4124,0.4087,0.4072,0.4068,0.401,0.3862,0.0,0.0,0.0,0.0,0.0,0.3317,0.3177,0.303,0.2905,0.2899,0.2642,0.2717,0.268,0.2346,0.2319,0.2396,0.207,0.196,0.196,0.196,0.1851,0.1742,0.1851,0.196,0.2065,0.2266,0.237,0.2473,0.2454,0.2324,0.0,0.2276,0.2345,0.2322,0.2422,0.2523,0.2424,0.2221,0.2323,0.2424,0.2424,0.2523,0.2725,0.3027,0.2846,0.0,0.0,0.0,0.1964,0.1744,0.1884,0.0,0.0,0.0,0.0,0.0,0.0,0.0,0.0,0.1219,0.0684,0.0,0.0,0.0,0.0,0.0,0.0,0.0,0.0,0.0,0.0,0.0,0.0,0.0,0.0,0.0,0.0,0.2552,0.2598,0.3052,0.2862,0.2662,0.2698,0.2512,0.2438,0.236,0.2631,0.2657,0.2062,0.2238,0.2525,0.2657,0.0,0.0,0.0,0.0,0.3748,0.4007,0.4013,0.4017,0.4017,0.4017,0.4146,0.4146,0.4146,0.4146,0.4146,0.4139,0.4136,0.4002,0.3943,0.3794,0.3538,0.3727,0.3826,0.3697,0.3159,0.2757,0.2369,0.2129,0.0,0.0,0.2005,0.1984,0.196,0.196,0.1941,0.1917,0.1913,0.18,0.1912,0.2133,0.202,0.1907,0.2132,0.202,0.19,0.1871,0.1865,0.1856,0.1827,0.1818,0.1923,0.2244,0.1869,0.1824,0.2329,0.2022,0.1718,0.1921,0.2022,0.2022,0.2022,0.0,0.0,0.2725,0.2678,0.2744,0.3032,0.2509,0.1932,0.1409,0.1574,0.1839,0.2125,0.2302,0.2543,0.2959,0.2872,0.232,0.1298,0.0907,0.0244,0.0,0.0,0.0,0.0,0.0,0.0,0.0,0.0,0.0,0.0,0.0,0.0,0.0,0.0,0.0,0.2696,0.2919,0.3088,0.3454,0.3312,0.301,0.2752,0.2902,0.3067,0.2757,0.2647,0.2558,0.2873,0.239,0.241,0.2954,0.2706,0.2838,0.3225,0.3132,0.3283,0.3283,0.3318,0.3604,0.3871,0.0,0.0,0.4273,0.4273,0.4273,0.427,0.4219,0.4067,0.38,0.3744,0.3594,0.3585,0.3242,0.3208,0.3207,0.3074,0.2943,0.2809,0.2772,0.2761,0.2755,0.2601,0.2584,0.2578,0.2695,0.2689,0.0,0.2298,0.2176,0.2169,0.1914,0.1795,0.1795,0.1907,0.202,0.2129,0.2123,0.2345,0.2567,0.2558,0.2418,0.2394,0.2504,0.2219,0.2063,0.2166,0.2241,0.212,0.1718,0.1819,0.2022,0.2022,0.2021,0.2222,0.2422,0.2479,0.2436,0.2497,0.2337,0.2198,0.2081,0.2387,0.2394,0.2274,0.2678,0.2881,0.2685,0.1785,0.1431,0.1452,0.0558,-0.0456,0.0,0.0,0.0,0.0,0.0,0.0,0.0,0.0,0.0,0.0,0.0,0.2187,0.0,0.0,0.2563,0.2916,0.3052,0.3156,0.321,0.3286,0.3327,0.3066,0.3084,0.3126,0.2954,0.2961,0.2864,0.2803,0.2698,0.2718,0.313,0.289,0.2901,0.3427,0.3318,0.3196,0.3196,0.3352,0.3632,0.3768,0.4037,0.4172,0.4308,0.4308,0.4172,0.4037,0.4007,0.3728,0.3458,0.341,0.3505,0.3603,0.3173,0.3141,0.3242,0.2846,0.2714,0.2711,0.2569,0.2441,0.2437,0.2419,0.24,0.2384,0.2384,0.2371,0.2352,0.21,0.2096,0.2093,0.2075,0.1955,0.1951,0.2163,0.2272,0.2267,0.2248,0.2356,0.2469,0.2469,0.2452,0.2548,0.2768,0.2601,0.2337,0.2316,0.24,0.2379,0.1947,0.2048,0.2143,0.2023,0.2122,0.2221,0.2422,0.24,0.2368,0.2324,0.2396,0.2373,0.2257,0.2467,0.2479,0.2574,0.2695,0.2514,0.2128,0.1463,0.0689,-0.0099,-0.0689,-0.117,0.0,0.0,0.0,0.0,0.0,0.0,0.0,0.0,0.2354,0.2292,0.2386,0.2491,0.2816,0.272,0.2734,0.3124,0.317,0.3099,0.3064,0.3238,0.3391,0.3513,0.327,0.3061,0.3022,0.3282,0.3179,0.2847,0.2882,0.3037,0.3177,0.2811,0.2963,0.3499,0.3229,0.3095,0.3228,0.3498,0.3768,0.3768,0.4038,0.4172,0.4172,0.4172,0.3902,0.3633,0.3633,0.3498,0.336,0.3325,0.3418,0.3638,0.3372,0.3345,0.343,0.2869,0.2602,0.2601,0.2348,0.2223,0.2223,0.2223,0.2205,0.2182,0.2303,0.2162,0.2139,0.2132,0.2131,0.2129,0.2358,0.2239,0.2231,0.2667,0.2542,0.2416,0.2376,0.2255,0.2253,0.2246,0.2244,0.2468,0.3026,0.2882,0.2732,0.2685,0.267,0.2544,0.2193,0.2398,0.2382,0.2137,0.2233,0.233,0.2322,0.2321,0.2306,0.2368,0.2366,0.2351,0.2317,0.2316,0.2429,0.276,0.2465,0.2185,0.1815,0.1109,-0.0101,-0.1613,-0.2218,-0.2117,0.2108,0.2117,0.0,0.2507,0.2449,0.251,0.0,0.0,0.2998,0.2813,0.3089,0.3259,0.3116,0.3066,0.3126,0.354,0.3287,0.3114,0.3727,0.3657,0.357,0.3817,0.357,0.3346,0.3025,0.3029,0.3192,0.3541,0.2765,0.2518,0.3219,0.2555,0.2424,0.2828,0.2828,0.2961,0.3228,0.3228,0.3498,0.3768,0.3498,0.3498,0.3902,0.3498,0.3362,0.3228,0.3228,0.3498,0.3767,0.3762,0.3756,0.3745,0.3699,0.3676,0.3659,0.3179,0.3022,0.3015,0.2976,0.2838,0.2961,0.3209,0.3082,0.2954,0.3571,0.3321,0.2938,0.3139,0.3007,0.2757,0.2836,0.2825,0.2824,0.2819,0.2818,0.2806,0.2759,0.2523,0.2399,0.2589,0.2693,0.2692,0.3026,0.3357,0.3335,0.3063,0.2799,0.2555,0.255,0.2549,0.2532,0.2487,0.2275,0.2158,0.2023,0.2021,0.2119,0.2413,0.2413,0.2411,0.2406,0.2406,0.2408,0.2413,0.2413,0.2416,0.2522,0.0201,-0.1208,-0.161,-0.3325,-0.3732,0.2549,0.0,0.0,0.0,0.2727,0.291,0.2948,0.3112,0.3168,0.3146,0.3314,0.348,0.343,0.3375,0.3441,0.0,0.3466,0.3508,0.3664,0.3537,0.3532,0.3898,0.3653,0.3454,0.3568,0.3323,0.3105,0.3326,0.2802,0.2676,0.3227,0.2692,0.2693,0.2961,0.2961,0.2827,0.2558,0.296,0.3229,0.3097,0.3229,0.3363,0.3768,0.3632,0.3498,0.3498,0.3362,0.3363,0.3768,0.3768,0.3902,0.4035,0.3878,0.3869,0.3988,0.3359,0.3069,0.3062,0.3016,0.3001,0.3121,0.3218,0.3085,0.3085,0.3332,0.3208,0.308,0.3183,0.3055,0.2929,0.2909,0.2904,0.3019,0.311,0.3223,0.3217,0.3195,0.3028,0.2876,0.3,0.2955,0.3027,0.3362,0.3475,0.3579,0.3444,0.331,0.3064,0.2926,0.3029,0.3116,0.3063,0.261,0.2275,0.2259,0.1932,0.192,0.2121,0.2121,0.2221,0.2422,0.2422,0.2422,0.2422,0.1815,0.121,0.0706,-0.0705,-0.1925,-0.2866,-0.3997,-0.4227,0.2662,0.0,0.0,0.2795,0.2951,0.3166,0.3022,0.3205,0.3402,0.3429,0.3481,0.354,0.3601,0.3662,0.0,0.3602,0.3632,0.3778,0.3574,0.3532,0.3497,0.386,0.3739,0.3671,0.4063,0.3595,0.3258,0.3206,0.2956,0.2961,0.3363,0.3096,0.2961,0.3228,0.3375,0.3107,0.2692,0.3242,0.3377,0.3098,0.3229,0.3498,0.3768,0.3633,0.3632,0.3632,0.3498,0.3632,0.3902,0.3902,0.4038,0.4308,0.4038,0.4038,0.4163,0.3684,0.3387,0.3368,0.3446,0.3418,0.3401,0.3239,0.3219,0.3211,0.3223,0.3228,0.323,0.3243,0.3238,0.3228,0.3228,0.3218,0.3323,0.3529,0.3519,0.3519,0.3519,0.3456,0.3294,0.3333,0.3254,0.3182,0.3523,0.3609,0.3587,0.3587,0.3587,0.3461,0.3311,0.3399,0.3481,0.3334,0.2959,0.2613,0.2508,0.2169,0.1949,0.2154,0.2041,0.2137,0.2338,0.2226,0.2221,0.2221,0.152,0.0406,-0.1016,-0.1327,-0.2376,-0.4101,-0.4525,-0.4687,0.0,0.0,0.2982,0.3104,0.3271,0.3406,0.3405,0.3495,0.3563,0.3506,0.3542,0.3604,0.3665,0.3725,0.3786,0.385,0.3665,0.3577,0.3828,0.3653,0.3497,0.386,0.386,0.3886,0.0,0.3677,0.3502,0.3164,0.3206,0.3363,0.3768,0.3363,0.3228,0.3228,0.3681,0.382,0.3768,0.4093,0.4367,0.4307,0.3902,0.3768,0.3768,0.3363,0.3228,0.3228,0.3632,0.4037,0.4308,0.4308,0.4308,0.4308,0.4308,0.4308,0.4307,0.4303,0.4264,0.4206,0.4145,0.4085,0.4034,0.4033,0.387,0.3837,0.389,0.4031,0.4044,0.4104,0.4078,0.4031,0.4031,0.3866,0.3826,0.3825,0.3825,0.3825,0.3825,0.3698,0.3449,0.3451,0.3365,0.3292,0.3292,0.3436,0.3587,0.3587,0.3587,0.3586,0.3585,0.3533,0.3388,0.3171,0.3014,0.2876,0.2662,0.2554,0.2553,0.2553,0.2302,0.2072,0.2072,0.1835,0.1617,0.1617,0.1951,0.0828,-0.1657,-0.1474,-0.2463,-0.4796,-0.5017,-0.5328,0.0,0.0,0.1686,0.1041,0.087,0.0896,0.0896,0.1694,0.2267,0.2229,0.2876,0.3533,0.3553,0.3608,0.3681,0.3783,0.385,0.3783,0.3946,0.3811,0.3783,0.3865,0.3895,0.0,0.0,0.0,0.0,0.3552,0.331,0.3333,0.3765,0.3666,0.3683,0.3683,0.3975,0.3976,0.341,0.3804,0.3921,0.3632,0.3498,0.3229,0.3098,0.3533,0.3666,0.3635,0.4077,0.4208,0.4308,0.4308,0.4308,0.4308,0.4038,0.4038,0.4307,0.4038,0.4159,0.4268,0.4207,0.4172,0.4149,0.4108,0.4082,0.4071,0.4089,0.4094,0.41,0.412,0.4082,0.4034,0.4034,0.3993,0.3951,0.3951,0.3951,0.3971,0.405,0.3881,0.3849,0.3924,0.3846,0.3647,0.3647,0.3671,0.368,0.36,0.3587,0.3587,0.3587,0.357,0.3557,0.3448,0.3177,0.3037,0.2929,0.2682,0.2558,0.2344,0.2225,0.2217,0.2217,0.189,0.1884,0.2303,0.1473,0.0211,-0.1476,-0.2545,-0.3889,-0.5224,-0.5335,-0.551,0.0,0.0305,0.0521,-0.011,-0.0227,-0.0231,-0.023,0.0457,0.1132,0.1113,0.1743,0.2471,0.2811,0.295,0.3235,0.3714,0.3788,0.3864,0.3966,0.3944,0.392,0.3922,0.3939,0.382,0.0,0.0,0.0,0.3655,0.3564,0.36,0.3765,0.3936,0.3955,0.3682,0.4112,0.4113,0.3546,0.3804,0.3922,0.3632,0.3632,0.3365,0.3098,0.3804,0.3936,0.377,0.4212,0.4343,0.4308,0.4308,0.4308,0.4308,0.4038,0.4172,0.4308,0.4038,0.4172,0.4301,0.4263,0.4234,0.421,0.417,0.4143,0.413,0.4151,0.4158,0.4162,0.4184,0.4002,0.3939,0.4067,0.3885,0.3826,0.3828,0.3951,0.3982,0.4101,0.4065,0.4049,0.4168,0.4094,0.4012,0.4012,0.3914,0.38,0.37,0.3666,0.3636,0.3593,0.3587,0.3587,0.3587,0.3444,0.3312,0.3312,0.306,0.2821,0.2495,0.2049,0.172,0.172,0.1282,0.1278,0.1811,0.1393,0.0322,-0.1287,-0.2609,-0.3884,-0.525,-0.551,-0.5668,-0.0801,-0.052,-0.0542,-0.0455,-0.0466,-0.0352,-0.0346,-0.0227,-0.0111,-0.0,0.0212,0.0624,0.0,0.0,0.2379,0.3409,0.3724,0.3831,0.401,0.3942,0.3914,0.0,0.0,0.0,0.0,0.0,0.0,0.3613,0.0,0.417,0.3902,0.4175,0.4042,0.3232,0.3958,0.4233,0.3773,0.4229,0.4365,0.4308,0.4308,0.4038,0.3768,0.4176,0.404,0.3768,0.4176,0.4311,0.4308,0.4308,0.4308,0.4308,0.4308,0.4308,0.4308,0.4308,0.4308,0.4308,0.4308,0.427,0.4221,0.4221,0.4183,0.4146,0.4204,0.4221,0.4233,0.4292,0.3955,0.3738,0.3997,0.3786,0.358,0.3826,0.3951,0.3982,0.4101,0.4125,0.4162,0.4283,0.4214,0.4132,0.4127,0.4033,0.3939,0.3875,0.3815,0.3733,0.3608,0.359,0.3587,0.3587,0.3587,0.3587,0.3587,0.3587,0.3474,0.3137,0.1765,0.0984,0.0876,0.0323,0.0107,0.0427,0.152,0.0875,-0.1421,-0.1579,-0.2775,-0.5062,-0.5501,-0.578,-0.2536,-0.2217,-0.1963,-0.2722,-0.2987,-0.2983,-0.2818,-0.2058,-0.1323,-0.1146,-0.0409,0.03,0.0664,0.0,0.0,0.2489,0.33,0.0,0.401,0.4048,0.0,0.0,0.0,0.4136,0.4105,0.4158,0.0,0.0,0.4222,0.4259,0.4171,0.435,0.4238,0.41,0.4253,0.4391,0.4238,0.4345,0.4187,0.3902,0.3902,0.3768,0.3365,0.3808,0.3941,0.377,0.422,0.4349,0.4308,0.4308,0.4308,0.4308,0.4308,0.4308,0.4308,0.4308,0.4308,0.4308,0.4308,0.4297,0.4285,0.4285,0.4274,0.4264,0.4279,0.4285,0.4288,0.4304,0.4088,0.3997,0.4125,0.3912,0.3826,0.3828,0.3951,0.3982,0.4101,0.4125,0.4162,0.4283,0.4282,0.4232,0.414,0.4101,0.4046,0.3943,0.3914,0.3843,0.3677,0.3616,0.3587,0.3587,0.3587,0.3587,0.3587,0.3362,0.3138,0.2805,0.2234,0.156,0.0891,0.0444,0.0553,0.1105,0.0111,-0.0668,-0.1335,-0.2498,-0.3933,-0.5412,-0.5739,-0.5782,-0.3449,-0.3229,-0.3073,-0.3723,-0.382,-0.3751,-0.3638,-0.2967,-0.2415,-0.2243,-0.162,0.0,0.0,0.0,0.0,0.0,0.0,0.0,0.4001,0.4064,0.4116,0.0,0.4213,0.0,0.4206,0.4236,0.4256,0.0,0.4256,0.4138,0.4035,0.4204,0.4222,0.4085,0.4222,0.4358,0.4358,0.4324,0.4172,0.4038,0.4038,0.3902,0.3635,0.3934,0.4067,0.4039,0.0,0.4339,0.4308,0.4308,0.4308,0.4308,0.4308,0.4308,0.4308,0.4308,0.4308,0.4308,0.4308,0.4308,0.4308,0.4308,0.4308,0.4308,0.4308,0.4308,0.4308,0.4308,0.4106,0.3899,0.3873,0.3677,0.361,0.371,0.3703,0.3726,0.4065,0.4086,0.4123,0.4244,0.4289,0.4286,0.4217,0.4206,0.4174,0.4082,0.3898,0.3706,0.3847,0.3737,0.3657,0.363,0.3604,0.3587,0.3587,0.325,0.3027,0.2693,0.1906,0.1012,0.0113,-0.0225,-0.0338,-0.0343,-0.1015,-0.1572,-0.215,-0.3083,-0.4265,-0.5588,-0.572,-0.5759,-0.3709,-0.3775,-0.3792,-0.3837,-0.3756,-0.3617,-0.3431,-0.3294,-0.3136,-0.2888,0.0,0.0,-0.1499,0.0,0.0563,0.1792,0.0,0.3568,0.3991,0.4034,0.4102,0.4286,0.426,0.4249,0.4303,0.4308,0.4308,0.4308,0.4308,0.4172,0.3902,0.4172,0.4172,0.3902,0.4172,0.4308,0.4308,0.4308,0.4308,0.4308,0.4308,0.4308,0.4308,0.4308,0.4308,0.4308,0.4308,0.0,0.4308,0.4308,0.4308,0.4308,0.4308,0.4308,0.4308,0.4308,0.4308,0.4308,0.4308,0.4308,0.4308,0.4308,0.4308,0.4308,0.4308,0.4308,0.4308,0.4308,0.3997,0.3676,0.3622,0.3316,0.3144,0.3345,0.3455,0.3593,0.3898,0.3921,0.409,0.4196,0.4266,0.4308,0.4308,0.4308,0.4289,0.4237,0.3876,0.3679,0.3921,0.377,0.376,0.3709,0.3655,0.362,0.3612,0.3265,0.2924,0.2703,0.1458,0.0225,-0.0801,-0.1131,-0.1594,-0.2227,-0.1938,-0.2262,-0.3211,-0.344,-0.4244,-0.5627,-0.5696,-0.5506,-0.373,-0.3807,-0.3835,-0.3796,-0.3694,-0.3544,-0.3315,-0.3168,0.0,0.0,0.0,-0.2517,-0.2254,-0.1432,0.0,0.0683,0.0,0.0,0.0,0.0,0.4102,0.0,0.0,0.0,0.0,0.0,0.0,0.0,0.0,0.4308,0.4172,0.4307,0.4307,0.4172,0.4307,0.4308,0.4308,0.4308,0.4308,0.4308,0.4308,0.4308,0.4308,0.4308,0.4308,0.4308,0.4308,0.0,0.4308,0.4308,0.4308,0.4308,0.4308,0.4308,0.4308,0.4308,0.4308,0.4308,0.4308,0.4308,0.4308,0.4308,0.4308,0.4308,0.4308,0.4308,0.4308,0.4308,0.4263,0.4071,0.3752,0.3571,0.3395,0.3096,0.3332,0.3471,0.3523,0.3859,0.4191,0.4213,0.4266,0.4308,0.4308,0.4308,0.4304,0.4293,0.3966,0.3645,0.3729,0.3582,0.36,0.383,0.3819,0.3673,0.339,0.2997,0.2746,0.2405,0.1921,0.1123,0.0225,-0.0568,-0.1146,-0.1268,-0.3094,-0.3776,-0.3211,-0.4473,-0.5163,-0.5396,-0.5456,-0.5326,-0.3698,-0.3766,-0.379,-0.3698,-0.3561,-0.3377,-0.3106,0.0,0.0,0.0,0.0,-0.2425,-0.2304,0.0,0.0,0.0,0.0,0.0,0.0,0.0,0.0,0.0,0.0,0.0,0.0,0.0,0.0,0.0,0.0,0.4308,0.4308,0.4308,0.4308,0.4308,0.4308,0.4308,0.4308,0.4308,0.4308,0.4308,0.4308,0.4308,0.4308,0.4308,0.4308,0.4308,0.4308,0.0,0.4308,0.4308,0.4308,0.4308,0.4308,0.4308,0.4308,0.4308,0.4308,0.4308,0.4308,0.4308,0.4308,0.4308,0.4308,0.4308,0.4308,0.4308,0.4308,0.4308,0.4286,0.411,0.3502,0.3337,0.3301,0.3102,0.3332,0.3719,0.3773,0.3978,0.4179,0.421,0.4108,0.3993,0.3993,0.3838,0.3688,0.3688,0.3382,0.3222,0.3353,0.3144,0.3069,0.3383,0.3351,0.3206,0.3063,0.2922,0.2668,0.2302,0.217,0.1591,0.0455,-0.0,-0.0803,-0.1766,-0.2895,-0.3589,-0.3766,-0.4904,-0.5373,-0.5066,-0.5065,-0.4918,-0.3639,-0.3694,-0.3704,-0.3595,-0.3444,-0.324,-0.2926,-0.276,0.0,0.0,-0.2273,-0.2271,-0.2189,0.0,0.0,0.0,0.0,0.0,0.0,0.0,0.0,0.0,0.0,0.0,0.0,0.0,0.0,0.0,0.0,0.0,0.4308,0.4308,0.4308,0.4308,0.4308,0.4308,0.4308,0.4308,0.4308,0.4308,0.4308,0.4308,0.4308,0.4308,0.4308,0.4308,0.4308,0.0,0.0,0.4308,0.4308,0.4308,0.4308,0.4308,0.4308,0.4308,0.4308,0.4308,0.4308,0.4308,0.4308,0.4308,0.4308,0.4308,0.4308,0.4308,0.4308,0.4308,0.4298,0.413,0.3249,0.309,0.319,0.3105,0.3455,0.3842,0.4023,0.4082,0.4143,0.4204,0.3963,0.3834,0.369,0.3395,0.3238,0.3099,0.2804,0.2661,0.295,0.2662,0.2489,0.2673,0.2765,0.2864,0.2735,0.2735,0.2603,0.2222,0.2329,0.1859,0.0813,0.0688,-0.0116,-0.1806,-0.2122,-0.2951,-0.4237,-0.4545,-0.4546,-0.4239,-0.4306,-0.4371,-0.3565,-0.36,-0.3589,-0.3522,-0.3413,-0.3229,-0.2872,0.0,0.0,0.0,-0.2204,-0.2184,-0.2228,-0.2373,0.0,0.0,0.0,0.0,0.0,0.0,0.0,0.0,0.0,0.0,0.0,0.0,0.0,0.0,0.0,0.0,0.4308,0.4308,0.4308,0.4308,0.4308,0.4308,0.4308,0.4308,0.4308,0.4308,0.4308,0.4308,0.4308,0.4308,0.4308,0.4308,0.4308,0.0,0.0,0.4308,0.4308,0.4308,0.4308,0.4308,0.4308,0.4308,0.4308,0.4308,0.4308,0.4308,0.4308,0.4308,0.4308,0.4308,0.4308,0.4308,0.4308,0.4308,0.4267,0.4079,0.3239,0.3322,0.3402,0.347,0.3455,0.3593,0.3896,0.4082,0.4143,0.4204,0.4262,0.4147,0.3829,0.3684,0.3535,0.3103,0.2804,0.2651,0.2655,0.2248,0.2102,0.2096,0.2616,0.2868,0.2582,0.2579,0.2333,0.2086,0.2299,0.228,0.228,0.1677,0.0959,0.0361,-0.1095,-0.2573,-0.3936,-0.3069,-0.27,-0.2582,-0.2871,-0.3042,-0.3405,-0.3478,-0.351,-0.3414,-0.33,-0.3127,-0.2803,0.0,0.0,-0.2238,-0.1831,-0.1553,-0.1638,-0.1468,-0.0808,0.0645,0.0671,0.1081,0.0,0.0,0.0,0.0,0.0,0.0,0.0,0.0,0.0,0.0,0.0,0.0,0.4308,0.4308,0.4308,0.4308,0.4308,0.4308,0.4308,0.4308,0.4308,0.4308,0.4308,0.4308,0.4308,0.4308,0.4308,0.4308,0.4308,0.0,0.0,0.4308,0.4308,0.4308,0.4308,0.4308,0.4308,0.4308,0.4308,0.4308,0.4308,0.4308,0.4308,0.4308,0.4308,0.4308,0.4308,0.4308,0.4308,0.4308,0.4263,0.4072,0.3238,0.317,0.3232,0.3213,0.3455,0.3852,0.407,0.4109,0.4014,0.3941,0.3682,0.3528,0.3089,0.2805,0.2658,0.2517,0.2376,0.2243,0.2243,0.2107,0.1977,0.1977,0.2235,0.2362,0.2224,0.2364,0.2367,0.1977,0.2351,0.2346,0.2202,0.1957,0.1228,0.0248,0.0623,0.0125,-0.1519,-0.1631,-0.1632,-0.1519,-0.1262,-0.1525,-0.3268,-0.3368,-0.3425,-0.3342,-0.3217,-0.304,0.0,0.0,-0.2345,-0.1923,-0.148,-0.1076,-0.1008,-0.0683,-0.0071,0.0996,0.0955,0.1277,0.2702,0.0,0.0,0.0,0.0,0.0,0.0,0.0,0.0,0.0,0.0,0.0,0.0,0.4308,0.4308,0.4308,0.4308,0.4308,0.4308,0.4308,0.4308,0.4308,0.4308,0.4308,0.4308,0.4308,0.4308,0.4308,0.4308,0.0,0.0,0.4308,0.4308,0.4308,0.4308,0.4308,0.4308,0.4308,0.4308,0.4308,0.4308,0.4308,0.4308,0.4308,0.4308,0.4308,0.4308,0.4308,0.4308,0.4308,0.4118,0.3782,0.3328,0.3135,0.3085,0.3209,0.358,0.3982,0.4101,0.3984,0.3865,0.3675,0.3387,0.2954,0.2657,0.2378,0.211,0.1978,0.1977,0.1977,0.1977,0.1977,0.1977,0.1977,0.1977,0.1977,0.1977,0.2253,0.2261,0.199,0.2384,0.2387,0.2114,0.2237,0.1869,0.0877,0.2022,0.2038,0.064,-0.0,-0.0255,-0.0129,-0.0,-0.0382,-0.3183,-0.3277,-0.3323,-0.3322,-0.3184,-0.2988,0.0,-0.255,-0.2147,-0.1299,-0.1076,-0.0941,-0.0403,-0.0403,-0.0138,0.0898,0.1025,0.1447,0.0,0.0,0.0,0.0,0.0,0.0,0.0,0.0,0.0,0.0,0.0,0.0,0.0,0.4308,0.4308,0.4308,0.4308,0.4308,0.4308,0.4308,0.4308,0.4308,0.4308,0.4308,0.4308,0.4308,0.4308,0.0,0.0,0.0,0.0,0.4308,0.4308,0.4308,0.4308,0.4308,0.4308,0.4308,0.4308,0.4308,0.4308,0.4308,0.4308,0.4308,0.4308,0.4308,0.4308,0.4308,0.4308,0.4308,0.3694,0.3205,0.3485,0.3209,0.3208,0.3703,0.3951,0.3982,0.4101,0.3826,0.3566,0.3669,0.3387,0.2954,0.2657,0.265,0.2512,0.2105,0.1977,0.1977,0.1977,0.1977,0.1977,0.1977,0.1977,0.1977,0.1977,0.2003,0.2018,0.2018,0.2397,0.265,0.2523,0.2903,0.3007,0.2716,0.2923,0.269,0.2019,0.2049,0.1934,0.1935,0.0903,-0.0383,-0.2824,-0.2907,-0.2851,-0.2266,-0.2045,-0.1804,-0.1194,-0.1306,-0.1331,-0.0547,-0.047,-0.0403,0.0134,0.0538,0.0909,0.1409,0.137,0.0,0.0,0.0,0.0,0.0,0.0,0.0,0.0,0.0,0.0,0.0,0.0,0.0,0.0,0.4308,0.4308,0.4308,0.4308,0.4308,0.4308,0.4308,0.4308,0.4308,0.4308,0.4308,0.4308,0.4308,0.4308,0.0,0.0,0.0,0.0,0.4308,0.4308,0.4308,0.4308,0.4308,0.4308,0.4308,0.4308,0.4308,0.4308,0.4308,0.4308,0.4308,0.4308,0.4308,0.4308,0.4308,0.429,0.4207,0.3638,0.3205,0.3483,0.3209,0.3085,0.3579,0.3826,0.3848,0.3671,0.3546,0.3418,0.3066,0.2805,0.2657,0.2244,0.2239,0.2111,0.1978,0.1977,0.1977,0.1977,0.1977,0.1977,0.1977,0.1977,0.1977,0.1977,0.2003,0.2018,0.2018,0.2165,0.2306,0.2178,0.2306,0.2429,0.229,0.2311,0.2316,0.205,0.2038,0.2023,0.2004,0.1628,0.1249,0.0,-0.2669,-0.2541,-0.1768,-0.1494,-0.1209,-0.0529,-0.0661,-0.064,0.0134,0.0198,0.0265,0.0805,0.121,0.1463,0.1617,0.16,0.0,0.0,0.0,0.0,0.0,0.0,0.0,0.0,0.0,0.0,0.0,0.0,0.0,0.0,0.4308,0.4308,0.4308,0.4308,0.4308,0.4308,0.4308,0.4308,0.4308,0.4308,0.4308,0.4308,0.4308,0.4308,0.0,0.0,0.0,0.0,0.4308,0.4308,0.4308,0.4308,0.4308,0.4308,0.4308,0.4308,0.4308,0.4308,0.4308,0.4308,0.4308,0.4308,0.4308,0.4308,0.4308,0.4288,0.4056,0.3626,0.3335,0.3508,0.3347,0.3209,0.358,0.3826,0.3842,0.3773,0.3534,0.3408,0.2903,0.265,0.2512,0.2105,0.1977,0.1977,0.1977,0.1977,0.1977,0.1977,0.1977,0.1977,0.1977,0.1977,0.1977,0.1977,0.1992,0.2003,0.2003,0.202,0.2031,0.2031,0.2041,0.2042,0.2031,0.2041,0.2041,0.2031,0.2011,0.1994,0.1977,0.1977,0.1977,0.0,-0.2434,-0.2333,-0.1641,-0.1358,-0.107,-0.0583,-0.0417,0.0,0.071,0.0772,0.0911,0.148,0.1554,0.1585,0.1541,0.1802,0.0,0.0,0.0,0.0,0.0,0.0,0.0,0.0,0.0,0.0,0.0,0.0,0.0,0.0,0.4308,0.4308,0.4308,0.4308,0.4308,0.4308,0.4308,0.4308,0.4308,0.4308,0.4308,0.4308,0.4308,0.4308,0.0,0.0,0.0,0.0,0.4308,0.4308,0.4308,0.4308,0.4308,0.4308,0.4308,0.4308,0.4308,0.4308,0.4308,0.4308,0.4308,0.4308,0.4308,0.4308,0.4308,0.416,0.3831,0.3646,0.3596,0.3544,0.3494,0.358,0.3826,0.3951,0.3965,0.4016,0.3779,0.3403,0.3151,0.2772,0.2509,0.2105,0.1977,0.1977,0.1977,0.1977,0.1977,0.1977,0.1977,0.1977,0.1977,0.1977,0.1977,0.1977,0.1977,0.1977,0.1977,0.1977,0.1977,0.1977,0.2002,0.2003,0.1977,0.2002,0.2003,0.1977,0.1977,0.1977,0.1977,0.1977,0.1977,-0.0747,0.0,-0.1362,-0.0671,-0.0134,0.0402,0.0,0.0646,0.0516,0.0,0.0,0.0658,0.1556,0.1478,0.1314,0.168,0.0,0.0,0.0,0.0,0.0,0.0,0.0,0.0,0.0,0.0,0.0,0.0,0.0,0.0,0.0,0.4308,0.4308,0.4308,0.4308,0.4308,0.4308,0.4308,0.4308,0.4308,0.4308,0.4308,0.4308,0.4308,0.4308,0.0,0.0,0.0,0.4308,0.4308,0.4308,0.4308,0.4308,0.4308,0.4308,0.4308,0.4308,0.4308,0.4308,0.4308,0.4308,0.4308,0.4308,0.4308,0.4308,0.4308,0.4285,0.4047,0.3748,0.3588,0.3748,0.3713,0.358,0.3826,0.3951,0.383,0.3719,0.3597,0.3351,0.2729,0.2605,0.2354,0.2101,0.1977,0.1977,0.1977,0.1977,0.1977,0.1977,0.1977,0.1977,0.1977,0.1977,0.1977,0.1977,0.1977,0.1977,0.1977,0.1977,0.1977,0.1977,0.1983,0.1983,0.1977,0.1983,0.1983,0.1977,0.1977,0.1977,0.1977,0.1977,0.1977,-0.0343,-0.0487,-0.0579,0.0064,0.0454,0.0782,0.1266,0.0,0.0,0.0,0.0,0.0,0.1623,0.0,0.0,0.0,0.0,0.0,0.0,0.0,0.0,0.0,0.0,0.0,0.0,0.0,0.0,0.0,0.0,0.0,0.0,0.4308,0.4308,0.4308,0.4308,0.4308,0.4308,0.4308,0.4308,0.4308,0.4308,0.4308,0.4308,0.4308,0.4308,0.0,0.0,0.0,0.4308,0.4308,0.4308,0.4308,0.4308,0.4308,0.4308,0.4308,0.4308,0.4308,0.4308,0.4308,0.4308,0.4308,0.4289,0.4266,0.4266,0.4245,0.4215,0.4179,0.4018,0.3848,0.3887,0.3846,0.371,0.3858,0.397,0.3834,0.3734,0.3616,0.336,0.2842,0.2605,0.2489,0.2102,0.1977,0.1977,0.1977,0.1977,0.1977,0.1977,0.1977,0.1977,0.1977,0.1977,0.1977,0.1977,0.1977,0.1977,0.1977,0.1977,0.1977,0.1977,0.1977,0.1977,0.1977,0.1977,0.1977,0.1977,0.1977,0.1977,0.1977,0.1977,0.1977,-0.017,-0.0,0.0196,0.0592,0.0664,0.0729,0.116,0.0,0.0,0.0,0.0,0.0,0.0,0.0,0.0,0.0,0.0,0.0,0.0,0.0,0.0,0.0,0.0,0.0,0.0,0.0,0.0,0.0,0.0,0.0,0.0,0.4308,0.4308,0.4308,0.4308,0.4308,0.4308,0.4308,0.4308,0.4308,0.4308,0.4308,0.4308,0.4308,0.4308,0.4308,0.0,0.0,0.4308,0.4308,0.4308,0.4308,0.4308,0.4308,0.4308,0.4308,0.4308,0.4307,0.4297,0.4293,0.4292,0.4283,0.4244,0.4203,0.4203,0.4166,0.4135,0.4177,0.4151,0.4098,0.4037,0.3993,0.3976,0.4023,0.4006,0.3988,0.4026,0.3785,0.3393,0.3094,0.2743,0.2507,0.211,0.2107,0.2107,0.2107,0.2111,0.2113,0.2107,0.2107,0.2107,0.2107,0.1979,0.1977,0.1977,0.1977,0.1977,0.1977,0.1977,0.1977,0.1977,0.1977,0.1977,0.1977,0.1977,0.1977,0.1977,0.1977,0.1979,0.2107,0.2107,0.211,0.096,0.1234,0.122,0.0555,0.0751,0.1162,0.1064,0.0,0.0,0.0,0.0,0.0,0.0,0.0,0.0,0.0,0.0,0.0,0.0,0.0,0.0,0.0,0.0,0.0,0.0,0.0,0.0,0.0,0.0,0.0,0.0,0.4308,0.4308,0.4308,0.4308,0.4308,0.4308,0.4308,0.4308,0.4308,0.4308,0.4308,0.4308,0.4308,0.4308,0.4308,0.0,0.4308,0.4308,0.4308,0.4308,0.4308,0.4308,0.4308,0.4308,0.4308,0.4308,0.43,0.4248,0.423,0.4222,0.417,0.4147,0.4139,0.4139,0.4134,0.4116,0.4075,0.4056,0.4036,0.3978,0.3993,0.4025,0.4033,0.4067,0.4087,0.4044,0.3785,0.3393,0.3094,0.2719,0.2484,0.2511,0.2516,0.2516,0.2516,0.2797,0.2807,0.252,0.2516,0.2516,0.2516,0.224,0.1977,0.1977,0.1977,0.1977,0.1977,0.1977,0.1977,0.1977,0.1977,0.1977,0.1977,0.1977,0.1977,0.1977,0.1977,0.2113,0.2516,0.2516,0.2659,0.1048,0.1194,0.1264,0.096,0.1153,0.1433,0.0,0.0,0.0,0.0,0.0,0.0,0.0,0.0,0.0,0.0,0.0,0.0,0.0,0.0,0.0,0.0,0.0,0.0,0.0,0.0,0.0,0.0,0.0,0.0,0.0,0.0,0.4308,0.4308,0.4308,0.4308,0.4308,0.4308,0.4308,0.4308,0.4308,0.4308,0.4308,0.4308,0.4308,0.4308,0.0,0.4308,0.4308,0.4308,0.4308,0.4308,0.4308,0.4288,0.4255,0.4221,0.421,0.4206,0.4177,0.4168,0.4162,0.4135,0.4104,0.4076,0.4076,0.4055,0.4026,0.3997,0.4011,0.4029,0.4003,0.4015,0.4052,0.4117,0.4104,0.4078,0.4083,0.3784,0.3485,0.3337,0.2981,0.2879,0.2899,0.2922,0.281,0.281,0.2956,0.309,0.294,0.281,0.281,0.281,0.2522,0.2375,0.2375,0.211,0.1977,0.1977,0.1977,0.1977,0.1977,0.1977,0.1977,0.1977,0.1977,0.1977,0.1977,0.2241,0.2383,0.265,0.2799,0.2949,0.0915,0.098,0.1116,0.1281,0.0,0.1457,0.1386,0.0,0.0,0.0,0.0,0.0,0.0,0.0,0.0,0.0,0.0,0.0,0.0,0.0,0.0,0.0,0.0,0.0,0.0,0.0,0.0,0.0,0.0,0.0,0.0,0.0,0.4264,0.4264,0.4264,0.4264,0.4264,0.4264,0.4271,0.4286,0.43,0.43,0.4286,0.4286,0.4294,0.4307,0.4278,0.4273,0.4285,0.4271,0.4264,0.4264,0.4264,0.4236,0.4189,0.4143,0.4125,0.4124,0.4109,0.4105,0.4102,0.4089,0.4053,0.4015,0.4015,0.3985,0.3951,0.3951,0.3981,0.4018,0.4031,0.4034,0.4061,0.4169,0.4124,0.4064,0.4098,0.3782,0.3475,0.3475,0.3257,0.3162,0.3185,0.3218,0.3242,0.3242,0.3382,0.3385,0.3243,0.3242,0.3242,0.3242,0.2944,0.2664,0.2664,0.2387,0.2244,0.2111,0.2104,0.1977,0.1977,0.1977,0.1977,0.1977,0.2107,0.211,0.211,0.2519,0.2795,0.2806,0.3096,0.3249,0.1027,0.1155,0.135,0.118,0.1125,0.0,0.1903,0.0,0.0,0.0,0.0,0.0,0.0,0.0,0.0,0.0,0.0,0.0,0.0,0.0,0.0,0.0,0.0,0.0,0.0,0.0,0.0,0.0,0.0,0.0,0.0,0.0,0.4139,0.4139,0.4139,0.4139,0.4139,0.4139,0.4166,0.4224,0.4281,0.4278,0.4222,0.4222,0.4253,0.4301,0.4188,0.417,0.4218,0.4162,0.4139,0.4139,0.4139,0.4136,0.4132,0.4127,0.4125,0.4117,0.406,0.4041,0.4033,0.398,0.3961,0.3956,0.3956,0.3954,0.3951,0.3951,0.3954,0.3969,0.4022,0.4034,0.4052,0.4116,0.4125,0.4105,0.4052,0.3785,0.3529,0.3529,0.328,0.3182,0.353,0.368,0.3682,0.3682,0.3992,0.4141,0.3689,0.3682,0.3682,0.3682,0.3249,0.3092,0.3092,0.3089,0.2941,0.2522,0.224,0.1977,0.1977,0.1977,0.1977,0.1977,0.2378,0.252,0.252,0.2942,0.3242,0.3677,0.3681,0.3843,0.0983,0.1065,0.0,0.1323,0.0,0.0,0.0,0.0,0.0,0.0,0.0,0.0,0.0,0.0,0.0,0.0,0.0,0.0,0.0,0.0,0.0,0.0,0.0,0.0,0.0,0.0,0.0,0.0,0.0,0.0,0.0,0.0,0.4125,0.4125,0.4125,0.4125,0.4125,0.4125,0.4117,0.4104,0.4165,0.4183,0.4159,0.4159,0.4172,0.4192,0.4146,0.4139,0.4158,0.4135,0.4125,0.4123,0.4083,0.4068,0.4064,0.403,0.4016,0.4014,0.3991,0.3982,0.3978,0.3958,0.3951,0.3951,0.3951,0.3951,0.3951,0.3951,0.3951,0.3963,0.4021,0.4034,0.405,0.411,0.4097,0.4063,0.404,0.3883,0.3745,0.3779,0.3813,0.3733,0.394,0.3982,0.4139,0.4139,0.4159,0.4298,0.4142,0.4139,0.4139,0.4139,0.3692,0.3256,0.297,0.2968,0.309,0.3201,0.265,0.2244,0.1977,0.1977,0.2109,0.2378,0.2517,0.2662,0.2944,0.3245,0.3538,0.3689,0.3989,0.4151,0.0969,0.0986,0.1138,0.0,0.0,0.0,0.0,0.0,0.0,0.0,0.0,0.0,0.0,0.0,0.0,0.0,0.0,0.0,0.0,0.0,0.0,0.0,0.0,0.0,0.0,0.0,0.0,0.0,0.0,0.0,0.0,0.4071,0.4071,0.4071,0.4071,0.4071,0.4071,0.4071,0.4049,0.4008,0.405,0.4079,0.4097,0.4097,0.4108,0.4124,0.4086,0.408,0.4095,0.4078,0.4071,0.4065,0.4025,0.4008,0.4003,0.3965,0.3951,0.3951,0.3951,0.3951,0.3951,0.3951,0.3951,0.3951,0.3951,0.3951,0.3951,0.3951,0.3951,0.3959,0.3999,0.4008,0.4023,0.4083,0.4052,0.4008,0.4008,0.3978,0.3967,0.4023,0.4083,0.4145,0.4206,0.4267,0.4308,0.4308,0.4308,0.4308,0.4308,0.4308,0.4308,0.4308,0.4002,0.3568,0.3273,0.34,0.3525,0.3769,0.3346,0.2924,0.2381,0.238,0.2517,0.2795,0.2936,0.3086,0.3247,0.3689,0.3847,0.3847,0.4154,0.4308,0.1002,0.0926,0.0,0.0,0.0,0.0,0.0,0.0,0.0,0.0,0.0,0.0,0.0,0.0,0.0,0.0,0.0,0.0,0.0,0.0,0.0,0.0,0.0,0.0,0.0,0.0,0.0,0.0,0.0,0.0,0.0,0.3951,0.3951,0.3951,0.3951,0.3951,0.3951,0.3951,0.3951,0.3951,0.3951,0.398,0.4034,0.4034,0.4067,0.4117,0.4001,0.3982,0.403,0.3974,0.3951,0.3951,0.3951,0.3951,0.3951,0.3951,0.3951,0.3951,0.3951,0.3951,0.3951,0.3951,0.3951,0.3951,0.3951,0.3951,0.3951,0.3951,0.3951,0.3951,0.3951,0.3951,0.3965,0.4021,0.3991,0.3951,0.3951,0.3951,0.3967,0.4023,0.4083,0.4145,0.4206,0.4267,0.4308,0.4308,0.4308,0.4308,0.4308,0.4308,0.4308,0.4308,0.4308,0.4308,0.4308,0.4307,0.4281,0.4354,0.435,0.3929,0.3099,0.3097,0.3097,0.3098,0.3532,0.3688,0.3689,0.4143,0.4308,0.4308,0.4308,0.4308,0.1002,0.0953,0.0,0.0,0.0,0.0,0.0,0.0,0.0,0.0,0.0,0.0,0.0,0.0,0.0,0.0,0.0,0.0,0.0,0.0,0.0,0.0,0.0,0.0,0.0,0.0,0.0,0.0,0.0,0.0,0.0,0.3951,0.3951,0.3951,0.3951,0.3951,0.3951,0.3951,0.3951,0.3951,0.3951,0.3959,0.3976,0.3976,0.3985,0.4,0.3966,0.3961,0.3974,0.3958,0.3951,0.3951,0.3951,0.3951,0.3951,0.3951,0.3951,0.3951,0.3951,0.3951,0.3951,0.3951,0.3951,0.3951,0.3951,0.3951,0.3951,0.3951,0.3951,0.3951,0.3951,0.3951,0.3955,0.3971,0.3962,0.3951,0.3951,0.3951,0.3967,0.4023,0.4083,0.4145,0.4206,0.4267,0.4308,0.4308,0.4308,0.4308,0.4308,0.3498,0.3228,0.4172,0.4308,0.4308,0.4308,0.0538,-0.0,0.4014,0.4281,0.3971,0.3359,0.3226,0.3241,0.3535,0.3681,0.3839,0.4147,0.4298,0.4308,0.4308,0.4308,0.4308,0.1109,0.0,0.0,0.0,0.0,0.0,0.0,0.0,0.0,0.0,0.0,0.0,0.0,0.0,0.0,0.0,0.0,0.0,0.0,0.0,0.0,0.0,0.0,0.0,0.0,0.0,0.0,0.0,0.0,0.0,0.0,0.3951,0.3951,0.3951,0.3951,0.3951,0.3951,0.3951,0.3951,0.3951,0.3951,0.3951,0.3951,0.3951,0.3951,0.3951,0.3951,0.3951,0.3951,0.3951,0.3951,0.3951,0.3951,0.3951,0.3951,0.3951,0.3951,0.3951,0.3951,0.3951,0.3951,0.3951,0.3951,0.3951,0.3951,0.3951,0.3951,0.3951,0.3951,0.3951,0.3951,0.3951,0.3951,0.3951,0.3951,0.3951,0.3951,0.3951,0.3961,0.3995,0.4049,0.3851,0.3386,0.3833,0.4145,0.3496,0.3498,0.3633,0.4172,0.3094,0.2555,0.3363,0.3228,0.3094,0.3094,-0.0403,-0.1613,0.0672,0.1613,0.2269,0.2626,0.328,0.3689,0.3985,0.3987,0.4003,0.4308,0.4308,0.4308,0.4308,0.4308,0.4308,0.0,0.0,0.0,0.0,0.0,0.0,0.0,0.0,0.0,0.0,0.0,0.0,0.0,0.0,0.0,0.0,0.0,0.0,0.0,0.0,0.0,0.0,0.0,0.0,0.0,0.0,0.0,0.0,0.0,0.0,0.0,0.3933,0.3933,0.3933,0.3933,0.3933,0.3933,0.3933,0.3933,0.3933,0.3933,0.3936,0.3943,0.3948,0.3951,0.3951,0.3951,0.3951,0.3951,0.3951,0.3951,0.3951,0.3951,0.3951,0.3951,0.3951,0.3951,0.3951,0.3951,0.3951,0.3951,0.3951,0.3951,0.3951,0.3951,0.3951,0.3951,0.3951,0.3951,0.3951,0.3951,0.3951,0.3951,0.3951,0.3951,0.3951,0.3951,0.3951,0.3951,0.3951,0.3996,0.3671,0.2436,0.3257,0.3574,0.2146,0.2017,0.242,0.3768,0.269,0.1882,0.2017,0.1479,0.1075,0.121,0.0403,-0.121,-0.3902,-0.242,-0.0672,0.1075,0.3094,0.4172,0.4308,0.4308,0.4308,0.4308,0.4308,0.4308,0.4308,0.4308,0.4308,0.0,0.0,0.0,0.0,0.0,0.0,0.0,0.0,0.0,0.0,0.0,0.0,0.0,0.0,0.0,0.0,0.0,0.0,0.0,0.0,0.0,0.0,0.0,0.0,0.0,0.0,0.0,0.0,0.0,0.0,0.3808,0.3808,0.3808,0.3808,0.3808,0.3808,0.3808,0.3808,0.3808,0.0,0.3808,0.3834,0.3882,0.3929,0.3951,0.3951,0.3951,0.3951,0.3951,0.3951,0.3951,0.3951,0.3951,0.3951,0.3951,0.3951,0.3951,0.3951,0.3951,0.3951,0.3951,0.3951,0.3951,0.3951,0.3951,0.3951,0.3951,0.3951,0.3951,0.3951,0.3951,0.3951,0.3951,0.3951,0.3951,0.3951,0.3951,0.3951,0.3951,0.3951,0.3996,0.3912,0.3671,0.2977,0.2116,0.067,0.0538,0.0538,0.0941,-0.0403,-0.0806,0.0403,-0.0672,-0.0941,0.0269,-0.0538,-0.1344,-0.2017,-0.1613,-0.121,-0.0806,0.1479,0.3228,0.4308,0.4308,0.4308,0.4308,0.4308,0.4308,0.4308,0.4308,0.4308,0.0,0.0,0.0,0.0,0.0,0.0,0.0,0.0,0.0,0.0,0.0,0.0,0.0,0.0,0.0,0.0,0.0,0.0,0.0,0.0,0.0,0.0,0.0,0.0,0.0,0.0,0.0,0.0,0.0,0.3739,0.3768,0.377,0.377,0.377,0.377,0.377,0.377,0.377,0.377,0.377,0.377,0.3786,0.3819,0.3909,0.3951,0.3951,0.3951,0.3951,0.3951,0.3951,0.3951,0.3951,0.3951,0.3951,0.3951,0.3951,0.3951,0.3951,0.3951,0.3951,0.3951,0.3951,0.3951,0.3951,0.3951,0.3951,0.3951,0.3951,0.3951,0.3951,0.3951,0.3951,0.3951,0.3951,0.3951,0.3951,0.3951,0.3349,0.2991,0.2991,0.2395,0.1786,0.1156,0.0524,-0.0,-0.0,-0.0538,-0.0806,-0.0134,-0.1344,-0.1882,-0.1075,-0.1747,-0.2151,-0.2017,-0.2555,-0.2824,-0.2824,-0.2824,-0.242,-0.1747,-0.0538,0.1075,0.3228,0.3094,0.3363,0.4308,0.3632,0.3632,0.4308,0.4308,0.4308,0.0,0.0,0.0,0.0,0.0,0.0,0.0,0.0,0.0,0.0,0.0,0.0,0.0,0.0,0.0,0.0,0.0,0.0,0.0,0.0,0.0,0.0,0.0,0.0,0.0,0.0,0.0,0.0,0.0,0.3684,0.3734,0.3737,0.3737,0.3737,0.3737,0.3737,0.3737,0.3737,0.3737,0.3737,0.3748,0.3753,0.3758,0.3868,0.392,0.392,0.3931,0.3935,0.3936,0.3947,0.3951,0.3951,0.3951,0.3951,0.3951,0.3951,0.3951,0.3951,0.3951,0.3951,0.3951,0.3951,0.3951,0.3951,0.3951,0.3951,0.3951,0.3951,0.3951,0.3951,0.3951,0.3951,0.3951,0.3951,0.3951,0.3951,0.3951,0.2989,0.2135,0.1888,0.0764,-0.0647,-0.1969,-0.226,-0.1877,-0.094,-0.1747,-0.2151,-0.0941,-0.1747,-0.2555,-0.2555,-0.2555,-0.3094,-0.4172,-0.4308,-0.4308,-0.4308,-0.4308,-0.3768,-0.2555,-0.2555,-0.1344,0.1344,0.1479,0.2151,0.3498,0.2286,0.2286,0.3498,0.3498,0.3498,0.0,0.0,0.0,0.0,0.0,0.0,0.0,0.0,0.0,0.0,0.0,0.0,0.0,0.0,0.0,0.0,0.0,0.0,0.0,0.0,0.0,0.0,0.0,0.0,0.0,0.0,0.0,0.0,0.36,0.3602,0.361,0.3612,0.3612,0.3612,0.3612,0.3612,0.3612,0.3612,0.3612,0.3613,0.3665,0.3691,0.3694,0.3762,0.3793,0.3797,0.385,0.3872,0.3876,0.3929,0.3951,0.3951,0.3951,0.3951,0.3951,0.3951,0.3951,0.3951,0.3951,0.3951,0.3951,0.3951,0.3951,0.3951,0.3951,0.3951,0.3951,0.3951,0.3951,0.3951,0.3951,0.3951,0.3951,0.3951,0.3951,0.3951,0.3951,0.3708,0.323,0.2136,0.0764,-0.0647,-0.1969,-0.2241,-0.2519,-0.3627,-0.3902,-0.3902,-0.3768,-0.3902,-0.4038,-0.4038,-0.4038,-0.4038,-0.4308,-0.4308,-0.4308,-0.4308,-0.4308,-0.4172,-0.4038,-0.4038,-0.3228,-0.1613,0.0403,0.1075,0.0538,-0.0403,-0.0403,0.0538,0.0538,0.0538,0.0,0.0,0.0,0.0,0.0,0.0,0.0,0.0,0.0,0.0,0.0,0.0,0.0,0.0,0.0,0.0,0.0,0.0,0.0,0.0,0.0,0.0,0.0,0.0,0.0,0.0,0.0,0.0,0.3587,0.3587,0.3587,0.3587,0.3587,0.3587,0.3587,0.3587,0.3587,0.3587,0.3587,0.3587,0.3615,0.3627,0.3628,0.3655,0.3704,0.3771,0.3798,0.3809,0.3811,0.3838,0.3869,0.3899,0.3899,0.3921,0.3951,0.3951,0.3951,0.3951,0.3951,0.3951,0.3951,0.3951,0.3951,0.3951,0.3951,0.3951,0.3951,0.3951,0.3951,0.3951,0.3951,0.3951,0.3951,0.3951,0.3951,0.3951,0.3951,0.3353,0.2136,-0.0,-0.0908,-0.1703,-0.319,-0.3333,-0.3607,-0.4168,-0.4308,-0.4308,-0.4308,-0.4308,-0.4308,-0.4308,-0.4308,-0.4308,-0.4308,-0.4308,-0.4308,-0.4308,-0.4308,-0.4308,-0.4308,-0.4308,-0.4038,-0.3363,-0.2286,-0.1479,-0.0806,-0.1479,-0.1479,-0.0806,-0.0269,-0.0,0.0,0.0,0.0,0.0,0.0,0.0,0.0,0.0,0.0,0.0,0.0,0.0,0.0,0.0,0.0,0.0,0.0,0.0,0.0,0.0,0.0,0.0,0.0,0.0,0.0,0.0,0.0,0.0,0.3542,0.3549,0.3564,0.3564,0.3571,0.3587,0.3587,0.3587,0.3587,0.3587,0.3587,0.3587,0.3587,0.3587,0.3587,0.3587,0.3636,0.3724,0.3739,0.3747,0.3748,0.3763,0.3796,0.3838,0.3854,0.3888,0.3929,0.3946,0.3951,0.3951,0.3951,0.3951,0.3951,0.3951,0.3951,0.3951,0.3951,0.3951,0.3951,0.3951,0.3951,0.3951,0.3951,0.3589,0.3471,0.383,0.359,0.3471,0.3829,0.2627,0.0765,-0.1303,-0.2239,-0.3055,-0.4164,-0.4308,-0.4308,-0.4308,-0.4308,-0.4308,-0.4308,-0.4308,-0.4308,-0.4308,-0.4308,-0.4308,-0.4308,-0.4308,-0.4308,-0.4308,-0.4308,-0.4308,-0.4308,-0.4308,-0.4308,-0.4308,-0.4308,-0.3632,-0.2151,-0.2555,-0.2555,-0.2151,-0.1479,-0.1075,0.0,0.0,0.0,0.0,0.0,0.0,0.0,0.0,0.0,0.0,0.0,0.0,0.0,0.0,0.0,0.0,0.0,0.0,0.0,0.0,0.0,0.0,0.0,0.0,0.0,0.0,0.0,0.0,0.3421,0.3444,0.3499,0.3501,0.3527,0.3585,0.3587,0.3587,0.3587,0.3587,0.3587,0.3587,0.3587,0.3587,0.3587,0.3587,0.3591,0.36,0.3658,0.3683,0.3687,0.3745,0.3771,0.3779,0.3838,0.3862,0.3872,0.3929,0.3951,0.3951,0.3951,0.3951,0.3951,0.3951,0.3951,0.3951,0.3951,0.3951,0.3951,0.3951,0.3951,0.3951,0.3951,0.2991,0.2383,0.3591,0.2991,0.2382,0.359,0.1766,-0.0129,-0.0258,-0.2373,-0.417,-0.4307,-0.4308,-0.4308,-0.4308,-0.4308,-0.4308,-0.4308,-0.4308,-0.4308,-0.4308,-0.4308,-0.4308,-0.4308,-0.4308,-0.4308,-0.4308,-0.4308,-0.4308,-0.4308,-0.4308,-0.4308,-0.4308,-0.4308,-0.4307,-0.4172,-0.4172,-0.4172,-0.4172,-0.4038,-0.4038,0.0,0.0,0.0,0.0,0.0,0.0,0.0,0.0,0.0,0.0,0.0,0.0,0.0,0.0,0.0,0.0,0.0,0.0,0.0,0.0,0.0,0.0,0.0,0.0,0.0,0.0,0.0,0.0,0.0,0.3421,0.3441,0.3443,0.3452,0.3474,0.3476,0.3492,0.3529,0.3568,0.3587,0.3587,0.359,0.3591,0.3591,0.3591,0.3591,0.3593,0.3615,0.3623,0.3621,0.3643,0.3676,0.3713,0.3734,0.3767,0.3804,0.3827,0.386,0.3892,0.3892,0.3918,0.3951,0.3951,0.3951,0.3951,0.3951,0.3951,0.3951,0.3951,0.3951,0.3711,0.2869,0.2258,0.2012,0.2504,0.2259,0.2012,0.2503,0.189,0.0891,-0.0,-0.1701,-0.3194,-0.4166,-0.4308,-0.4308,-0.4308,-0.4308,-0.4308,-0.4308,-0.4308,-0.4308,-0.4308,-0.4308,-0.4308,-0.4308,-0.4308,-0.4308,-0.4308,-0.4308,-0.4308,-0.4308,-0.4308,-0.4308,-0.4308,-0.4308,-0.4308,-0.4308,-0.4308,-0.4308,-0.4308,-0.4308,-0.4308,0.0,0.0,0.0,0.0,0.0,0.0,0.0,0.0,0.0,0.0,0.0,0.0,0.0,0.0,0.0,0.0,0.0,0.0,0.0,0.0,0.0,0.0,0.0,0.0,0.0,0.0,0.0,0.0,0.0,0.0,0.3382,0.3382,0.3391,0.3412,0.3413,0.3431,0.3467,0.3508,0.3538,0.3556,0.356,0.3574,0.3594,0.3594,0.3369,0.3031,0.3031,0.3254,0.359,0.3589,0.361,0.365,0.367,0.3703,0.3741,0.3762,0.3796,0.3833,0.3853,0.3887,0.3924,0.3944,0.3951,0.3951,0.3951,0.3591,0.3231,0.3231,0.2868,0.2257,0.1392,0.1142,0.1143,0.0638,0.0891,0.1142,0.1142,0.0892,0.0256,-0.0647,-0.1969,-0.3192,-0.4166,-0.4308,-0.4308,-0.4308,-0.4308,-0.4308,-0.4308,-0.4308,-0.4308,-0.4308,-0.4308,-0.4308,-0.4308,-0.4308,-0.4308,-0.4308,-0.4308,-0.4308,-0.4308,-0.4308,-0.4308,-0.4308,-0.4308,-0.4308,-0.4308,-0.4308,-0.4308,-0.4308,-0.4308,-0.4308,0.0,0.0,0.0,0.0,0.0,0.0,0.0,0.0,0.0,0.0,0.0,0.0,0.0,0.0,0.0,0.0,0.0,0.0,0.0,0.0,0.0,0.0,0.0,0.0,0.0,0.0,0.0,0.0,0.323,0.3256,0.3316,0.3319,0.3346,0.3405,0.3409,0.341,0.341,0.3412,0.344,0.3493,0.3493,0.3527,0.3589,0.3478,0.2917,0.1793,0.1795,0.2357,0.3369,0.3589,0.3587,0.3594,0.3537,0.356,0.3566,0.3624,0.3646,0.3656,0.3714,0.3737,0.3749,0.3808,0.3828,0.3829,0.3832,0.2868,0.189,0.189,0.0891,-0.0257,-0.0258,-0.0258,-0.0646,-0.1836,-0.1171,-0.0258,-0.0258,-0.1303,-0.2239,-0.2237,-0.333,-0.4308,-0.4308,-0.4308,-0.4308,-0.4308,-0.4308,-0.4308,-0.4308,-0.4308,-0.4308,-0.4308,-0.4308,-0.4308,-0.4308,-0.4308,-0.4308,-0.4308,-0.4308,-0.4308,-0.4308,-0.4308,-0.4308,-0.4308,-0.4308,-0.4308,-0.4308,-0.4308,-0.4308,-0.4308,-0.4308,-0.4308,0.1571,0.0,0.0,0.0,0.0,0.0,0.0,0.0,0.0,0.0,0.0,0.0,0.0,0.0,0.0,0.0,0.0,0.0,0.0,0.0,0.0,0.0,0.0,0.0,0.0,0.0,0.0,0.0,0.323,0.3238,0.3255,0.3256,0.3263,0.3281,0.3323,0.3346,0.3346,0.339,0.342,0.3436,0.3436,0.3553,0.3465,0.1752,0.1321,0.1763,0.1785,0.0448,-0.1344,0.213,0.3593,0.3481,0.1688,0.1015,0.0902,0.0113,-0.0,0.0462,0.0464,0.0826,0.1087,0.1104,0.0993,0.1004,0.0888,0.0638,0.0384,0.0384,0.0128,-0.0387,-0.1435,-0.17,-0.1702,-0.2104,-0.1968,-0.17,-0.17,-0.2779,-0.3467,-0.2374,-0.333,-0.4308,-0.4308,-0.4308,-0.4308,-0.4308,-0.4308,-0.4308,-0.4308,-0.4308,-0.4308,-0.4308,-0.4308,-0.4308,-0.4308,-0.4308,-0.4308,-0.4308,-0.4308,-0.4308,-0.4308,-0.4308,-0.4308,-0.4308,-0.4308,-0.4308,-0.4308,-0.4308,-0.4308,-0.4308,-0.4308,-0.4308,0.0,0.0,0.0,0.0,0.0,0.0,0.0,0.0,0.0,0.0,0.0,0.0,0.0,0.0,0.0,0.0,0.0,0.0,0.0,0.0,0.0,0.0,0.0,0.0,0.0,0.323,0.323,0.323,0.323,0.323,0.323,0.323,0.323,0.323,0.3264,0.3283,0.3283,0.3319,0.3349,0.3375,0.2952,0.2645,0.2452,0.1076,0.0109,-0.0437,-0.0442,-0.1669,-0.3471,-0.1679,-0.0,0.1231,-0.0224,-0.0782,-0.0894,-0.2122,-0.2022,-0.1248,-0.1713,-0.116,-0.0237,-0.024,-0.0122,-0.0,-0.0125,-0.0508,-0.103,-0.103,-0.1429,-0.2102,-0.2916,-0.3055,-0.3055,-0.3055,-0.3055,-0.3055,-0.3055,-0.3745,-0.4028,-0.3194,-0.3746,-0.4308,-0.4308,-0.4308,-0.4308,-0.4308,-0.4308,-0.4308,-0.4308,-0.4308,-0.4308,-0.4308,-0.4308,-0.4308,-0.4308,-0.4308,-0.4308,-0.4308,-0.4308,-0.4308,-0.4308,-0.4308,-0.4308,-0.4308,-0.4308,-0.4308,-0.4308,-0.4308,-0.4308,-0.4308,-0.4308,-0.4308,0.1588,0.1446,0.0,0.0,0.0,0.0,0.1069,0.1218,0.0,0.0,0.0,0.0,0.0,0.0,0.0,0.0,0.0,0.0,0.0,0.0,0.0,0.0,0.0,0.0,0.0,0.323,0.323,0.323,0.323,0.323,0.323,0.323,0.323,0.323,0.323,0.323,0.323,0.313,0.3054,0.3104,0.2068,0.1355,0.1058,0.0954,-0.0642,-0.3368,-0.3811,-0.396,-0.4018,-0.6267,-0.5256,-0.2455,-0.2454,-0.2454,-0.2567,-0.3576,-0.3239,-0.2459,-0.3407,-0.2744,-0.1263,-0.1284,-0.0831,-0.0482,-0.0484,-0.1369,-0.2442,-0.2446,-0.3286,-0.4297,-0.4297,-0.4303,-0.4308,-0.4308,-0.4308,-0.4308,-0.4308,-0.4308,-0.4308,-0.4308,-0.4308,-0.4308,-0.4308,-0.4308,-0.4308,-0.4308,-0.4308,-0.4308,-0.4308,-0.4308,-0.4308,-0.4308,-0.4308,-0.4308,-0.4308,-0.4308,-0.4308,-0.4308,-0.4308,-0.4308,-0.4308,-0.4308,-0.4308,-0.4308,-0.4308,-0.4308,-0.4308,-0.4308,-0.4308,-0.4308,-0.4308,-0.4308,0.1937,0.1779,0.1682,0.1441,0.0,0.0,0.1023,0.1178,0.0,0.0,0.0,0.0,0.0,0.0,0.0,0.0,0.0,0.0,0.0,0.0,0.0,0.0,0.0,0.0,0.323,0.323,0.323,0.323,0.323,0.323,0.323,0.323,0.323,0.323,0.323,0.323,0.323,0.232,0.192,0.1926,0.0811,0.0305,0.0204,-0.0414,-0.1044,-0.1782,-0.4794,-0.5849,-0.5492,-0.6486,-0.6649,-0.617,-0.6163,-0.6161,-0.6161,-0.6374,-0.6033,-0.5477,-0.5721,-0.5215,-0.4598,-0.4674,-0.4277,-0.3872,-0.3966,-0.377,-0.3681,-0.3726,-0.3917,-0.4234,-0.4234,-0.427,-0.4308,-0.4308,-0.4308,-0.4308,-0.4308,-0.4308,-0.4308,-0.4308,-0.4308,-0.4308,-0.4308,-0.4308,-0.4308,-0.4308,-0.4308,-0.4308,-0.4308,-0.4308,-0.4308,-0.4308,-0.4308,-0.4308,-0.4308,-0.4308,-0.4308,-0.4308,-0.4308,-0.4308,-0.4308,-0.4308,-0.4308,-0.4308,-0.4308,-0.4308,-0.4308,-0.4308,-0.4308,-0.4308,-0.4308,-0.4308,0.1879,0.1746,0.1573,0.1426,0.0,0.0,0.0,0.0,0.1219,0.0,0.0,0.0,0.0,0.0,0.0,0.0,0.0,0.0,0.0,0.0,0.0,0.0,0.0,0.0,0.3185,0.3213,0.323,0.323,0.323,0.323,0.323,0.323,0.2927,0.2422,0.2116,0.1713,0.1209,0.0705,0.0403,0.0403,-0.0403,-0.0806,-0.0806,-0.1731,-0.2364,-0.28,-0.4715,-0.5527,-0.5506,-0.5985,-0.6372,-0.6764,-0.7038,-0.7168,-0.7168,-0.7157,-0.7043,-0.6707,-0.6707,-0.641,-0.5899,-0.5606,-0.5107,-0.4604,-0.4436,-0.4163,-0.4001,-0.4063,-0.4146,-0.4217,-0.4217,-0.4262,-0.4308,-0.4308,-0.4308,-0.4308,-0.4308,-0.4308,-0.4308,-0.4308,-0.4308,-0.4308,-0.4308,-0.4308,-0.4308,-0.4308,-0.4308,-0.4308,-0.4308,-0.4308,-0.4308,-0.4308,-0.4308,-0.4308,-0.4308,-0.4308,-0.4308,-0.4308,-0.4308,-0.4308,-0.4308,-0.4308,-0.4308,-0.4308,-0.4308,-0.4308,-0.4308,-0.4308,-0.4308,-0.4308,-0.4308,-0.4308,0.0,0.0,0.0,0.0,0.0,0.1182,0.0,0.0,0.0,0.1186,0.0,0.0,0.0,0.0,0.0,0.0,0.0,0.0,0.0,0.0,0.0,0.0,0.0,0.0,0.0,0.3041,0.317,0.3094,0.3086,0.3089,0.2909,0.282,0.232,0.131,0.0906,0.0201,-0.0604,-0.0905,-0.1006,-0.1006,-0.1713,-0.2017,-0.1917,-0.2826,-0.3459,-0.4023,-0.4126,-0.4479,-0.4982,-0.5157,-0.5532,-0.6124,-0.6667,-0.6932,-0.7043,-0.693,-0.6821,-0.6821,-0.6821,-0.6485,-0.604,-0.5594,-0.4983,-0.4478,-0.3907,-0.3786,-0.3922,-0.3984,-0.408,-0.417,-0.4194,-0.4244,-0.4293,-0.4305,-0.4308,-0.4308,-0.4308,-0.4308,-0.4308,-0.4308,-0.4308,-0.4308,-0.4308,-0.4308,-0.4308,-0.4308,-0.4308,-0.4308,-0.4172,-0.4307,-0.4308,-0.4172,-0.4307,-0.4308,-0.4308,-0.4308,-0.4308,-0.4308,-0.4308,-0.4308,-0.4308,-0.4308,-0.4308,-0.4308,-0.4308,-0.4308,-0.4308,-0.4308,-0.4308,-0.4308,-0.4308,-0.4308,0.0,0.0,0.0,0.0,0.1607,0.0,0.0,0.0,0.136,0.1086,0.0,0.0,0.0,0.0,0.0,0.0,0.0,0.0,0.0,0.0,0.0,0.0,0.0,0.0,0.0,0.285,0.2866,0.2774,0.2833,0.2564,0.1767,0.1499,0.1008,0.0202,0.0101,-0.0,-0.0101,-0.151,-0.2014,-0.1512,-0.3024,-0.3429,-0.3027,-0.313,-0.3234,-0.3341,-0.3844,-0.4089,-0.4368,-0.479,-0.5199,-0.5462,-0.5556,-0.5929,-0.6374,-0.5817,-0.5594,-0.5594,-0.5594,-0.5594,-0.5483,-0.5371,-0.4983,-0.4478,-0.3907,-0.373,-0.3803,-0.3862,-0.3928,-0.4004,-0.4109,-0.4181,-0.424,-0.4294,-0.4308,-0.4308,-0.4308,-0.4308,-0.4308,-0.4308,-0.4308,-0.4308,-0.4308,-0.4308,-0.4308,-0.4308,-0.4308,-0.4172,-0.3902,-0.4172,-0.4172,-0.3902,-0.4172,-0.4308,-0.4308,-0.4308,-0.4308,-0.4308,-0.4308,-0.4308,-0.4308,-0.4308,-0.4308,-0.4308,-0.4308,-0.4308,-0.4308,-0.4308,-0.4308,-0.4308,-0.4308,-0.4308,0.0,0.0,0.0,0.0,0.0,0.0,0.1157,0.0,0.1203,0.0,0.0,0.0,0.0,0.0,0.0,0.0,0.0,0.0,0.0,0.0,0.0,0.0,0.0,0.0,0.0,0.0,0.0,0.0,0.2008,0.1479,0.0192,0.0392,-0.01,-0.1309,-0.1409,-0.1712,-0.2317,-0.3022,-0.3324,-0.3425,-0.383,-0.3831,-0.3632,-0.3632,-0.3531,-0.323,-0.343,-0.3547,-0.3678,-0.3924,-0.4288,-0.4674,-0.4368,-0.4882,-0.5706,-0.5483,-0.5371,-0.5371,-0.5371,-0.5371,-0.5371,-0.5037,-0.4501,-0.3963,-0.3739,-0.3668,-0.3722,-0.3748,-0.3849,-0.3962,-0.4011,-0.412,-0.4222,-0.4248,-0.4282,-0.4308,-0.4308,-0.4308,-0.4308,-0.4308,-0.4308,-0.4308,-0.4308,-0.4308,-0.4308,-0.4308,-0.4172,-0.3902,-0.3768,-0.3768,-0.3632,-0.3498,-0.3632,-0.3632,-0.3632,-0.3632,-0.3768,-0.4038,-0.4172,-0.4308,-0.4308,-0.4308,-0.4308,-0.4308,-0.4308,-0.4308,-0.4308,-0.4308,-0.4172,-0.4038,-0.4172,-0.4308,0.1906,0.0,0.0,0.0,0.0,0.0,0.0,0.0,0.0,0.0,0.0,0.0,0.0,0.0,0.0,0.0,0.0,0.0,0.0,0.0,0.0,0.0,0.0,0.0,0.0,0.0,0.0,0.0,0.0,0.0176,-0.0932,-0.1054,-0.1568,-0.2598,-0.2712,-0.3123,-0.3732,-0.3932,-0.4133,-0.4332,-0.4234,-0.4133,-0.4033,-0.4133,-0.3932,-0.343,-0.343,-0.3331,-0.3234,-0.3278,-0.3511,-0.3951,-0.3627,-0.4051,-0.4925,-0.4925,-0.4925,-0.4925,-0.4925,-0.4925,-0.4814,-0.4369,-0.3921,-0.3587,-0.3587,-0.3619,-0.3657,-0.3673,-0.3786,-0.3909,-0.3943,-0.4059,-0.4176,-0.4209,-0.4249,-0.4288,-0.4304,-0.4308,-0.4308,-0.4308,-0.4308,-0.4307,-0.4172,-0.4172,-0.4172,-0.4172,-0.3902,-0.3633,-0.35,-0.3363,-0.3229,-0.3095,-0.3095,-0.3228,-0.3228,-0.3228,-0.3363,-0.3632,-0.3902,-0.4038,-0.4038,-0.4038,-0.4038,-0.4038,-0.4038,-0.4038,-0.4038,-0.4038,-0.3902,-0.3632,-0.4038,-0.4172,0.0,0.0,0.0,0.1531,0.0,0.0,0.0,0.0,0.1226,0.0,0.0,0.0,0.0,0.0,0.0,0.1365,0.0,0.0,0.0,0.0,0.0,0.0,0.0,0.0,0.0,0.0,0.0,0.0,0.0,0.0,-0.1341,-0.2989,-0.366,-0.314,-0.3597,-0.3732,-0.323,-0.3732,-0.3732,-0.323,-0.4332,-0.4533,-0.4033,-0.4533,-0.4433,-0.3932,-0.3932,-0.3632,-0.323,-0.3233,-0.3268,-0.3322,-0.3326,-0.3433,-0.3699,-0.3699,-0.3699,-0.3699,-0.3699,-0.3699,-0.3699,-0.3587,-0.3587,-0.3587,-0.3587,-0.3589,-0.3602,-0.3661,-0.3725,-0.3803,-0.392,-0.3996,-0.4071,-0.4188,-0.4218,-0.4236,-0.4294,-0.4308,-0.4308,-0.4308,-0.4308,-0.4172,-0.3902,-0.3768,-0.3768,-0.3768,-0.3498,-0.3095,-0.2828,-0.2961,-0.3095,-0.2694,-0.2961,-0.3228,-0.3228,-0.3228,-0.3228,-0.3228,-0.3228,-0.3228,-0.3228,-0.3228,-0.3228,-0.3228,-0.3228,-0.3228,-0.3228,-0.3228,-0.3228,-0.3228,-0.3902,-0.3902,0.0,0.0,0.2,0.1987,0.0,0.0,0.0,0.0,0.0,0.0,0.0,0.0,0.0,0.0,0.1593,0.1401,0.0978,0.0,0.0,0.0,0.0,0.0,0.0,0.0,0.0,0.0,0.0,0.0,-0.1533,0.0,0.0,-0.3333,-0.3654,-0.411,-0.3696,-0.3531,-0.3732,-0.3531,-0.3531,-0.3732,-0.4133,-0.4133,-0.4033,-0.4533,-0.4535,-0.4033,-0.4033,-0.3932,-0.3732,-0.3331,-0.3243,-0.3266,-0.3305,-0.3383,-0.3476,-0.3514,-0.3578,-0.3642,-0.3601,-0.3587,-0.3587,-0.3587,-0.3587,-0.3587,-0.3587,-0.3587,-0.3591,-0.3613,-0.3662,-0.3728,-0.3809,-0.3905,-0.3999,-0.4078,-0.4127,-0.4173,-0.4234,-0.4247,-0.4259,-0.43,-0.4172,-0.3902,-0.3768,-0.3366,-0.3097,-0.3363,-0.3096,-0.2828,-0.2694,-0.2558,-0.2558,-0.2424,-0.2424,-0.2558,-0.2558,-0.2693,-0.2828,-0.2828,-0.3095,-0.3228,-0.3228,-0.3228,-0.3228,-0.3228,-0.3228,-0.3228,-0.3228,-0.3228,-0.3095,-0.2828,-0.3365,-0.3498,0.1555,0.1689,0.0,0.1933,0.2002,0.0,0.1435,0.0,0.0,0.0,0.0,0.0,0.0,0.0,0.0,0.0833,0.0465,0.0,0.0,0.0,0.0,0.0,0.0,0.0,0.0,0.0,-0.1794,-0.2244,0.0,0.0,0.0,0.0,-0.3561,-0.4068,-0.3657,-0.3507,-0.3731,-0.3331,-0.3331,-0.3732,-0.3932,-0.4033,-0.4033,-0.4533,-0.4634,-0.4332,-0.4332,-0.4133,-0.3932,-0.3632,-0.3331,-0.3234,-0.3274,-0.3339,-0.3422,-0.35,-0.3593,-0.367,-0.3608,-0.3587,-0.3587,-0.3587,-0.3587,-0.3587,-0.3587,-0.3587,-0.3587,-0.3587,-0.3631,-0.3687,-0.3726,-0.3827,-0.3933,-0.3991,-0.405,-0.411,-0.417,-0.4202,-0.4229,-0.4267,-0.4024,-0.3768,-0.3632,-0.3097,-0.2828,-0.2961,-0.2693,-0.2559,-0.2559,-0.2289,-0.2155,-0.2155,-0.2155,-0.2155,-0.2155,-0.2424,-0.2559,-0.2559,-0.2692,-0.2826,-0.2826,-0.2826,-0.2826,-0.2826,-0.2826,-0.2826,-0.2826,-0.2826,-0.2692,-0.2559,-0.2692,-0.2826]},{"header":{"parameterUnit":"m.s-1","parameterCategory":1,"la1":30.6,"la2":29.2853,"lo1":-89.7004,"lo2":-87.6739,"dy":0.0162,"dx":0.0183,"nx":112,"ny":82,"refTime":"2024-06-23T12:00:00:Z","depth":0,"parameterNumber":3,"parameterNumberName":"V-component_of_WINDS"},"data":[0.0,0.0,0.0,0.0,0.0,0.0,0.0,0.0,0.0,0.0,0.0,0.0,0.0,0.0,0.0,0.0,0.0,0.0,0.0,0.0,0.0,0.0,0.0,0.0,0.0,0.0,0.0,0.0,0.0,0.0,0.0,0.0,0.0,0.0,0.0,0.0,0.0,0.0,0.0,0.0,0.0,0.0,0.0,0.0,0.0,0.0,0.0,0.0,0.0,0.0,0.0,0.0,0.0,0.0,0.0,0.0,0.0,0.0,0.0,0.0,0.0,0.0,0.0,0.0,0.0,0.0,0.0,0.0,0.0,0.0,0.0,0.0,0.0,0.0,0.0,0.0,0.0,0.0,0.0,0.0,0.0,0.0,0.0,0.0,0.0,0.0,0.0,0.0,0.0,0.0,0.0,-3.357,-3.6805,-3.8642,-3.8502,-3.703,-3.4583,-3.1013,0.0,0.0,0.0,0.0,0.0,0.0,0.0,0.0,0.0,0.0,0.0,0.0,0.0,0.0,0.0,0.0,0.0,0.0,0.0,0.0,0.0,0.0,0.0,0.0,0.0,0.0,0.0,0.0,0.0,0.0,0.0,0.0,0.0,0.0,0.0,0.0,0.0,0.0,0.0,0.0,0.0,0.0,0.0,0.0,0.0,0.0,0.0,0.0,0.0,0.0,0.0,0.0,0.0,0.0,0.0,0.0,0.0,0.0,0.0,0.0,0.0,0.0,0.0,0.0,0.0,0.0,0.0,0.0,0.0,0.0,0.0,0.0,0.0,0.0,0.0,0.0,0.0,0.0,0.0,0.0,0.0,0.0,0.0,0.0,0.0,0.0,0.0,0.0,0.0,0.0,0.0,0.0,0.0,0.0,0.0,0.0,0.0,0.0,0.0,0.0,0.0,0.0,0.0,0.0,-3.0355,-3.6025,-3.8402,-3.9298,-3.8564,-3.7584,-3.5226,-3.1052,0.0,0.0,0.0,0.0,0.0,0.0,0.0,0.0,0.0,0.0,0.0,0.0,0.0,0.0,0.0,0.0,0.0,0.0,0.0,0.0,0.0,0.0,0.0,0.0,0.0,0.0,0.0,0.0,0.0,0.0,0.0,0.0,0.0,0.0,0.0,0.0,0.0,0.0,0.0,0.0,0.0,0.0,0.0,0.0,0.0,0.0,0.0,0.0,0.0,0.0,0.0,0.0,0.0,0.0,0.0,0.0,0.0,0.0,0.0,0.0,0.0,0.0,0.0,0.0,0.0,0.0,0.0,0.0,0.0,0.0,0.0,0.0,0.0,0.0,0.0,0.0,0.0,0.0,0.0,0.0,0.0,0.0,0.0,0.0,0.0,0.0,0.0,0.0,0.0,0.0,0.0,0.0,0.0,0.0,0.0,0.0,0.0,0.0,0.0,0.0,0.0,0.0,0.0,-3.0388,-3.3278,-3.7467,-3.9454,-3.9961,-3.8617,-3.7701,-3.5363,-3.1072,-2.8349,0.0,0.0,0.0,0.0,0.0,0.0,0.0,0.0,0.0,0.0,0.0,0.0,0.0,0.0,0.0,0.0,0.0,0.0,0.0,0.0,0.0,0.0,0.0,0.0,0.0,0.0,0.0,0.0,0.0,0.0,0.0,0.0,0.0,0.0,0.0,0.0,0.0,0.0,0.0,0.0,0.0,0.0,0.0,0.0,0.0,0.0,0.0,0.0,0.0,0.0,0.0,0.0,0.0,0.0,0.0,0.0,0.0,0.0,0.0,0.0,0.0,0.0,0.0,0.0,0.0,0.0,0.0,0.0,0.0,0.0,0.0,0.0,0.0,0.0,0.0,0.0,0.0,0.0,0.0,0.0,0.0,0.0,0.0,0.0,0.0,0.0,0.0,0.0,0.0,0.0,0.0,0.0,0.0,0.0,0.0,0.0,0.0,0.0,0.0,0.0,0.0,0.0,-3.3789,-3.6142,-3.8558,-4.0175,-4.0487,-3.8948,-3.7623,-3.5148,-3.1052,-2.8149,0.0,0.0,0.0,0.0,0.0,0.0,0.0,0.0,0.0,0.0,0.0,0.0,0.0,0.0,0.0,0.0,0.0,0.0,0.0,0.0,0.0,0.0,0.0,0.0,0.0,0.0,0.0,0.0,0.0,0.0,0.0,0.0,0.0,0.0,0.0,0.0,0.0,0.0,0.0,0.0,0.0,0.0,0.0,0.0,0.0,0.0,0.0,0.0,0.0,0.0,0.0,0.0,0.0,0.0,0.0,0.0,0.0,0.0,0.0,0.0,0.0,0.0,0.0,0.0,0.0,0.0,0.0,0.0,0.0,0.0,0.0,0.0,0.0,0.0,0.0,0.0,0.0,0.0,0.0,0.0,0.0,0.0,0.0,0.0,0.0,0.0,0.0,0.0,0.0,0.0,0.0,0.0,0.0,0.0,0.0,0.0,0.0,0.0,0.0,0.0,0.0,0.0,-3.4491,-3.7701,-3.9513,-4.0545,-4.0721,-3.9786,-3.7428,-3.4506,-3.1013,-2.76,0.0,0.0,0.0,0.0,0.0,0.0,0.0,0.0,0.0,0.0,0.0,0.0,0.0,0.0,0.0,0.0,0.0,0.0,0.0,0.0,0.0,0.0,0.0,0.0,0.0,0.0,0.0,0.0,0.0,0.0,0.0,0.0,0.0,0.0,0.0,0.0,0.0,0.0,0.0,0.0,0.0,0.0,0.0,0.0,0.0,0.0,0.0,0.0,0.0,0.0,0.0,0.0,0.0,0.0,0.0,0.0,0.0,0.0,0.0,0.0,0.0,0.0,0.0,0.0,0.0,0.0,0.0,0.0,0.0,0.0,0.0,0.0,0.0,0.0,0.0,0.0,0.0,0.0,0.0,0.0,0.0,0.0,0.0,0.0,0.0,0.0,0.0,0.0,0.0,0.0,0.0,0.0,0.0,0.0,0.0,0.0,0.0,0.0,0.0,0.0,0.0,0.0,-3.4413,-3.7467,0.0,-4.0896,-4.076,-3.9864,-3.7896,-3.5012,-3.1052,0.0,0.0,0.0,0.0,0.0,0.0,0.0,0.0,0.0,0.0,0.0,0.0,0.0,0.0,0.0,0.0,0.0,0.0,0.0,0.0,0.0,0.0,0.0,0.0,0.0,0.0,0.0,0.0,0.0,0.0,0.0,0.0,0.0,0.0,0.0,0.0,0.0,0.0,0.0,0.0,0.0,0.0,0.0,0.0,0.0,0.0,0.0,0.0,0.0,0.0,0.0,0.0,0.0,0.0,0.0,0.0,0.0,0.0,0.0,0.0,0.0,0.0,0.0,0.0,0.0,0.0,0.0,0.0,0.0,0.0,0.0,0.0,0.0,0.0,0.0,0.0,0.0,0.0,0.0,0.0,0.0,0.0,0.0,0.0,0.0,0.0,0.0,0.0,0.0,0.0,0.0,0.0,0.0,0.0,0.0,0.0,0.0,0.0,0.0,0.0,0.0,0.0,-3.1616,-3.4803,-3.7847,0.0,-4.1105,-4.0754,-3.9876,-3.7691,-3.478,-3.1044,0.0,0.0,0.0,0.0,0.0,0.0,0.0,0.0,0.0,0.0,0.0,0.0,0.0,0.0,0.0,0.0,0.0,0.0,0.0,0.0,0.0,0.0,0.0,0.0,0.0,0.0,0.0,0.0,0.0,0.0,0.0,0.0,0.0,0.0,0.0,0.0,0.0,0.0,0.0,0.0,0.0,0.0,0.0,0.0,0.0,0.0,0.0,0.0,0.0,0.0,0.0,0.0,0.0,0.0,0.0,0.0,0.0,0.0,0.0,0.0,0.0,0.0,0.0,0.0,0.0,0.0,0.0,0.0,0.0,0.0,0.0,0.0,0.0,0.0,0.0,0.0,0.0,0.0,0.0,0.0,0.0,0.0,0.0,0.0,0.0,0.0,0.0,0.0,0.0,0.0,0.0,0.0,0.0,0.0,0.0,0.0,0.0,0.0,0.0,0.0,0.0,0.0,-3.1782,-3.5857,-3.918,-4.0937,-4.1113,-4.0742,-3.9863,-3.6601,-3.3515,0.0,0.0,0.0,0.0,0.0,0.0,0.0,0.0,0.0,0.0,0.0,0.0,0.0,0.0,0.0,0.0,0.0,0.0,0.0,0.0,0.0,0.0,0.0,0.0,0.0,0.0,0.0,0.0,0.0,0.0,0.0,0.0,0.0,0.0,0.0,0.0,0.0,0.0,0.0,0.0,0.0,0.0,0.0,0.0,0.0,0.0,0.0,0.0,0.0,0.0,0.0,0.0,0.0,0.0,0.0,0.0,0.0,0.0,0.0,0.0,0.0,0.0,0.0,0.0,0.0,0.0,0.0,0.0,0.0,0.0,0.0,0.0,0.0,0.0,0.0,0.0,0.0,0.0,0.0,0.0,0.0,0.0,0.0,0.0,0.0,0.0,0.0,0.0,0.0,0.0,0.0,0.0,0.0,0.0,0.0,0.0,0.0,0.0,0.0,0.0,0.0,0.0,0.0,-3.2596,-3.623,-3.9394,-4.1699,-4.1445,-4.0742,-3.9863,-3.7168,-3.418,-3.0995,0.0,0.0,0.0,0.0,0.0,0.0,0.0,0.0,0.0,0.0,0.0,0.0,0.0,0.0,0.0,0.0,0.0,0.0,0.0,0.0,0.0,0.0,0.0,0.0,0.0,0.0,0.0,0.0,0.0,0.0,0.0,0.0,0.0,0.0,0.0,0.0,0.0,0.0,0.0,0.0,0.0,0.0,0.0,0.0,0.0,0.0,0.0,0.0,0.0,0.0,0.0,0.0,0.0,0.0,0.0,0.0,0.0,0.0,0.0,0.0,0.0,0.0,0.0,0.0,0.0,0.0,0.0,0.0,0.0,0.0,0.0,0.0,0.0,0.0,0.0,0.0,0.0,0.0,0.0,0.0,0.0,0.0,0.0,0.0,0.0,0.0,0.0,0.0,0.0,0.0,0.0,0.0,0.0,0.0,0.0,0.0,0.0,0.0,0.0,0.0,0.0,0.0,-3.2955,-3.6392,-3.934,-4.1587,-4.139,-4.0745,-3.9869,-3.7719,-3.4968,-3.1538,0.0,0.0,0.0,0.0,0.0,0.0,0.0,0.0,0.0,0.0,0.0,0.0,0.0,0.0,0.0,0.0,0.0,0.0,0.0,0.0,0.0,0.0,0.0,0.0,0.0,0.0,0.0,0.0,0.0,0.0,0.0,0.0,0.0,0.0,0.0,0.0,0.0,0.0,0.0,0.0,0.0,0.0,0.0,0.0,0.0,0.0,0.0,0.0,0.0,0.0,0.0,0.0,0.0,0.0,0.0,0.0,0.0,0.0,0.0,0.0,0.0,0.0,0.0,0.0,0.0,0.0,0.0,0.0,0.0,0.0,0.0,0.0,0.0,0.0,0.0,0.0,0.0,0.0,0.0,0.0,0.0,0.0,0.0,0.0,0.0,0.0,0.0,0.0,0.0,0.0,0.0,0.0,0.0,0.0,0.0,0.0,0.0,0.0,0.0,0.0,0.0,0.0,-3.2971,-3.6454,-3.926,-4.0916,-4.111,-4.076,-3.9864,-3.8207,-3.5788,-3.243,0.0,0.0,0.0,0.0,0.0,0.0,0.0,0.0,0.0,0.0,0.0,0.0,0.0,0.0,0.0,0.0,0.0,0.0,0.0,0.0,0.0,0.0,0.0,0.0,0.0,0.0,0.0,0.0,0.0,0.0,0.0,0.0,0.0,0.0,0.0,0.0,0.0,0.0,0.0,0.0,0.0,0.0,0.0,0.0,0.0,0.0,0.0,0.0,0.0,0.0,0.0,0.0,0.0,0.0,0.0,0.0,0.0,0.0,0.0,0.0,-2.9032,0.0,0.0,0.0,0.0,0.0,0.0,0.0,0.0,0.0,0.0,0.0,0.0,0.0,0.0,0.0,0.0,0.0,0.0,0.0,0.0,0.0,0.0,0.0,0.0,0.0,0.0,0.0,0.0,0.0,0.0,0.0,0.0,0.0,0.0,0.0,0.0,0.0,0.0,0.0,0.0,0.0,-3.3122,-3.698,-3.9922,-4.0994,-4.111,-4.076,-3.9864,-3.8207,-3.6031,-3.3293,-2.9207,0.0,0.0,0.0,0.0,0.0,0.0,0.0,0.0,0.0,0.0,0.0,0.0,0.0,0.0,0.0,0.0,0.0,0.0,0.0,0.0,0.0,0.0,0.0,0.0,0.0,0.0,0.0,0.0,0.0,0.0,0.0,0.0,0.0,0.0,0.0,0.0,0.0,0.0,0.0,0.0,0.0,0.0,0.0,0.0,0.0,0.0,0.0,0.0,0.0,0.0,0.0,0.0,0.0,0.0,0.0,0.0,0.0,0.0,0.0,0.0,-3.1828,0.0,0.0,0.0,0.0,0.0,0.0,0.0,0.0,0.0,0.0,0.0,0.0,0.0,0.0,0.0,0.0,0.0,0.0,0.0,0.0,0.0,0.0,0.0,0.0,0.0,0.0,0.0,0.0,0.0,0.0,0.0,0.0,0.0,0.0,0.0,0.0,0.0,0.0,0.0,0.0,-3.4272,-3.8013,-4.076,-4.1598,-4.1675,-4.1344,-4.0506,-3.9221,-3.735,-3.4759,-3.1334,0.0,0.0,0.0,0.0,0.0,0.0,0.0,0.0,0.0,0.0,0.0,0.0,0.0,0.0,0.0,0.0,0.0,0.0,0.0,0.0,0.0,0.0,0.0,0.0,0.0,0.0,0.0,0.0,0.0,0.0,0.0,0.0,0.0,0.0,0.0,0.0,0.0,0.0,0.0,0.0,0.0,0.0,0.0,0.0,0.0,0.0,0.0,0.0,0.0,0.0,0.0,0.0,0.0,-3.819,-3.8419,-3.8785,-3.8989,-3.9448,-3.9953,-3.7839,-3.6811,-3.6382,-3.3992,0.0,0.0,0.0,0.0,0.0,0.0,0.0,0.0,0.0,0.0,0.0,0.0,0.0,0.0,0.0,0.0,0.0,0.0,0.0,0.0,0.0,0.0,0.0,0.0,-3.7584,-3.7759,0.0,0.0,0.0,0.0,0.0,0.0,0.0,0.0,0.0,0.0,0.0,0.0,-3.5713,-3.9162,-4.1617,-4.2435,-4.2396,-4.2026,-4.1364,-4.039,-3.8811,-3.6493,-3.394,-3.1178,0.0,0.0,0.0,0.0,0.0,0.0,0.0,0.0,0.0,0.0,0.0,0.0,0.0,0.0,0.0,0.0,0.0,0.0,0.0,0.0,0.0,0.0,0.0,0.0,0.0,0.0,0.0,0.0,0.0,0.0,0.0,0.0,-2.6518,-2.7504,0.0,0.0,0.0,0.0,0.0,0.0,0.0,0.0,0.0,0.0,0.0,0.0,0.0,-3.7187,-3.7983,-4.1042,-4.2298,-4.1752,-4.5391,-4.6378,-4.5033,-4.5813,-4.6203,-4.6293,-4.5969,0.0,-3.9148,-3.7351,0.0,0.0,0.0,0.0,0.0,0.0,0.0,0.0,0.0,0.0,0.0,0.0,0.0,0.0,0.0,0.0,0.0,0.0,0.0,0.0,0.0,0.0,-4.2377,-4.15,-4.1559,-4.1383,0.0,-3.6142,-3.2445,-3.0355,-2.8922,0.0,0.0,0.0,0.0,0.0,0.0,0.0,-3.6785,-4.0019,-4.2474,-4.3344,-4.2747,-4.226,-4.2143,-4.0701,-3.9337,-3.8227,-3.5713,-3.3746,-3.2582,-2.9537,0.0,0.0,0.0,0.0,0.0,0.0,0.0,0.0,0.0,0.0,0.0,0.0,0.0,0.0,0.0,0.0,0.0,0.0,0.0,0.0,0.0,0.0,0.0,0.0,0.0,0.0,0.0,0.0,0.0,-2.6083,-2.8544,-2.8931,-2.9835,-3.0072,0.0,0.0,0.0,0.0,0.0,0.0,0.0,0.0,0.0,-4.0102,-4.1569,-4.2705,-4.3543,-4.5534,-4.6346,-4.6021,-4.7912,-4.8392,-4.7671,-4.8061,-4.8229,-4.8222,-4.8222,-4.6956,-4.4656,-4.1958,-3.9546,-3.7386,0.0,0.0,0.0,0.0,-3.587,-3.6319,-3.7862,-3.835,0.0,-3.7266,0.0,0.0,0.0,0.0,0.0,0.0,0.0,0.0,0.0,0.0,-4.3637,-4.3741,-4.413,-4.4267,-4.341,-4.1071,-3.8188,0.0,-3.4174,-3.3108,-3.0306,0.0,0.0,0.0,0.0,-3.7428,-3.9162,-4.1948,-4.3916,-4.4286,-4.3994,-4.3351,-4.2377,-4.1637,-4.0643,-3.9318,-3.7701,-3.6181,-3.4856,-3.2421,-3.0083,0.0,0.0,0.0,0.0,0.0,0.0,0.0,0.0,0.0,0.0,0.0,0.0,0.0,0.0,0.0,0.0,0.0,0.0,0.0,0.0,0.0,0.0,0.0,0.0,0.0,0.0,0.0,0.0,-2.8756,-3.057,-3.0807,-3.2544,-3.3074,0.0,0.0,0.0,0.0,0.0,0.0,-3.8834,-4.0524,-4.2236,-4.3973,-4.6098,-4.7502,-4.8165,-4.9223,-4.9769,-4.9763,-4.9997,-5.0095,-5.0095,-5.0095,-5.0107,-5.0092,-5.0092,-4.9859,-4.9196,-4.5943,-4.3356,-4.1284,-3.9755,-3.8761,-3.8366,-3.9661,-4.0012,-4.014,-4.2247,-4.2715,-4.2253,-4.1383,0.0,-4.0076,-3.8151,0.0,0.0,0.0,0.0,-4.0155,-4.1675,-4.3163,-4.4436,-4.5085,-4.5728,-4.6027,-4.5365,-4.4728,-4.3124,0.0,-3.8675,-3.7818,-3.4613,0.0,0.0,0.0,0.0,-3.9786,-4.152,-4.3585,-4.4988,-4.5202,-4.5027,-4.4364,-4.3078,-4.2572,-4.1773,-4.0526,-3.9435,-3.8246,-3.6941,-3.5051,-3.3025,-3.0843,0.0,0.0,0.0,0.0,0.0,0.0,0.0,0.0,0.0,0.0,0.0,0.0,0.0,0.0,0.0,0.0,0.0,0.0,0.0,0.0,0.0,0.0,0.0,0.0,0.0,0.0,0.0,0.0,0.0,-3.4351,-3.6657,0.0,0.0,0.0,0.0,-3.7093,-3.9392,-4.1534,-4.3295,-4.4972,-4.6674,-4.843,-4.9406,-4.9926,-4.9965,-5.1581,-5.2411,-5.2411,-5.3249,-5.3638,-5.3638,-5.3638,-5.3638,-5.3638,-5.3638,-5.2703,-5.0969,-4.8373,-4.6742,-4.5787,-4.4869,-4.4493,-4.4468,-4.454,-4.5605,-4.6761,-4.528,-4.528,-4.5806,-4.4929,-4.3526,-4.2163,-4.2097,-4.0914,0.0,0.0,-4.2084,-4.3545,-4.4467,-4.539,-4.6079,-4.6115,-4.6176,-4.6183,-4.6144,-4.6098,-4.5259,0.0,-4.0799,-3.9669,-3.9454,0.0,-3.8519,-3.9298,-4.0292,-4.1578,-4.3247,-4.4306,-4.5222,-4.604,-4.5397,-4.4851,-4.4773,-4.3254,-4.226,-4.2182,-4.0643,-3.9708,-3.961,-3.7136,-3.5324,-3.435,-3.0268,0.0,0.0,0.0,0.0,0.0,0.0,0.0,0.0,0.0,0.0,0.0,0.0,0.0,0.0,0.0,0.0,0.0,0.0,0.0,0.0,0.0,0.0,0.0,0.0,0.0,0.0,0.0,0.0,-3.7819,-3.9763,0.0,-3.9388,-4.0586,-4.187,-4.2954,-4.4392,-4.5972,-4.7722,-4.8886,-5.003,-5.1219,-5.2095,-5.2555,-5.2555,-5.3132,-5.3444,-5.3444,-5.3755,-5.3911,-5.3911,-5.3911,-5.3911,-5.3911,-5.3911,-5.356,-5.2898,-5.199,-5.0139,-4.7839,-4.7528,-4.7405,-4.7411,-4.7411,-4.7801,-4.8241,-4.7637,-4.7618,-4.7813,-4.7515,-4.6606,-4.5651,-4.567,-4.4889,-4.4046,-4.4317,-4.4835,-4.5406,-4.5663,-4.5975,-4.6209,-4.6203,-4.6189,-4.6195,-4.6209,-4.6209,-4.5916,-4.4994,-4.3871,-4.2721,-4.1598,-4.1617,-4.152,-4.076,-4.2299,-4.376,-4.4364,-4.5202,-4.5864,-4.6176,-4.5923,-4.5514,-4.4949,-4.3819,-4.2903,-4.2338,-4.074,-3.9552,-3.8987,-3.7533,-3.6053,-3.4622,-3.2547,-3.0107,0.0,0.0,0.0,0.0,0.0,0.0,0.0,0.0,0.0,0.0,0.0,0.0,0.0,0.0,0.0,0.0,0.0,0.0,0.0,0.0,0.0,0.0,0.0,0.0,0.0,0.0,-3.9423,-4.055,-4.2963,-4.4099,-4.2939,-4.4664,-4.6323,-4.7421,-4.861,-4.9756,-5.0926,-5.1733,-5.2448,-5.3026,-5.3888,-5.4348,-5.434,-5.4632,-5.4788,-5.4788,-5.4788,-5.4788,-5.4788,-5.4788,-5.4788,-5.4788,-5.4788,-5.4613,-5.434,-5.434,-5.284,-5.0521,-5.0516,-5.0509,-5.0482,-5.0197,-5.0088,-5.001,-4.9432,-4.9042,-4.8789,-4.8802,-4.8418,-4.795,-4.795,-4.7571,-4.7133,-4.7098,-4.7103,-4.7138,-4.7089,-4.7084,-4.7084,-4.7084,-4.7089,-4.6991,-4.6708,-4.6655,-4.6591,-4.6287,-4.5754,-4.4968,-4.3799,-4.4079,-4.4104,-4.2981,-4.426,-4.5339,-4.5332,-4.5839,-4.6209,-4.6209,-4.6203,-4.5962,-4.5397,-4.4267,-4.3344,-4.2786,-4.0896,-3.9538,-3.8954,-3.7564,-3.6245,-3.5061,-3.3624,-3.1631,-2.906,0.0,0.0,0.0,0.0,0.0,0.0,0.0,0.0,0.0,0.0,0.0,0.0,0.0,0.0,0.0,0.0,0.0,0.0,0.0,0.0,0.0,0.0,0.0,-3.7494,-4.0368,-4.252,-4.2598,-4.6279,-4.8152,-4.6518,-4.8649,-5.0156,-5.0206,-5.1786,-5.2757,-5.2785,-5.352,-5.3943,-5.3981,-5.4819,-5.5272,-5.5275,-5.6132,-5.658,-5.658,-5.658,-5.658,-5.658,-5.658,-5.658,-5.658,-5.6541,-5.6054,-5.5275,-5.5256,-5.4749,-5.3989,-5.3931,-5.3911,-5.3794,-5.2941,-5.2636,-5.2402,-5.0745,-4.9639,-4.8917,-4.8878,-4.8859,-4.8839,-4.8839,-4.882,-4.88,-4.8806,-4.8806,-4.8806,-4.8806,-4.8806,-4.8806,-4.8806,-4.8796,-4.8567,-4.7728,-4.76,-4.7389,-4.6538,-4.6304,-4.6242,-4.6203,-4.6209,-4.6195,-4.6203,-4.6209,0.0,-4.6209,-4.6203,-4.6203,-4.6203,-4.6209,-4.6196,-4.6196,-4.4598,-4.3585,-4.3565,-4.1162,-3.9764,-3.9764,-3.7362,-3.602,-3.5948,-3.3483,-3.1773,-3.0886,0.0,0.0,0.0,0.0,0.0,0.0,0.0,0.0,0.0,0.0,0.0,0.0,0.0,0.0,0.0,0.0,0.0,0.0,0.0,0.0,0.0,0.0,-4.1861,-4.1866,-4.3266,-4.4963,-4.6813,-4.8084,-4.9108,-4.9892,-5.0611,-5.1552,-5.2765,-5.3292,-5.3852,-5.4476,-5.4729,-5.5131,-5.5771,-5.6569,-5.7018,-5.7009,-5.7886,-5.8314,-5.8314,-5.8314,-5.8314,-5.8314,-5.8314,-5.8314,-5.8276,-5.7633,-5.7223,-5.697,-5.6386,-5.5996,-5.5665,-5.4398,-5.3911,-5.3872,-5.3627,-5.3549,-5.3393,-5.229,-5.1764,-5.1452,-5.083,-5.0199,-4.9685,-4.9731,-4.9301,-4.8808,-4.8791,-4.8796,-4.8796,-4.8806,-4.879,-4.879,-4.879,-4.8806,-4.8738,-4.8493,-4.8469,-4.8404,-4.8164,-4.7585,-4.6942,-4.6312,-4.6195,-4.6189,-4.6195,-4.6203,0.0,-4.6201,-4.6189,-4.6203,-4.6203,-4.6203,-4.619,-4.6196,-4.4611,-4.335,-4.2766,-4.0281,-3.8868,-3.8868,-3.7576,-3.685,-3.685,-3.5529,-3.414,0.0,0.0,0.0,0.0,0.0,0.0,0.0,0.0,0.0,0.0,0.0,0.0,0.0,0.0,0.0,0.0,0.0,0.0,0.0,0.0,0.0,0.0,-4.2348,-4.5078,-4.6177,-4.6786,-4.7811,-4.9666,-5.021,-5.0981,-5.2361,-5.2791,-5.342,-5.4421,-5.5137,-5.575,-5.6264,-5.6634,-5.7056,-5.7533,-5.8,-5.8245,-5.8237,-5.8743,-5.8996,-5.8996,-5.8996,-5.8996,-5.8996,-5.8996,-5.8996,-5.8977,-5.8451,-5.8237,-5.8178,-5.734,-5.7018,0.0,0.0,0.0,0.0,0.0,-5.4234,-5.3871,-5.3351,-5.3202,-5.3104,-5.2609,-5.1843,-5.1141,-5.1177,-5.0591,-4.9884,-4.9898,-4.9883,-4.9883,-4.9883,-4.9887,-4.9891,-4.9887,-4.9883,-4.9781,-4.9421,-4.9338,-4.9235,-4.8864,-4.8382,0.0,-4.7387,-4.6699,-4.6231,-4.6206,-4.622,-4.6245,-4.6236,-4.625,-4.6245,-4.6245,-4.622,-4.6209,-4.619,-4.4929,0.0,0.0,0.0,-3.9111,-3.8046,-3.7511,0.0,0.0,0.0,0.0,0.0,0.0,0.0,0.0,-3.492,-3.4856,0.0,0.0,0.0,0.0,0.0,0.0,0.0,0.0,0.0,0.0,0.0,0.0,0.0,0.0,0.0,0.0,-4.4947,-4.7585,-4.9907,-5.0407,-5.079,-5.1472,-5.2303,-5.3186,-5.405,-5.478,-5.5307,-5.5567,-5.6968,-5.7835,-5.7947,0.0,0.0,0.0,0.0,-5.9159,-5.9161,-5.9239,-5.9298,-5.9298,-5.9298,-5.9289,-5.9289,-5.9289,-5.9289,-5.9289,-5.9191,-5.9152,-5.9083,-5.8206,-5.7883,-5.7841,-5.687,-5.6492,-5.6402,-5.5633,-5.4892,-5.4265,-5.4177,0.0,0.0,-5.4025,-5.3479,-5.2835,-5.2835,-5.2308,-5.1664,-5.1566,-5.155,-5.1527,-5.1421,-5.1406,-5.139,-5.1401,-5.1406,-5.1195,-5.0414,-5.0258,-5.0024,-4.9243,-4.9009,-4.8946,-4.8952,-4.7561,-4.6429,-4.6367,-4.6303,-4.6296,-4.6308,-4.6303,-4.6303,-4.6303,0.0,0.0,-4.6209,-4.5409,-4.4857,-4.4761,-4.2543,-4.0227,-3.7962,-3.7956,-3.8296,-3.8926,-3.9034,-4.0134,-4.2318,-4.2403,-4.2495,-4.248,-3.7782,-3.7226,0.0,0.0,0.0,0.0,0.0,0.0,0.0,0.0,0.0,0.0,0.0,0.0,0.0,0.0,0.0,-4.4078,-4.7723,-5.0491,-5.0996,-5.2278,-5.3,-5.2506,-5.3163,-5.4014,-5.4892,-5.5112,-5.5801,-5.7213,-5.7626,-5.8114,-5.8812,-5.902,-5.9092,-5.9072,-5.9762,-6.0125,-6.0125,-6.0769,-6.1105,-6.1108,0.0,0.0,-6.1101,-6.1101,-6.1101,-6.1062,-6.0341,-6.0038,-5.9977,-5.91,-5.8757,-5.8621,-5.7095,-5.6491,-5.6471,-5.6303,-5.6153,-5.5925,-5.5204,-5.497,-5.4853,-5.4156,-5.3805,-5.3668,-5.3663,-5.3546,0.0,-5.2626,-5.2455,-5.2299,-5.1585,-5.1394,-5.1394,-5.139,-5.1406,-5.1342,-5.1186,-5.1157,-5.1107,-5.0932,-5.0332,-4.9845,-4.9859,-4.8406,-4.726,-4.7255,-4.6665,-4.624,-4.6296,-4.6292,-4.6303,-4.6303,-4.6284,-4.6255,-4.6206,-4.5401,-4.4621,-4.3972,-4.2807,-4.1935,-4.1432,-4.2042,-4.2159,-4.1657,-4.2278,-4.2539,-4.2376,-4.3029,-4.3707,-4.4351,-4.2652,-4.1833,0.0,0.0,0.0,0.0,0.0,0.0,0.0,0.0,0.0,0.0,0.0,-3.8512,0.0,0.0,-4.5142,-4.7684,-4.9907,-5.1603,-5.248,-5.3728,-5.439,-5.3995,-5.4307,-5.5048,-5.6368,-5.6504,-5.7037,-5.8351,-5.8844,-5.9293,-5.9723,-6.0165,-6.0399,-6.0352,-6.0769,-6.099,-6.099,-6.1393,-6.1592,-6.1603,-6.1586,-6.1597,-6.1607,-6.1607,-6.1597,-6.1586,-6.1138,-6.096,-6.0898,-6.0059,-5.9428,-5.8913,-5.8116,-5.7531,-5.7095,-5.6667,-5.6497,-5.6439,-5.6035,-5.5904,-5.5826,-5.5396,-5.4967,-5.4596,-5.4596,-5.4304,-5.3874,-5.3455,-5.3357,-5.326,-5.2811,-5.2698,-5.2581,-5.2143,-5.204,-5.1923,-5.1494,-5.1391,-5.1405,-5.1405,-5.1054,-5.0737,-5.0706,-4.9639,-4.8655,-4.8226,-4.7791,-4.7362,-4.6952,-4.6908,-4.6748,-4.6342,-4.6279,-4.6236,-4.6206,-4.5796,-4.5192,-4.4353,-4.388,-4.347,-4.3066,-4.3446,-4.366,-4.3655,-4.4058,-4.4265,-4.4304,-4.4703,-4.5112,-4.5547,-4.5092,-4.4672,0.0,0.0,0.0,0.0,0.0,0.0,0.0,0.0,-3.7152,-3.8858,-4.0457,-4.2231,-4.4442,-4.6131,-4.8145,-5.1076,-5.1837,-5.2545,-5.3956,-5.4904,-5.5443,-5.5455,-5.545,-5.6069,-5.7655,-5.7797,-5.8233,-5.9267,-6.0009,-6.0471,-6.062,-6.1303,-6.1687,-6.1619,-6.1615,-6.1621,-6.1595,-6.16,-6.1603,-6.1603,-6.1606,-6.1597,-6.1597,-6.1597,-6.1595,-6.1612,-6.1612,-6.16,-6.1549,-6.0905,-6.0196,-5.9479,-5.9377,-5.8909,-5.8161,-5.7135,-5.6757,-5.6737,-5.6611,-5.6577,-5.6577,-5.6577,-5.6109,-5.5523,-5.5519,-5.5036,-5.445,-5.4274,-5.4235,-5.4196,-5.4011,-5.3977,-5.3801,-5.3097,-5.2927,-5.2698,-5.182,-5.165,-5.1591,-5.1435,-5.1396,-5.1386,-5.1317,-5.0758,-5.0043,-4.9184,-4.8911,-4.8547,-4.784,-4.7752,-4.744,-4.6611,-4.6489,-4.6387,-4.6231,-4.6211,-4.5919,-4.5192,-4.5153,-4.486,-4.4217,-4.4197,-4.4484,-4.513,-4.5148,-4.5494,-4.6195,-4.6198,-4.6172,-4.6183,-4.6177,-4.6182,-3.112,-3.2294,0.0,-3.7005,-3.7361,-3.8297,0.0,0.0,-4.4254,-4.5988,-4.7125,-4.8112,-4.9179,-5.0121,-5.1115,-5.2263,-5.3747,-5.4833,-5.503,-5.5798,-5.6352,-5.6355,-5.6352,-5.6737,-5.7714,-5.7792,-5.8467,-6.0052,-6.0308,-6.0709,-6.1419,-6.1607,-6.1691,-6.1693,-6.1693,-6.1648,-6.1595,-6.1595,-6.16,-6.1603,-6.16,-6.16,-6.1595,-6.16,-6.1588,-6.1595,-6.1595,-6.16,-6.1584,-6.1506,-6.1409,-6.1233,-6.0473,-6.0102,-5.9829,-5.8233,-5.7655,-5.7538,-5.6777,-5.6511,-5.6504,-5.651,-5.6459,-5.6368,-5.6371,-5.6308,-5.6056,-5.5282,-5.5074,-5.4892,-5.4105,-5.391,-5.3891,-5.3793,-5.3774,-5.354,-5.2642,-5.2517,-5.2328,-5.1556,-5.1394,-5.1375,-5.1317,-5.1218,-5.0887,-5.0082,-4.9295,-4.8761,-4.8664,-4.8644,-4.8312,-4.7454,-4.7367,-4.706,-4.6342,-4.6284,-4.6221,-4.605,-4.605,-4.6011,-4.5913,-4.5913,-4.5952,-4.605,-4.605,-4.6108,-4.6201,-4.6132,-4.6117,-4.6105,-4.6111,-4.6138,-3.6454,0.0,0.0,0.0,-4.161,-4.2968,-4.4982,-4.5949,-4.6768,-4.8002,-4.8931,-4.9761,-5.0646,-5.1491,-5.2504,0.0,-5.4714,-5.5377,-5.5896,-5.5825,-5.5747,-5.5743,-5.574,-5.6476,-5.8328,-5.8519,-5.9254,-6.0925,-6.1127,-6.1289,-6.1576,-6.166,-6.1679,-6.1648,-6.1648,-6.1654,-6.1666,-6.1628,-6.1615,-6.166,-6.1615,-6.1607,-6.1603,-6.1592,-6.16,-6.16,-6.1588,-6.1607,-6.1603,-6.1603,-6.1595,-6.1567,-6.1205,-6.1069,-6.0846,-5.9162,-5.8552,-5.8435,-5.7558,-5.7265,-5.7161,-5.6666,-5.6498,-5.6498,-5.6503,-5.6491,-5.642,-5.6062,-5.5952,-5.588,-5.551,-5.5412,-5.5289,-5.4775,-5.4651,-5.4554,-5.4183,-5.3332,-5.2675,-5.2825,-5.2045,-5.1336,-5.1296,-5.1308,-5.1183,-5.084,-5.0497,-5.0102,-4.9621,-4.9517,-4.9179,-4.834,-4.78,-4.7367,-4.7036,-4.6581,-4.6288,-4.626,-4.626,-4.6236,-4.6206,-4.6206,-4.6206,-4.6206,-4.6195,-4.6195,-4.6205,-4.6166,-4.6405,-4.6865,-4.6861,-4.7135,-3.9304,0.0,0.0,-4.2643,-4.502,-4.6748,-4.6112,-4.7313,-4.8651,-4.904,-4.9781,-5.0618,-5.1495,-5.2372,0.0,-5.496,-5.5408,-5.5771,-5.641,-5.5747,-5.5202,-5.5197,-5.5205,-5.6012,-5.81,-5.8777,-5.9677,-6.1166,-6.153,-6.1648,-6.1607,-6.1641,-6.1648,-6.1595,-6.1822,-6.1875,-6.166,-6.1868,-6.1861,-6.168,-6.1615,-6.16,-6.1603,-6.1612,-6.1592,-6.1592,-6.16,-6.1592,-6.1595,-6.1595,-6.1606,-6.1607,-6.1606,-6.1606,-6.1461,-6.0239,-5.965,-5.9318,-5.8433,-5.7966,-5.7673,-5.7037,-5.6686,-5.6549,-5.6764,-5.6842,-5.6881,-5.7115,-5.7017,-5.6842,-5.6842,-5.6666,-5.6347,-5.5708,-5.5553,-5.5553,-5.5553,-5.4558,-5.3864,-5.4488,-5.3201,-5.2032,-5.201,-5.1612,-5.13,-5.13,-5.13,-5.1094,-5.0516,-5.0178,-4.9781,-4.9223,-4.8386,-4.7858,-4.7864,-4.7313,-4.6991,-4.6982,-4.6752,-4.6611,-4.6562,-4.6353,-4.6236,-4.6236,-4.644,-4.6561,-4.6551,-4.6778,-4.7304,-4.8087,-4.8088,-4.8681,0.0,0.0,-4.265,-4.4384,-4.678,-4.8709,-4.869,-4.9976,-5.095,-5.0131,-5.0657,-5.1534,-5.2411,-5.3268,-5.4145,-5.5061,-5.5915,-5.6469,-5.6511,-5.574,-5.5202,-5.5197,-5.5197,-5.5567,0.0,-5.8048,-5.9389,-6.0366,-6.1166,-6.1607,-6.1603,-6.1607,-6.1595,-6.1595,-6.2411,-6.2461,-6.1603,-6.2444,-6.2445,-6.1588,-6.1595,-6.1603,-6.1603,-6.1607,-6.1595,-6.1595,-6.1592,-6.1586,-6.1607,-6.1607,-6.1607,-6.1607,-6.1607,-6.1607,-6.1588,-6.1529,-6.0984,-6.0146,-5.9269,-5.8412,-5.7691,-5.7672,-5.7135,-5.6647,-5.7427,-5.7652,-5.7827,-5.8685,-5.8314,-5.7652,-5.7652,-5.7076,-5.6492,-5.6472,-5.6472,-5.6472,-5.6472,-5.6422,-5.6398,-5.6418,-5.5014,-5.3825,-5.3825,-5.2426,-5.13,-5.13,-5.13,-5.1281,-5.1261,-5.0521,-5.0022,-5.0056,-4.9283,-4.8763,-4.8755,-4.8742,-4.8722,-4.8722,-4.7933,-4.7455,-4.7455,-4.6702,-4.63,-4.63,-4.7049,-4.7454,-4.7451,-4.8239,-4.904,-4.9809,-4.9826,-5.0697,0.0,0.0,-4.5437,-4.7723,-4.9817,-5.132,-5.132,-5.1749,-5.1923,-5.1045,-5.0641,-5.0521,-5.0813,-5.1593,-5.2645,-5.4106,-5.5061,-5.5848,-5.6425,-5.6258,-5.5848,-5.5275,-5.5704,0.0,0.0,0.0,0.0,-6.0227,-6.0632,-6.1042,-6.1564,-6.2157,-6.245,-6.245,-6.2745,-6.2765,-6.2465,-6.2188,-6.1888,-6.1592,-6.16,-6.1615,-6.168,-6.2224,-6.2157,-6.1631,-6.221,-6.2123,-6.1607,-6.1607,-6.1607,-6.1607,-6.1606,-6.1606,-6.1588,-6.1606,-6.1402,-6.1042,-6.0165,-5.9659,-5.9328,-5.8743,-5.8373,-5.8217,-5.847,-5.8548,-5.8626,-5.8918,-5.8373,-5.7691,-5.7691,-5.7107,-5.6503,-5.6503,-5.6503,-5.6795,-5.7925,-5.729,-5.6823,-5.7934,-5.6784,-5.5642,-5.5642,-5.4192,-5.2625,-5.1476,-5.13,-5.13,-5.13,-5.1047,-5.0872,-5.0899,-5.0153,-4.9653,-4.966,-4.9126,-4.88,-4.8791,-4.8523,-4.8367,-4.8367,-4.8107,-4.7951,-4.7952,-4.822,-4.8339,-4.8298,-4.8566,-4.9417,-5.0767,-5.0755,-5.1346,0.0,-4.6659,-4.7731,-5.0293,-5.2011,-5.2988,-5.2675,-5.2361,-5.1882,-5.1023,-4.9911,-4.9196,-4.951,-5.003,-5.1069,-5.3112,-5.4164,-5.5256,-5.6717,-5.6405,-5.6054,-5.6093,-5.6327,-5.6394,0.0,0.0,0.0,-5.9751,-6.0442,-6.1046,-6.1564,-6.2121,-6.2433,-6.243,-6.2736,-6.2756,-6.2438,-6.2188,-6.1907,-6.1592,-6.1592,-6.1627,-6.168,-6.2188,-6.2121,-6.1642,-6.2182,-6.2114,-6.1607,-6.1607,-6.1607,-6.1607,-6.1606,-6.1597,-6.1607,-6.1606,-6.1597,-6.151,-6.0964,-6.0555,-6.0204,-5.9639,-5.925,-5.9055,-5.9367,-5.9464,-5.9522,-5.9834,-5.9083,-5.8148,-5.8159,-5.7349,-5.6492,-5.6511,-5.6503,-5.6951,-5.8646,-5.8139,-5.7905,-5.96,-5.8548,-5.7379,-5.7379,-5.5976,-5.434,-5.2918,-5.243,-5.2002,-5.1378,-5.13,-5.13,-5.13,-5.084,-5.0536,-5.0536,-5.0024,-4.9685,-4.9683,-4.9391,-4.9247,-4.9267,-4.8967,-4.8792,-4.8794,-4.9101,-4.9237,-4.9163,-4.9775,-5.0769,-5.2139,-5.2426,-5.2822,-4.5911,-4.7692,-4.9645,-5.2127,-5.3357,-5.3749,-5.287,-5.1953,-5.1015,-5.0019,-4.8535,-4.7633,0.0,0.0,-4.9533,-5.2017,-5.3249,-5.4788,-5.734,-5.6366,-5.5976,0.0,0.0,0.0,0.0,0.0,0.0,-5.9069,0.0,-6.1558,-6.1595,-6.1636,-6.1664,-6.1673,-6.2472,-6.2493,-6.1681,-6.2435,-6.2426,-6.1607,-6.1607,-6.1606,-6.1603,-6.1655,-6.1645,-6.1603,-6.1655,-6.1646,-6.1607,-6.1607,-6.1607,-6.1607,-6.1607,-6.1607,-6.1607,-6.1607,-6.1607,-6.1607,-6.1607,-6.1062,-6.036,-6.036,-5.9815,-5.9289,-6.0126,-6.036,-6.0536,-6.1373,-6.0339,-5.9003,-5.9005,-5.7767,-5.6508,-5.6492,-5.6503,-5.6951,-5.8646,-5.8996,-5.9522,-6.1257,-6.0263,-5.9094,-5.9016,-5.7672,-5.6327,-5.5411,-5.4554,-5.3385,-5.1593,-5.1339,-5.13,-5.13,-5.13,-5.13,-5.13,-5.13,-5.1289,-5.1291,-5.0535,-5.0107,-5.0168,-4.9374,-4.8926,-4.8924,-4.9742,-5.0129,-5.0077,-5.1695,-5.2955,-5.3805,-5.4626,-5.499,-4.8391,-5.0772,-5.2913,-5.4209,-5.4704,-5.4645,-5.3774,-5.2381,-5.051,-4.774,-4.6834,-4.5819,-4.3491,0.0,0.0,-4.9566,-5.2083,0.0,-5.734,-5.7886,0.0,0.0,0.0,-5.9152,-5.8704,-5.9464,0.0,0.0,-6.038,-6.0906,-6.1578,-6.2211,-6.2571,-6.2561,-6.2786,-6.2796,-6.2571,-6.2133,-6.1811,-6.1595,-6.1595,-6.1603,-6.1627,-6.2266,-6.2199,-6.1642,-6.2299,-6.2192,-6.1607,-6.1607,-6.1607,-6.1607,-6.1607,-6.1607,-6.1607,-6.1607,-6.1607,-6.1607,-6.1607,-6.1451,-6.1276,-6.1276,-6.112,-6.0984,-6.1198,-6.1276,-6.1315,-6.1549,-6.035,-5.9005,-5.8996,-5.7758,-5.6492,-5.6511,-5.6503,-5.6951,-5.8646,-5.8996,-5.9522,-6.1257,-6.1237,-6.0516,-5.9211,-5.8646,-5.7866,-5.6386,-5.5976,-5.4963,-5.2586,-5.171,-5.13,-5.13,-5.13,-5.13,-5.13,-5.1296,-5.131,-5.1369,-5.1162,-5.105,-5.1066,-5.0857,-5.07,-5.0652,-5.0879,-5.0992,-5.0978,-5.201,-5.292,-5.3751,-5.4601,-5.5009,-5.0918,-5.2792,-5.4112,-5.4972,-5.4632,-5.3638,-5.2021,-5.0303,-4.8084,-4.467,-4.3661,0.0,0.0,0.0,0.0,0.0,0.0,0.0,-5.7223,-5.812,-5.886,0.0,-6.0243,0.0,-6.0146,-6.0575,-6.0867,0.0,-6.0867,-6.109,-6.1567,-6.2065,-6.2337,-6.2327,-6.2337,-6.2328,-6.2328,-6.1841,-6.1597,-6.1606,-6.1606,-6.1595,-6.1631,-6.2102,-6.2054,-6.1625,0.0,-6.2055,-6.1607,-6.1607,-6.1607,-6.1607,-6.1607,-6.1607,-6.1607,-6.1607,-6.1607,-6.1607,-6.1607,-6.1607,-6.1607,-6.1607,-6.1607,-6.1607,-6.1607,-6.1607,-6.1607,-6.1607,-6.0623,-5.9482,-5.9092,-5.8048,-5.6975,-5.6597,-5.65,-5.6851,-5.8139,-5.8431,-5.8957,-6.0692,-6.1334,-6.1295,-6.0302,-6.0146,-5.9698,-5.8373,-5.7544,-5.6539,-5.5022,-5.3444,-5.2294,-5.1904,-5.1534,-5.13,-5.13,-5.1303,-5.1336,-5.1394,-5.1371,-5.1533,-5.1914,-5.1562,-5.1698,-5.2421,-5.1689,-5.146,-5.183,-5.2272,-5.2718,-5.3164,-5.4427,-5.4796,-5.3034,-5.3989,-5.4223,-5.4866,-5.3716,-5.1729,-4.906,-4.7111,-4.4851,-4.1305,0.0,0.0,-3.8154,0.0,-4.2984,-4.5609,0.0,-5.2672,-5.7068,-5.7691,-5.8665,-6.1295,-6.0925,-6.0769,-6.1529,-6.1607,-6.1607,-6.1607,-6.1607,-6.1597,-6.1595,-6.1597,-6.1597,-6.1595,-6.1597,-6.1607,-6.1607,-6.1607,-6.1607,-6.1607,-6.1607,-6.1607,-6.1607,-6.1607,-6.1607,-6.1607,-6.1607,0.0,-6.1607,-6.1607,-6.1607,-6.1607,-6.1607,-6.1607,-6.1607,-6.1607,-6.1607,-6.1607,-6.1607,-6.1607,-6.1607,-6.1607,-6.1607,-6.1607,-6.1607,-6.1607,-6.1607,-6.1607,-6.0982,-6.0102,-5.9225,-5.8402,-5.759,-5.6718,-5.6496,-5.6722,-5.7544,-5.7895,-5.849,-6.001,-6.1003,-6.1607,-6.1607,-6.1607,-6.1334,-6.0594,-5.9131,-5.8067,-5.7895,-5.5654,-5.3775,-5.3034,-5.2275,-5.1768,-5.1651,-5.1537,-5.1499,-5.157,-5.1405,-5.166,-5.2416,-5.1823,-5.2183,-5.3704,-5.223,-5.1806,-5.2499,-5.2485,-5.2465,-5.2433,-5.4194,-5.4684,-5.3346,-5.4437,-5.4846,-5.4281,-5.282,-5.0677,-4.7404,-4.5299,0.0,0.0,0.0,-3.7161,-3.5573,-3.8587,0.0,-4.4702,0.0,0.0,0.0,0.0,-5.8665,0.0,0.0,0.0,0.0,0.0,0.0,0.0,0.0,-6.1607,-6.1597,-6.1588,-6.1588,-6.1597,-6.1588,-6.1607,-6.1607,-6.1607,-6.1607,-6.1607,-6.1607,-6.1607,-6.1607,-6.1607,-6.1607,-6.1607,-6.1607,0.0,-6.1607,-6.1607,-6.1607,-6.1607,-6.1607,-6.1607,-6.1607,-6.1607,-6.1607,-6.1607,-6.1607,-6.1607,-6.1607,-6.1607,-6.1607,-6.1607,-6.1607,-6.1607,-6.1607,-6.1607,-6.0964,-6.0097,-5.9217,-5.8387,-5.7576,-5.6712,-5.6503,-5.6749,-5.7607,-5.8877,-5.9932,-6.0243,-6.1003,-6.1607,-6.1607,-6.1607,-6.1549,-6.1393,-6.0515,-5.9596,-5.8866,-5.6547,-5.4921,-5.4768,-5.4613,-5.4231,-5.3506,-5.2786,-5.2389,-5.2464,-5.1781,-5.1452,-5.1601,-5.2106,-5.2526,-5.2817,-5.2467,-5.2364,-5.2499,-5.2446,-5.2422,-5.2438,-5.4179,-5.531,-5.2879,-5.3853,-5.4203,-5.2879,-5.093,-4.83,-4.4423,0.0,0.0,0.0,0.0,-3.4681,-3.2947,0.0,0.0,0.0,0.0,0.0,0.0,0.0,0.0,0.0,0.0,0.0,0.0,0.0,0.0,0.0,0.0,-6.1607,-6.1607,-6.1607,-6.1607,-6.1607,-6.1607,-6.1607,-6.1607,-6.1607,-6.1607,-6.1607,-6.1607,-6.1607,-6.1607,-6.1607,-6.1607,-6.1607,-6.1607,0.0,-6.1607,-6.1607,-6.1607,-6.1607,-6.1607,-6.1607,-6.1607,-6.1607,-6.1607,-6.1607,-6.1607,-6.1607,-6.1607,-6.1607,-6.1607,-6.1607,-6.1607,-6.1607,-6.1607,-6.1607,-6.1295,-6.0681,-5.9389,-5.8772,-5.8129,-5.681,-5.6503,-5.6734,-5.7572,-5.8732,-5.9756,-6.0204,-6.0642,-6.0924,-6.0924,-6.0582,-6.0297,-6.0297,-5.9552,-5.9014,-5.9045,-5.759,-5.6205,-5.5307,-5.478,-5.4359,-5.3936,-5.3514,-5.3117,-5.2723,-5.2318,-5.2085,-5.2088,-5.2012,-5.2591,-5.3936,-5.3026,-5.2984,-5.3853,-5.3369,-5.3363,-5.3844,-5.5119,-5.6211,-5.2041,-5.282,-5.2976,-5.1417,-4.9255,-4.6332,-4.1851,-3.9474,0.0,0.0,-3.2499,-3.2479,-3.131,0.0,0.0,0.0,0.0,0.0,0.0,0.0,0.0,0.0,0.0,0.0,0.0,0.0,0.0,0.0,0.0,0.0,-6.1607,-6.1607,-6.1607,-6.1607,-6.1607,-6.1607,-6.1607,-6.1607,-6.1607,-6.1607,-6.1607,-6.1607,-6.1607,-6.1607,-6.1607,-6.1607,-6.1607,0.0,0.0,-6.1607,-6.1607,-6.1607,-6.1607,-6.1607,-6.1607,-6.1607,-6.1607,-6.1607,-6.1607,-6.1607,-6.1607,-6.1607,-6.1607,-6.1607,-6.1607,-6.1607,-6.1607,-6.1607,-6.1471,-6.0973,-5.9501,-5.8962,-5.8428,-5.6868,-5.6496,-5.6725,-5.7535,-5.8373,-5.925,-6.0126,-6.0456,-6.0523,-6.0336,-5.9786,-5.9306,-5.9137,-5.837,-5.8044,-5.8734,-5.8064,-5.7016,-5.5658,-5.5048,-5.4651,-5.4462,-5.4462,-5.4195,-5.3567,-5.3347,-5.3249,-5.3236,-5.2574,-5.3164,-5.5166,-5.4021,-5.406,-5.5385,-5.4694,-5.4714,-5.5404,-5.6281,-5.7138,-5.0989,-5.1476,-5.132,-5.0365,-4.8806,-4.6176,-4.1071,0.0,0.0,0.0,-3.1525,-3.1232,-3.1856,-3.2903,0.0,0.0,0.0,0.0,0.0,0.0,0.0,0.0,0.0,0.0,0.0,0.0,0.0,0.0,0.0,0.0,-6.1607,-6.1607,-6.1607,-6.1607,-6.1607,-6.1607,-6.1607,-6.1607,-6.1607,-6.1607,-6.1607,-6.1607,-6.1607,-6.1607,-6.1607,-6.1607,-6.1607,0.0,0.0,-6.1607,-6.1607,-6.1607,-6.1607,-6.1607,-6.1607,-6.1607,-6.1607,-6.1607,-6.1607,-6.1607,-6.1607,-6.1607,-6.1607,-6.1607,-6.1607,-6.1607,-6.1607,-6.1607,-6.1023,-6.0213,-5.9326,-5.8499,-5.7693,-5.673,-5.6496,-5.6722,-5.7524,-5.8373,-5.925,-6.0126,-6.0945,-6.1227,-6.0445,-6.0239,-5.9935,-5.9215,-5.837,-5.783,-5.7908,-5.7221,-5.6641,-5.6484,-5.7049,-5.7115,-5.6327,-5.6249,-5.626,-5.6231,-5.544,-5.4972,-5.4972,-5.4896,-5.4952,-5.5194,-5.5751,-5.6132,-5.6288,-5.6205,-5.6205,-5.6308,-5.7174,-5.8045,-4.869,-4.9742,-5.019,-4.8826,-4.7189,-4.4715,-4.0078,0.0,0.0,-3.2012,-3.104,-3.0918,-3.1246,-3.2017,-3.3643,-3.6928,-3.8451,-4.1275,0.0,0.0,0.0,0.0,0.0,0.0,0.0,0.0,0.0,0.0,0.0,0.0,-6.1607,-6.1607,-6.1607,-6.1607,-6.1607,-6.1607,-6.1607,-6.1607,-6.1607,-6.1607,-6.1607,-6.1607,-6.1607,-6.1607,-6.1607,-6.1607,-6.1607,0.0,0.0,-6.1607,-6.1607,-6.1607,-6.1607,-6.1607,-6.1607,-6.1607,-6.1607,-6.1607,-6.1607,-6.1607,-6.1607,-6.1607,-6.1607,-6.1607,-6.1607,-6.1607,-6.1607,-6.1607,-6.0964,-6.0116,-5.9306,-5.8058,-5.692,-5.6588,-5.6496,-5.6862,-5.8198,-5.8763,-5.9259,-6.0125,-6.02,-5.9818,-5.8942,-5.839,-5.7966,-5.764,-5.7294,-5.7085,-5.7085,-5.6797,-5.6606,-5.6606,-5.689,-5.6943,-5.6597,-5.7002,-5.708,-5.6626,-5.6689,-5.6553,-5.605,-5.604,-5.6276,-5.6757,-5.7086,-5.75,-5.8027,-5.7496,-5.7516,-5.8027,-5.7838,-5.8222,-4.6741,-4.8164,-4.8982,-4.7793,-4.6001,-4.3468,0.0,0.0,-3.4628,-3.1445,-3.0804,-3.0801,-3.0804,-3.1301,-3.2558,-3.5123,-3.6472,-3.9002,-4.4175,0.0,0.0,0.0,0.0,0.0,0.0,0.0,0.0,0.0,0.0,0.0,0.0,-6.1607,-6.1607,-6.1607,-6.1607,-6.1607,-6.1607,-6.1607,-6.1607,-6.1607,-6.1607,-6.1607,-6.1607,-6.1607,-6.1607,-6.1607,-6.1607,0.0,0.0,-6.1607,-6.1607,-6.1607,-6.1607,-6.1607,-6.1607,-6.1607,-6.1607,-6.1607,-6.1607,-6.1607,-6.1607,-6.1607,-6.1607,-6.1607,-6.1607,-6.1607,-6.1607,-6.1607,-6.0798,-5.9704,-5.8616,-5.7414,-5.6498,-5.651,-5.6508,-5.6951,-5.8646,-5.881,-5.8975,-6.0083,-5.965,-5.8812,-5.7947,-5.7333,-5.6875,-5.6645,-5.6606,-5.6606,-5.6606,-5.6606,-5.6606,-5.6606,-5.6606,-5.6606,-5.6606,-5.7338,-5.7553,-5.6996,-5.749,-5.7548,-5.6972,-5.6948,-5.7098,-5.7415,-5.7914,-5.8363,-5.8707,-5.8359,-5.8495,-5.9082,-5.8476,-5.8358,-4.5514,-4.6858,-4.7521,-4.7501,-4.5533,-4.2728,0.0,-3.6473,-3.3897,-3.1321,-3.0801,-3.0806,-3.0798,-3.0818,-3.1679,-3.4285,-3.6118,-3.8997,0.0,0.0,0.0,0.0,0.0,0.0,0.0,0.0,0.0,0.0,0.0,0.0,0.0,-6.1607,-6.1607,-6.1607,-6.1607,-6.1607,-6.1607,-6.1607,-6.1607,-6.1607,-6.1607,-6.1607,-6.1607,-6.1607,-6.1607,0.0,0.0,0.0,0.0,-6.1607,-6.1607,-6.1607,-6.1607,-6.1607,-6.1607,-6.1607,-6.1607,-6.1607,-6.1607,-6.1607,-6.1607,-6.1607,-6.1607,-6.1607,-6.1607,-6.1607,-6.1607,-6.1607,-6.0395,-5.8702,-5.6983,-5.651,-5.6491,-5.65,-5.6503,-5.6951,-5.8646,-5.8371,-5.8309,-5.9985,-5.965,-5.8812,-5.7947,-5.7791,-5.7523,-5.6719,-5.6606,-5.6606,-5.6606,-5.6606,-5.6606,-5.6606,-5.6606,-5.6606,-5.6606,-5.7348,-5.7797,-5.7797,-5.7802,-5.7791,-5.7796,-5.7798,-5.7382,-5.6536,-5.8208,-5.8669,-5.7816,-5.8675,-5.9089,-5.9109,-5.9095,-5.8592,-4.039,-4.1578,-4.2091,-4.1501,-4.073,-3.9353,-3.6484,-3.5191,-3.388,-3.1323,-3.0797,-3.0798,-3.08,-3.0796,-3.2057,-3.5851,-3.6928,0.0,0.0,0.0,0.0,0.0,0.0,0.0,0.0,0.0,0.0,0.0,0.0,0.0,0.0,-6.1607,-6.1607,-6.1607,-6.1607,-6.1607,-6.1607,-6.1607,-6.1607,-6.1607,-6.1607,-6.1607,-6.1607,-6.1607,-6.1607,0.0,0.0,0.0,0.0,-6.1607,-6.1607,-6.1607,-6.1607,-6.1607,-6.1607,-6.1607,-6.1607,-6.1607,-6.1607,-6.1607,-6.1607,-6.1607,-6.1607,-6.1607,-6.1607,-6.1607,-6.1354,-6.0165,-5.9479,-5.8702,-5.6944,-5.651,-5.6498,-5.6488,-5.6492,-5.6803,-5.795,-5.7977,-5.7966,-5.8494,-5.839,-5.7947,-5.7124,-5.6987,-5.6894,-5.6645,-5.6606,-5.6606,-5.6606,-5.6606,-5.6606,-5.6606,-5.6606,-5.6606,-5.6606,-5.7348,-5.7797,-5.7797,-5.8358,-5.8685,-5.869,-5.8685,-5.8563,-5.8275,-5.8822,-5.8958,-5.8695,-5.8363,-5.7933,-5.7387,-5.7399,-5.7232,0.0,-3.8168,-3.8764,-3.8553,-3.8017,-3.6933,-3.4664,-3.3646,-3.2611,-3.0703,-3.0312,-3.0409,-3.0732,-3.0796,-3.19,-3.5275,-3.6645,0.0,0.0,0.0,0.0,0.0,0.0,0.0,0.0,0.0,0.0,0.0,0.0,0.0,0.0,-6.1607,-6.1607,-6.1607,-6.1607,-6.1607,-6.1607,-6.1607,-6.1607,-6.1607,-6.1607,-6.1607,-6.1607,-6.1607,-6.1607,0.0,0.0,0.0,0.0,-6.1607,-6.1607,-6.1607,-6.1607,-6.1607,-6.1607,-6.1607,-6.1607,-6.1607,-6.1607,-6.1607,-6.1607,-6.1607,-6.1607,-6.1607,-6.1607,-6.1607,-6.1315,-5.9882,-5.9284,-5.8733,-5.7354,-5.6757,-5.651,-5.6508,-5.6492,-5.6725,-5.7572,-5.7783,-5.779,-5.7798,-5.781,-5.7543,-5.6738,-5.6606,-5.6606,-5.6606,-5.6606,-5.6606,-5.6606,-5.6606,-5.6606,-5.6606,-5.6606,-5.6606,-5.6606,-5.7055,-5.7348,-5.7348,-5.7855,-5.8168,-5.8168,-5.846,-5.848,-5.8168,-5.846,-5.846,-5.8168,-5.7601,-5.7094,-5.6606,-5.6606,-5.6606,0.0,-3.5933,-3.6821,-3.7581,-3.6596,-3.5023,-3.3393,-3.1833,0.0,-2.9581,-2.9462,-2.981,-3.0804,-3.0938,-3.1562,-3.3617,-3.5873,0.0,0.0,0.0,0.0,0.0,0.0,0.0,0.0,0.0,0.0,0.0,0.0,0.0,0.0,-6.1607,-6.1607,-6.1607,-6.1607,-6.1607,-6.1607,-6.1607,-6.1607,-6.1607,-6.1607,-6.1607,-6.1607,-6.1607,-6.1607,0.0,0.0,0.0,0.0,-6.1607,-6.1607,-6.1607,-6.1607,-6.1607,-6.1607,-6.1607,-6.1607,-6.1607,-6.1607,-6.1607,-6.1607,-6.1607,-6.1607,-6.1607,-6.1607,-6.1607,-6.1422,-6.0465,-5.9615,-5.8796,-5.7938,-5.712,-5.6508,-5.6492,-5.6503,-5.6697,-5.7438,-5.765,-5.7712,-5.7707,-5.7707,-5.7465,-5.6738,-5.6606,-5.6606,-5.6606,-5.6606,-5.6606,-5.6606,-5.6606,-5.6606,-5.6606,-5.6606,-5.6606,-5.6606,-5.6606,-5.6606,-5.6606,-5.6606,-5.6606,-5.6606,-5.7328,-5.7367,-5.6606,-5.7328,-5.7348,-5.6606,-5.6606,-5.6606,-5.6606,-5.6606,-5.6606,-2.8525,0.0,-3.1201,-3.0735,-3.08,-3.0739,0.0,-2.9622,-2.9566,0.0,0.0,-3.0169,-3.2384,-3.2232,-3.3431,-3.8479,0.0,0.0,0.0,0.0,0.0,0.0,0.0,0.0,0.0,0.0,0.0,0.0,0.0,0.0,0.0,-6.1607,-6.1607,-6.1607,-6.1607,-6.1607,-6.1607,-6.1607,-6.1607,-6.1607,-6.1607,-6.1607,-6.1607,-6.1607,-6.1607,0.0,0.0,0.0,-6.1607,-6.1607,-6.1607,-6.1607,-6.1607,-6.1607,-6.1607,-6.1607,-6.1607,-6.1607,-6.1607,-6.1607,-6.1607,-6.1607,-6.1607,-6.1607,-6.1607,-6.1607,-6.1276,-5.9746,-5.9159,-5.866,-5.7182,-5.6656,-5.6508,-5.6492,-5.6503,-5.655,-5.6734,-5.6781,-5.6815,-5.6809,-5.6815,-5.6767,-5.6621,-5.6606,-5.6606,-5.6606,-5.6606,-5.6606,-5.6606,-5.6606,-5.6606,-5.6606,-5.6606,-5.6606,-5.6606,-5.6606,-5.6606,-5.6606,-5.6606,-5.6606,-5.6606,-5.6782,-5.6782,-5.6606,-5.6782,-5.6782,-5.6606,-5.6606,-5.6606,-5.6606,-5.6606,-5.6606,-2.6228,-2.7886,-2.9486,-2.9414,-2.9743,-2.9873,-2.8996,0.0,0.0,0.0,0.0,0.0,-3.2322,0.0,0.0,0.0,0.0,0.0,0.0,0.0,0.0,0.0,0.0,0.0,0.0,0.0,0.0,0.0,0.0,0.0,0.0,-6.1607,-6.1607,-6.1607,-6.1607,-6.1607,-6.1607,-6.1607,-6.1607,-6.1607,-6.1607,-6.1607,-6.1607,-6.1607,-6.1607,0.0,0.0,0.0,-6.1607,-6.1607,-6.1607,-6.1607,-6.1607,-6.1607,-6.1607,-6.1607,-6.1607,-6.1607,-6.1607,-6.1607,-6.1607,-6.1607,-6.1334,-6.1003,-6.1003,-6.0711,-6.0282,-5.9756,-5.9317,-5.8702,-5.7388,-5.6784,-5.6597,-5.6959,-5.6775,-5.6608,-5.6967,-5.7073,-5.6971,-5.6589,-5.6815,-5.6996,-5.666,-5.6606,-5.6606,-5.6606,-5.6606,-5.6606,-5.6606,-5.6606,-5.6606,-5.6606,-5.6606,-5.6606,-5.6606,-5.6606,-5.6606,-5.6606,-5.6606,-5.6606,-5.6606,-5.6606,-5.6606,-5.6606,-5.6606,-5.6606,-5.6606,-5.6606,-5.6606,-5.6606,-5.6606,-5.6606,-2.6015,-2.7969,-2.9941,-3.017,-3.0422,-3.0382,-2.9528,0.0,0.0,0.0,0.0,0.0,0.0,0.0,0.0,0.0,0.0,0.0,0.0,0.0,0.0,0.0,0.0,0.0,0.0,0.0,0.0,0.0,0.0,0.0,0.0,-6.1607,-6.1607,-6.1607,-6.1607,-6.1607,-6.1607,-6.1607,-6.1607,-6.1607,-6.1607,-6.1607,-6.1607,-6.1607,-6.1607,-6.1607,0.0,0.0,-6.1607,-6.1607,-6.1607,-6.1607,-6.1607,-6.1607,-6.1607,-6.1607,-6.1607,-6.1588,-6.1451,-6.1393,-6.1373,-6.1257,-6.0692,-6.0107,-6.0107,-5.9581,-5.9133,-5.9737,-5.9367,-5.8607,-5.773,-5.7107,-5.6853,-5.7535,-5.7282,-5.7029,-5.7574,-5.7747,-5.7537,-5.6673,-5.7102,-5.7426,-5.6875,-5.6777,-5.6777,-5.6777,-5.6894,-5.6933,-5.6797,-5.6777,-5.6777,-5.6777,-5.6665,-5.6606,-5.6606,-5.6606,-5.6606,-5.6606,-5.6606,-5.6606,-5.6606,-5.6606,-5.6606,-5.6606,-5.6606,-5.6606,-5.6606,-5.6606,-5.6665,-5.6777,-5.6777,-5.6855,-2.7503,-2.976,-3.105,-2.8276,-2.8682,-2.9567,-2.8672,0.0,0.0,0.0,0.0,0.0,0.0,0.0,0.0,0.0,0.0,0.0,0.0,0.0,0.0,0.0,0.0,0.0,0.0,0.0,0.0,0.0,0.0,0.0,0.0,-6.1607,-6.1607,-6.1607,-6.1607,-6.1607,-6.1607,-6.1607,-6.1607,-6.1607,-6.1607,-6.1607,-6.1607,-6.1607,-6.1607,-6.1607,0.0,-6.1607,-6.1607,-6.1607,-6.1607,-6.1607,-6.1607,-6.1607,-6.1607,-6.1607,-6.1607,-6.149,-6.075,-6.0497,-6.038,-5.9639,-5.9308,-5.9191,-5.9191,-5.9113,-5.886,-5.8276,-5.8003,-5.7711,-5.6892,-5.7107,-5.7555,-5.7672,-5.8159,-5.8451,-5.7827,-5.7747,-5.7537,-5.6673,-5.6614,-5.6899,-5.7504,-5.7621,-5.7621,-5.7621,-5.8234,-5.8448,-5.7718,-5.7621,-5.7621,-5.7621,-5.7007,-5.6606,-5.6606,-5.6606,-5.6606,-5.6606,-5.6606,-5.6606,-5.6606,-5.6606,-5.6606,-5.6606,-5.6606,-5.6606,-5.6606,-5.6606,-5.6953,-5.7621,-5.7621,-5.8005,-2.6679,-2.8784,-3.0482,-2.934,-3.1072,-3.282,0.0,0.0,0.0,0.0,0.0,0.0,0.0,0.0,0.0,0.0,0.0,0.0,0.0,0.0,0.0,0.0,0.0,0.0,0.0,0.0,0.0,0.0,0.0,0.0,0.0,0.0,-6.1607,-6.1607,-6.1607,-6.1607,-6.1607,-6.1607,-6.1607,-6.1607,-6.1607,-6.1607,-6.1607,-6.1607,-6.1607,-6.1607,0.0,-6.1607,-6.1607,-6.1607,-6.1607,-6.1607,-6.1607,-6.1315,-6.0847,-6.036,-6.0204,-6.0146,-5.9737,-5.96,-5.9522,-5.9133,-5.8685,-5.8295,-5.8295,-5.7983,-5.7574,-5.7165,-5.736,-5.7613,-5.7243,-5.7418,-5.7944,-5.888,-5.8685,-5.8314,-5.8392,-5.7728,-5.6983,-5.6581,-5.6875,-5.733,-5.772,-5.8188,-5.8507,-5.8507,-5.8851,-5.8962,-5.8539,-5.8507,-5.8507,-5.8507,-5.7757,-5.7255,-5.7255,-5.6855,-5.6606,-5.6606,-5.6606,-5.6606,-5.6606,-5.6606,-5.6606,-5.6606,-5.6606,-5.6606,-5.6606,-5.7046,-5.745,-5.781,-5.8273,-5.8715,-2.6195,-2.8069,-3.0077,-3.0891,0.0,-3.5126,-3.5266,0.0,0.0,0.0,0.0,0.0,0.0,0.0,0.0,0.0,0.0,0.0,0.0,0.0,0.0,0.0,0.0,0.0,0.0,0.0,0.0,0.0,0.0,0.0,0.0,0.0,-6.0984,-6.0984,-6.0984,-6.0984,-6.0984,-6.0984,-6.1081,-6.1295,-6.149,-6.149,-6.1295,-6.1295,-6.1412,-6.1588,-6.1179,-6.1101,-6.1276,-6.1081,-6.0984,-6.0984,-6.0984,-6.0575,-5.9912,-5.925,-5.8996,-5.8977,-5.8763,-5.8704,-5.8665,-5.847,-5.7964,-5.7418,-5.7418,-5.699,-5.6503,-5.6503,-5.6931,-5.7457,-5.7652,-5.7691,-5.8081,-5.962,-5.8977,-5.812,-5.8607,-5.7708,-5.6808,-5.6808,-5.7349,-5.7921,-5.8331,-5.8936,-5.9384,-5.9384,-5.9552,-5.9611,-5.9404,-5.9384,-5.9384,-5.9384,-5.8617,-5.8103,-5.8103,-5.7548,-5.7104,-5.6894,-5.6699,-5.6606,-5.6606,-5.6606,-5.6606,-5.6606,-5.6797,-5.6875,-5.6875,-5.7699,-5.8194,-5.8409,-5.9079,-5.9501,-2.7676,-2.9391,-3.0927,-3.1794,-3.2207,0.0,-3.6317,0.0,0.0,0.0,0.0,0.0,0.0,0.0,0.0,0.0,0.0,0.0,0.0,0.0,0.0,0.0,0.0,0.0,0.0,0.0,0.0,0.0,0.0,0.0,0.0,0.0,-5.9191,-5.9191,-5.9191,-5.9191,-5.9191,-5.9191,-5.9581,-6.0399,-6.1218,-6.1179,-6.038,-6.038,-6.0828,-6.151,-5.9893,-5.9639,-6.0321,-5.9522,-5.9191,-5.9191,-5.9191,-5.9152,-5.9094,-5.9016,-5.8996,-5.888,-5.8061,-5.7788,-5.7672,-5.6912,-5.6639,-5.658,-5.658,-5.6541,-5.6503,-5.6503,-5.6541,-5.6756,-5.7516,-5.7691,-5.7944,-5.886,-5.8996,-5.8704,-5.7944,-5.7747,-5.7705,-5.7705,-5.7758,-5.8292,-5.9857,-6.0161,-6.02,-6.02,-6.0904,-6.1129,-6.0317,-6.02,-6.02,-6.02,-5.9501,-5.9001,-5.9001,-5.8942,-5.8559,-5.7757,-5.7007,-5.6606,-5.6606,-5.6606,-5.6606,-5.6606,-5.7333,-5.7718,-5.7718,-5.8578,-5.9384,-6.0122,-6.018,-6.0659,-2.6505,-2.8691,0.0,-3.1887,0.0,0.0,0.0,0.0,0.0,0.0,0.0,0.0,0.0,0.0,0.0,0.0,0.0,0.0,0.0,0.0,0.0,0.0,0.0,0.0,0.0,0.0,0.0,0.0,0.0,0.0,0.0,0.0,-5.8996,-5.8996,-5.8996,-5.8996,-5.8996,-5.8996,-5.888,-5.8685,-5.9561,-5.9815,-5.9484,-5.9484,-5.9659,-5.9951,-5.9289,-5.9191,-5.9464,-5.9133,-5.8996,-5.8957,-5.8392,-5.8178,-5.812,-5.7633,-5.7438,-5.7399,-5.7068,-5.6951,-5.6892,-5.66,-5.6503,-5.6503,-5.6503,-5.6503,-5.6503,-5.6503,-5.6503,-5.6678,-5.7496,-5.7691,-5.7925,-5.8782,-5.8587,-5.81,-5.7769,-5.7329,-5.7143,-5.765,-5.8176,-5.8925,-6.0105,-6.0748,-6.111,-6.111,-6.1402,-6.1471,-6.1149,-6.111,-6.111,-6.111,-6.0356,-5.9638,-5.9144,-5.9105,-5.8962,-5.8623,-5.781,-5.7124,-5.6626,-5.6606,-5.6836,-5.7333,-5.766,-5.8064,-5.8617,-5.9443,-5.9993,-6.0317,-6.0865,-6.1285,-2.6115,-2.8225,-3.0682,0.0,0.0,0.0,0.0,0.0,0.0,0.0,0.0,0.0,0.0,0.0,0.0,0.0,0.0,0.0,0.0,0.0,0.0,0.0,0.0,0.0,0.0,0.0,0.0,0.0,0.0,0.0,0.0,-5.8217,-5.8217,-5.8217,-5.8217,-5.8217,-5.8217,-5.8217,-5.7905,-5.7321,-5.7925,-5.8334,-5.8587,-5.8587,-5.8743,-5.8977,-5.8431,-5.8353,-5.8568,-5.8314,-5.8217,-5.8139,-5.7555,-5.7321,-5.7243,-5.6697,-5.6503,-5.6503,-5.6503,-5.6503,-5.6503,-5.6503,-5.6503,-5.6503,-5.6503,-5.6503,-5.6503,-5.6503,-5.6503,-5.6619,-5.7184,-5.7321,-5.7535,-5.8392,-5.7944,-5.7321,-5.7321,-5.6892,-5.6736,-5.7535,-5.8392,-5.9269,-6.0146,-6.1023,-6.1607,-6.1607,-6.1607,-6.1607,-6.1607,-6.1607,-6.1607,-6.1607,-6.106,-6.05,-5.995,-5.9884,-5.9779,-5.949,-5.8928,-5.8227,-5.7411,-5.7392,-5.764,-5.8194,-5.8461,-5.8884,-5.9482,-6.0317,-6.0718,-6.0718,-6.1324,-6.1607,-2.6993,-2.8286,0.0,0.0,0.0,0.0,0.0,0.0,0.0,0.0,0.0,0.0,0.0,0.0,0.0,0.0,0.0,0.0,0.0,0.0,0.0,0.0,0.0,0.0,0.0,0.0,0.0,0.0,0.0,0.0,0.0,-5.6503,-5.6503,-5.6503,-5.6503,-5.6503,-5.6503,-5.6503,-5.6503,-5.6503,-5.6503,-5.6912,-5.7691,-5.7691,-5.8159,-5.888,-5.7223,-5.6951,-5.7633,-5.6834,-5.6503,-5.6503,-5.6503,-5.6503,-5.6503,-5.6503,-5.6503,-5.6503,-5.6503,-5.6503,-5.6503,-5.6503,-5.6503,-5.6503,-5.6503,-5.6503,-5.6503,-5.6503,-5.6503,-5.6503,-5.6503,-5.6503,-5.6697,-5.7496,-5.7068,-5.6503,-5.6503,-5.6503,-5.6736,-5.7535,-5.8392,-5.9269,-6.0146,-6.1023,-6.1607,-6.1607,-6.1607,-6.1607,-6.1607,-6.1607,-6.1607,-6.1607,-6.1607,-6.1607,-6.1607,-6.1588,-6.1218,-6.037,-6.0312,-5.9949,-5.9137,-5.9098,-5.9098,-5.9118,-5.9896,-6.0297,-6.0317,-6.1168,-6.1607,-6.1607,-6.1607,-6.1607,-2.6993,-2.9125,0.0,0.0,0.0,0.0,0.0,0.0,0.0,0.0,0.0,0.0,0.0,0.0,0.0,0.0,0.0,0.0,0.0,0.0,0.0,0.0,0.0,0.0,0.0,0.0,0.0,0.0,0.0,0.0,0.0,-5.6503,-5.6503,-5.6503,-5.6503,-5.6503,-5.6503,-5.6503,-5.6503,-5.6503,-5.6503,-5.6619,-5.6853,-5.6853,-5.699,-5.7204,-5.6717,-5.6639,-5.6834,-5.66,-5.6503,-5.6503,-5.6503,-5.6503,-5.6503,-5.6503,-5.6503,-5.6503,-5.6503,-5.6503,-5.6503,-5.6503,-5.6503,-5.6503,-5.6503,-5.6503,-5.6503,-5.6503,-5.6503,-5.6503,-5.6503,-5.6503,-5.6561,-5.6795,-5.6658,-5.6503,-5.6503,-5.6503,-5.6736,-5.7535,-5.8392,-5.9269,-6.0146,-6.1023,-6.1607,-6.1607,-6.1607,-6.1607,-6.1607,-6.16,-6.1595,-6.1597,-6.1607,-6.1607,-6.1607,-6.1599,-6.1484,-6.1236,-6.1218,-6.0593,-5.9162,-5.9092,-5.9365,-5.9935,-6.018,-6.0601,-6.1227,-6.1471,-6.1607,-6.1607,-6.1607,-6.1607,-2.822,0.0,0.0,0.0,0.0,0.0,0.0,0.0,0.0,0.0,0.0,0.0,0.0,0.0,0.0,0.0,0.0,0.0,0.0,0.0,0.0,0.0,0.0,0.0,0.0,0.0,0.0,0.0,0.0,0.0,0.0,-5.6503,-5.6503,-5.6503,-5.6503,-5.6503,-5.6503,-5.6503,-5.6503,-5.6503,-5.6503,-5.6503,-5.6503,-5.6503,-5.6503,-5.6503,-5.6503,-5.6503,-5.6503,-5.6503,-5.6503,-5.6503,-5.6503,-5.6503,-5.6503,-5.6503,-5.6503,-5.6503,-5.6503,-5.6503,-5.6503,-5.6503,-5.6503,-5.6503,-5.6503,-5.6503,-5.6503,-5.6503,-5.6503,-5.6503,-5.6503,-5.6503,-5.6503,-5.6503,-5.6503,-5.6503,-5.6503,-5.6503,-5.6639,-5.7126,-5.7905,-5.8761,-5.963,-6.0504,-6.1188,-6.1561,-6.16,-6.1612,-6.1597,-6.1602,-6.1607,-6.1607,-6.1595,-6.1602,-6.1602,-6.16,-6.16,-6.1598,-6.16,-6.1149,-6.0138,-6.0086,-6.0317,-6.0807,-6.0826,-6.108,-6.1607,-6.1607,-6.1607,-6.1607,-6.1607,-6.1607,0.0,0.0,0.0,0.0,0.0,0.0,0.0,0.0,0.0,0.0,0.0,0.0,0.0,0.0,0.0,0.0,0.0,0.0,0.0,0.0,0.0,0.0,0.0,0.0,0.0,0.0,0.0,0.0,0.0,0.0,0.0,-5.6249,-5.6249,-5.6249,-5.6249,-5.6249,-5.6249,-5.6249,-5.6249,-5.6249,-5.6249,-5.6288,-5.6386,-5.6464,-5.6503,-5.6503,-5.6503,-5.6503,-5.6503,-5.6503,-5.6503,-5.6503,-5.6503,-5.6503,-5.6503,-5.6503,-5.6503,-5.6503,-5.6503,-5.6503,-5.6503,-5.6503,-5.6503,-5.6503,-5.6503,-5.6503,-5.6503,-5.6503,-5.6503,-5.6503,-5.6503,-5.6503,-5.6503,-5.6503,-5.6503,-5.6503,-5.6503,-5.6503,-5.6503,-5.6503,-5.7145,-5.795,-5.8738,-5.9657,-6.0598,-6.1466,-6.1607,-6.1593,-6.1603,-6.1601,-6.1592,-6.1607,-6.1603,-6.1592,-6.1609,-6.16,-6.1609,-6.1595,-6.1593,-6.1598,-6.1592,-6.1602,-6.1597,-6.1607,-6.1607,-6.1607,-6.1607,-6.1607,-6.1607,-6.1607,-6.1607,-6.1607,0.0,0.0,0.0,0.0,0.0,0.0,0.0,0.0,0.0,0.0,0.0,0.0,0.0,0.0,0.0,0.0,0.0,0.0,0.0,0.0,0.0,0.0,0.0,0.0,0.0,0.0,0.0,0.0,0.0,0.0,-5.4457,-5.4457,-5.4457,-5.4457,-5.4457,-5.4457,-5.4457,-5.4457,-5.4457,0.0,-5.4457,-5.4827,-5.5509,-5.6191,-5.6503,-5.6503,-5.6503,-5.6503,-5.6503,-5.6503,-5.6503,-5.6503,-5.6503,-5.6503,-5.6503,-5.6503,-5.6503,-5.6503,-5.6503,-5.6503,-5.6503,-5.6503,-5.6503,-5.6503,-5.6503,-5.6503,-5.6503,-5.6503,-5.6503,-5.6503,-5.6503,-5.6503,-5.6503,-5.6503,-5.6503,-5.6503,-5.6503,-5.6503,-5.6503,-5.6503,-5.7145,-5.7758,-5.795,-5.9281,-6.0607,-6.1461,-6.1599,-6.1599,-6.1594,-6.16,-6.1596,-6.16,-6.1598,-6.1594,-6.1601,-6.1599,-6.1606,-6.1607,-6.16,-6.1609,-6.1596,-6.1603,-6.1595,-6.1607,-6.1607,-6.1607,-6.1607,-6.1607,-6.1607,-6.1607,-6.1607,-6.1607,0.0,0.0,0.0,0.0,0.0,0.0,0.0,0.0,0.0,0.0,0.0,0.0,0.0,0.0,0.0,0.0,0.0,0.0,0.0,0.0,0.0,0.0,0.0,0.0,0.0,0.0,0.0,0.0,0.0,-5.3463,-5.3892,-5.3911,-5.3911,-5.3911,-5.3911,-5.3911,-5.3911,-5.3911,-5.3911,-5.3911,-5.3911,-5.4145,-5.4613,-5.5899,-5.6503,-5.6503,-5.6503,-5.6503,-5.6503,-5.6503,-5.6503,-5.6503,-5.6503,-5.6503,-5.6503,-5.6503,-5.6503,-5.6503,-5.6503,-5.6503,-5.6503,-5.6503,-5.6503,-5.6503,-5.6503,-5.6503,-5.6503,-5.6503,-5.6503,-5.6503,-5.6503,-5.6503,-5.6503,-5.6503,-5.6503,-5.6503,-5.6503,-5.6796,-5.707,-5.707,-5.7743,-5.8449,-5.8875,-6.0037,-6.1074,-6.1523,-6.1599,-6.1596,-6.1601,-6.1606,-6.1592,-6.1592,-6.1596,-6.1603,-6.1607,-6.1607,-6.1595,-6.1595,-6.1595,-6.1593,-6.1596,-6.1599,-6.1592,-6.1595,-6.1602,-6.1607,-6.1607,-6.1592,-6.1592,-6.1607,-6.1607,-6.1607,0.0,0.0,0.0,0.0,0.0,0.0,0.0,0.0,0.0,0.0,0.0,0.0,0.0,0.0,0.0,0.0,0.0,0.0,0.0,0.0,0.0,0.0,0.0,0.0,0.0,0.0,0.0,0.0,0.0,-5.2684,-5.3405,-5.3444,-5.3444,-5.3444,-5.3444,-5.3444,-5.3444,-5.3444,-5.3444,-5.3444,-5.3599,-5.3677,-5.3736,-5.5314,-5.6054,-5.6054,-5.621,-5.6269,-5.6288,-5.6444,-5.6503,-5.6503,-5.6503,-5.6503,-5.6503,-5.6503,-5.6503,-5.6503,-5.6503,-5.6503,-5.6503,-5.6503,-5.6503,-5.6503,-5.6503,-5.6503,-5.6503,-5.6503,-5.6503,-5.6503,-5.6503,-5.6503,-5.6503,-5.6503,-5.6503,-5.6503,-5.6503,-5.7031,-5.7538,-5.7664,-5.8393,-5.9274,-6.0143,-6.0895,-6.1436,-6.1575,-6.1596,-6.1603,-6.1594,-6.1596,-6.1607,-6.1607,-6.1607,-6.1602,-6.1597,-6.1607,-6.1607,-6.1607,-6.1607,-6.1603,-6.1607,-6.1607,-6.1606,-6.1606,-6.1603,-6.1603,-6.16,-6.1598,-6.1598,-6.16,-6.16,-6.16,0.0,0.0,0.0,0.0,0.0,0.0,0.0,0.0,0.0,0.0,0.0,0.0,0.0,0.0,0.0,0.0,0.0,0.0,0.0,0.0,0.0,0.0,0.0,0.0,0.0,0.0,0.0,0.0,-5.1476,-5.1515,-5.1632,-5.1651,-5.1651,-5.1651,-5.1651,-5.1651,-5.1651,-5.1651,-5.1651,-5.1671,-5.2411,-5.2781,-5.282,-5.3794,-5.4242,-5.4301,-5.5061,-5.5372,-5.5431,-5.6191,-5.6503,-5.6503,-5.6503,-5.6503,-5.6503,-5.6503,-5.6503,-5.6503,-5.6503,-5.6503,-5.6503,-5.6503,-5.6503,-5.6503,-5.6503,-5.6503,-5.6503,-5.6503,-5.6503,-5.6503,-5.6503,-5.6503,-5.6503,-5.6503,-5.6503,-5.6503,-5.6503,-5.6578,-5.6881,-5.7558,-5.8393,-5.9274,-6.0143,-6.0408,-6.0729,-6.1495,-6.1595,-6.1595,-6.1603,-6.1595,-6.1606,-6.1606,-6.1606,-6.1606,-6.1607,-6.1607,-6.1607,-6.1607,-6.1607,-6.1597,-6.1606,-6.1606,-6.1595,-6.16,-6.16,-6.1592,-6.1599,-6.16,-6.16,-6.1599,-6.1599,-6.1599,0.0,0.0,0.0,0.0,0.0,0.0,0.0,0.0,0.0,0.0,0.0,0.0,0.0,0.0,0.0,0.0,0.0,0.0,0.0,0.0,0.0,0.0,0.0,0.0,0.0,0.0,0.0,0.0,-5.13,-5.13,-5.13,-5.13,-5.13,-5.13,-5.13,-5.13,-5.13,-5.13,-5.13,-5.13,-5.169,-5.1865,-5.1885,-5.2275,-5.2976,-5.3931,-5.432,-5.4476,-5.4496,-5.4885,-5.5333,-5.5762,-5.5762,-5.6074,-5.6503,-5.6503,-5.6503,-5.6503,-5.6503,-5.6503,-5.6503,-5.6503,-5.6503,-5.6503,-5.6503,-5.6503,-5.6503,-5.6503,-5.6503,-5.6503,-5.6503,-5.6503,-5.6503,-5.6503,-5.6503,-5.6503,-5.6503,-5.6854,-5.7577,-5.8906,-5.9466,-6.0015,-6.0873,-6.1042,-6.1163,-6.1539,-6.1607,-6.1607,-6.1607,-6.1607,-6.1607,-6.1607,-6.1607,-6.1607,-6.1607,-6.1607,-6.1607,-6.1607,-6.1607,-6.1607,-6.1607,-6.1607,-6.1606,-6.1607,-6.1598,-6.1603,-6.1596,-6.1603,-6.1603,-6.1596,-6.1601,-6.1601,0.0,0.0,0.0,0.0,0.0,0.0,0.0,0.0,0.0,0.0,0.0,0.0,0.0,0.0,0.0,0.0,0.0,0.0,0.0,0.0,0.0,0.0,0.0,0.0,0.0,0.0,0.0,0.0,-5.0657,-5.0755,-5.0969,-5.0969,-5.1067,-5.13,-5.13,-5.13,-5.13,-5.13,-5.13,-5.13,-5.13,-5.13,-5.13,-5.13,-5.2002,-5.3249,-5.3463,-5.358,-5.3599,-5.3814,-5.4281,-5.4885,-5.5119,-5.5606,-5.6191,-5.6425,-5.6503,-5.6503,-5.6503,-5.6503,-5.6503,-5.6503,-5.6503,-5.6503,-5.6503,-5.6503,-5.6503,-5.6503,-5.6503,-5.6503,-5.6503,-5.6644,-5.6749,-5.655,-5.6664,-5.6749,-5.653,-5.7303,-5.8413,-5.9712,-6.0329,-6.0841,-6.148,-6.1607,-6.1607,-6.1607,-6.1607,-6.1607,-6.1607,-6.1607,-6.1607,-6.1607,-6.1607,-6.1607,-6.1607,-6.1607,-6.1607,-6.1607,-6.1607,-6.1607,-6.1607,-6.1607,-6.1607,-6.1607,-6.1607,-6.1592,-6.1603,-6.1607,-6.1607,-6.1603,-6.1603,-6.1592,0.0,0.0,0.0,0.0,0.0,0.0,0.0,0.0,0.0,0.0,0.0,0.0,0.0,0.0,0.0,0.0,0.0,0.0,0.0,0.0,0.0,0.0,0.0,0.0,0.0,0.0,0.0,0.0,-4.8923,-4.9255,-5.0034,-5.0073,-5.0443,-5.1261,-5.13,-5.13,-5.13,-5.13,-5.13,-5.13,-5.13,-5.13,-5.13,-5.13,-5.1359,-5.1476,-5.2314,-5.2664,-5.2723,-5.356,-5.3931,-5.4048,-5.4885,-5.5236,-5.5372,-5.6191,-5.6503,-5.6503,-5.6503,-5.6503,-5.6503,-5.6503,-5.6503,-5.6503,-5.6503,-5.6503,-5.6503,-5.6503,-5.6503,-5.6503,-5.6503,-5.707,-5.745,-5.6683,-5.707,-5.7431,-5.6664,-5.7785,-5.8965,-5.9042,-6.0402,-6.1558,-6.1588,-6.1607,-6.1607,-6.1607,-6.1607,-6.1607,-6.1607,-6.1607,-6.1607,-6.1607,-6.1607,-6.1607,-6.1607,-6.1607,-6.1607,-6.1607,-6.1607,-6.1607,-6.1607,-6.1607,-6.1607,-6.1607,-6.1607,-6.1588,-6.1597,-6.1597,-6.1597,-6.1597,-6.1606,-6.1606,0.0,0.0,0.0,0.0,0.0,0.0,0.0,0.0,0.0,0.0,0.0,0.0,0.0,0.0,0.0,0.0,0.0,0.0,0.0,0.0,0.0,0.0,0.0,0.0,0.0,0.0,0.0,0.0,0.0,-4.8923,-4.9216,-4.9235,-4.9372,-4.9683,-4.9703,-4.9937,-5.0463,-5.1028,-5.13,-5.13,-5.1339,-5.1359,-5.1359,-5.1359,-5.1359,-5.1378,-5.169,-5.1807,-5.1787,-5.2099,-5.2567,-5.3093,-5.3405,-5.3872,-5.4398,-5.473,-5.5197,-5.5665,-5.5665,-5.6035,-5.6503,-5.6503,-5.6503,-5.6503,-5.6503,-5.6503,-5.6503,-5.6503,-5.6503,-5.6617,-5.7135,-5.7475,-5.7621,-5.7348,-5.7495,-5.7621,-5.7328,-5.7742,-5.8333,-5.8887,-5.9956,-6.0951,-6.15,-6.1607,-6.1607,-6.1607,-6.1607,-6.1607,-6.1607,-6.1607,-6.1607,-6.1607,-6.1607,-6.1607,-6.1607,-6.1607,-6.1607,-6.1607,-6.1607,-6.1607,-6.1607,-6.1607,-6.1607,-6.1607,-6.1607,-6.1607,-6.1607,-6.1607,-6.1607,-6.1607,-6.1607,-6.1607,0.0,0.0,0.0,0.0,0.0,0.0,0.0,0.0,0.0,0.0,0.0,0.0,0.0,0.0,0.0,0.0,0.0,0.0,0.0,0.0,0.0,0.0,0.0,0.0,0.0,0.0,0.0,0.0,0.0,0.0,-4.8358,-4.8358,-4.8495,-4.8787,-4.8806,-4.906,-4.9586,-5.017,-5.0599,-5.0852,-5.0911,-5.1106,-5.1398,-5.1398,-5.1394,-5.1395,-5.1395,-5.1362,-5.1339,-5.132,-5.1632,-5.2197,-5.2489,-5.2957,-5.3502,-5.3794,-5.4281,-5.4807,-5.51,-5.5587,-5.6113,-5.6405,-5.6503,-5.6503,-5.6503,-5.6683,-5.69,-5.69,-5.7115,-5.7456,-5.7991,-5.8133,-5.8211,-5.8492,-5.8352,-5.8133,-5.8133,-5.8372,-5.8749,-5.9313,-6.0143,-6.0912,-6.15,-6.1607,-6.1607,-6.1607,-6.1607,-6.1607,-6.1607,-6.1607,-6.1607,-6.1607,-6.1607,-6.1607,-6.1607,-6.1607,-6.1607,-6.1607,-6.1607,-6.1607,-6.1607,-6.1607,-6.1607,-6.1607,-6.1607,-6.1607,-6.1607,-6.1607,-6.1607,-6.1607,-6.1607,-6.1607,0.0,0.0,0.0,0.0,0.0,0.0,0.0,0.0,0.0,0.0,0.0,0.0,0.0,0.0,0.0,0.0,0.0,0.0,0.0,0.0,0.0,0.0,0.0,0.0,0.0,0.0,0.0,0.0,-4.6196,-4.6566,-4.7423,-4.7462,-4.7852,-4.869,-4.8748,-4.8768,-4.8768,-4.8787,-4.9196,-4.9956,-4.9956,-5.0443,-5.132,-5.1347,-5.1362,-5.1355,-5.1394,-5.1411,-5.1394,-5.132,-5.13,-5.1398,-5.2224,-5.2555,-5.2653,-5.351,-5.3822,-5.3978,-5.4835,-5.5166,-5.5342,-5.6219,-5.6511,-5.653,-5.6569,-5.7115,-5.7742,-5.7742,-5.8352,-5.9003,-5.9023,-5.9042,-5.9254,-6.0109,-5.9656,-5.9042,-5.9042,-5.9712,-6.0329,-6.029,-6.1003,-6.1607,-6.1607,-6.1607,-6.1607,-6.1607,-6.1607,-6.1607,-6.1607,-6.1607,-6.1607,-6.1607,-6.1607,-6.1607,-6.1607,-6.1607,-6.1607,-6.1607,-6.1607,-6.1607,-6.1607,-6.1607,-6.1607,-6.1607,-6.1607,-6.1607,-6.1607,-6.1607,-6.1607,-6.1607,-6.1607,-6.1607,-2.3972,0.0,0.0,0.0,0.0,0.0,0.0,0.0,0.0,0.0,0.0,0.0,0.0,0.0,0.0,0.0,0.0,0.0,0.0,0.0,0.0,0.0,0.0,0.0,0.0,0.0,0.0,0.0,-4.6196,-4.6313,-4.6546,-4.6566,-4.6663,-4.6917,-4.7521,-4.7852,-4.7852,-4.8475,-4.8904,-4.9138,-4.9138,-4.9266,-4.9547,-5.0165,-5.0451,-5.0496,-5.1121,-5.1365,-5.133,-5.1362,-5.1378,-5.1386,-5.1574,-5.167,-5.1672,-5.1816,-5.2305,-5.2928,-5.3162,-5.4095,-5.5341,-5.622,-5.6886,-5.7491,-5.8118,-5.8453,-5.8631,-5.8631,-5.8808,-5.9159,-5.9787,-5.9937,-5.9995,-6.0237,-6.0124,-5.9937,-5.9937,-6.062,-6.1054,-6.0422,-6.1003,-6.1607,-6.1607,-6.1607,-6.1607,-6.1607,-6.1607,-6.1607,-6.1607,-6.1607,-6.1607,-6.1607,-6.1607,-6.1607,-6.1607,-6.1607,-6.1607,-6.1607,-6.1607,-6.1607,-6.1607,-6.1607,-6.1607,-6.1607,-6.1607,-6.1607,-6.1607,-6.1607,-6.1607,-6.1607,-6.1607,-6.1607,0.0,0.0,0.0,0.0,0.0,0.0,0.0,0.0,0.0,0.0,0.0,0.0,0.0,0.0,0.0,0.0,0.0,0.0,0.0,0.0,0.0,0.0,0.0,0.0,0.0,-4.6196,-4.6196,-4.6196,-4.6196,-4.6196,-4.6196,-4.6196,-4.6196,-4.6196,-4.6683,-4.6956,-4.6956,-4.7462,-4.7891,-4.8261,-4.8269,-4.8443,-4.8825,-4.9324,-4.9746,-5.0096,-5.0603,-5.0988,-5.125,-5.1301,-5.1308,-5.1274,-5.123,-5.1224,-5.1203,-5.1167,-5.1464,-5.1977,-5.2335,-5.3171,-5.4218,-5.5097,-5.5957,-5.6758,-5.7265,-5.8162,-5.8995,-5.8995,-5.9514,-6.0198,-6.0711,-6.0841,-6.0841,-6.0841,-6.0841,-6.0841,-6.0841,-6.1233,-6.145,-6.0951,-6.1253,-6.1607,-6.1607,-6.1607,-6.1607,-6.1607,-6.1607,-6.1607,-6.1607,-6.1607,-6.1607,-6.1607,-6.1607,-6.1607,-6.1607,-6.1607,-6.1607,-6.1607,-6.1607,-6.1607,-6.1607,-6.1607,-6.1607,-6.1607,-6.1607,-6.1607,-6.1607,-6.1607,-6.1607,-6.1607,-6.1607,-6.1607,-2.5067,-2.5467,0.0,0.0,0.0,0.0,-3.0626,-3.1011,0.0,0.0,0.0,0.0,0.0,0.0,0.0,0.0,0.0,0.0,0.0,0.0,0.0,0.0,0.0,0.0,0.0,-4.6196,-4.6196,-4.6196,-4.6196,-4.6196,-4.6196,-4.6196,-4.6196,-4.6196,-4.6196,-4.6196,-4.6196,-4.6203,-4.6599,-4.7359,-4.7357,-4.7754,-4.8504,-4.8604,-4.9058,-4.973,-4.9815,-5.0313,-5.1053,-5.1042,-5.1078,-5.1113,-5.1093,-5.1093,-5.1107,-5.1145,-5.1128,-5.1191,-5.1978,-5.235,-5.2621,-5.35,-5.4427,-5.5213,-5.5408,-5.7054,-5.8875,-5.8973,-6.0184,-6.1451,-6.1451,-6.1529,-6.1607,-6.1607,-6.1607,-6.1607,-6.1607,-6.1607,-6.1607,-6.1607,-6.1607,-6.1607,-6.1607,-6.1607,-6.1607,-6.1607,-6.1607,-6.1607,-6.1607,-6.1607,-6.1607,-6.1607,-6.1607,-6.1607,-6.1607,-6.1607,-6.1607,-6.1607,-6.1607,-6.1607,-6.1607,-6.1607,-6.1607,-6.1607,-6.1607,-6.1607,-6.1607,-6.1607,-6.1607,-6.1607,-6.1607,-6.1607,-2.7706,-2.8088,-2.8525,-2.7501,0.0,0.0,-2.7559,-2.8393,0.0,0.0,0.0,0.0,0.0,0.0,0.0,0.0,0.0,0.0,0.0,0.0,0.0,0.0,0.0,0.0,-4.6196,-4.6196,-4.6196,-4.6196,-4.6196,-4.6196,-4.6196,-4.6196,-4.6196,-4.6196,-4.6196,-4.6196,-4.6196,-4.6192,-4.6288,-4.6444,-4.6458,-4.6542,-4.6738,-4.742,-4.784,-4.8014,-4.8671,-4.9421,-5.0149,-5.0109,-5.0502,-5.1172,-5.1114,-5.1095,-5.1095,-5.099,-5.0972,-5.1035,-5.1205,-5.1789,-5.2553,-5.3429,-5.4344,-5.5372,-5.6717,-5.7513,-5.8106,-5.8808,-5.9754,-6.0555,-6.0555,-6.1062,-6.1607,-6.1607,-6.1607,-6.1607,-6.1607,-6.1607,-6.1607,-6.1607,-6.1607,-6.1607,-6.1607,-6.1607,-6.1607,-6.1607,-6.1607,-6.1607,-6.1607,-6.1607,-6.1607,-6.1607,-6.1607,-6.1607,-6.1607,-6.1607,-6.1607,-6.1607,-6.1607,-6.1607,-6.1607,-6.1607,-6.1607,-6.1607,-6.1607,-6.1607,-6.1607,-6.1607,-6.1607,-6.1607,-6.1607,-6.1607,-2.8669,-2.854,-2.8805,-2.8402,0.0,0.0,0.0,0.0,-2.9389,0.0,0.0,0.0,0.0,0.0,0.0,0.0,0.0,0.0,0.0,0.0,0.0,0.0,0.0,0.0,-4.5553,-4.5942,-4.6196,-4.6196,-4.6196,-4.6196,-4.6196,-4.6196,-4.6196,-4.6206,-4.6162,-4.616,-4.6156,-4.6147,-4.615,-4.615,-4.619,-4.6204,-4.6204,-4.6647,-4.7069,-4.7476,-4.7874,-4.8514,-4.9283,-4.964,-5.0085,-5.0526,-5.0883,-5.1003,-5.1003,-5.0925,-5.0921,-5.0947,-5.0947,-5.128,-5.1774,-5.2239,-5.3036,-5.3984,-5.484,-5.6017,-5.7223,-5.81,-5.9289,-6.0302,-6.0302,-6.0945,-6.1607,-6.1607,-6.1607,-6.1607,-6.1607,-6.1607,-6.1607,-6.1607,-6.1607,-6.1607,-6.1607,-6.1607,-6.1607,-6.1607,-6.1607,-6.1607,-6.1607,-6.1607,-6.1607,-6.1607,-6.1607,-6.1607,-6.1607,-6.1607,-6.1607,-6.1607,-6.1607,-6.1607,-6.1607,-6.1607,-6.1607,-6.1607,-6.1607,-6.1607,-6.1607,-6.1607,-6.1607,-6.1607,-6.1607,-6.1607,0.0,0.0,0.0,0.0,0.0,-3.0074,0.0,0.0,0.0,-3.1951,0.0,0.0,0.0,0.0,0.0,0.0,0.0,0.0,0.0,0.0,0.0,0.0,0.0,0.0,0.0,-4.4897,-4.5338,-4.5676,-4.556,-4.5599,-4.5923,-4.6105,-4.6192,-4.6192,-4.6143,-4.6113,-4.6129,-4.6104,-4.6102,-4.6122,-4.616,-4.6186,-4.621,-4.6203,-4.6551,-4.7172,-4.7163,-4.7602,-4.8416,-4.9066,-4.9516,-4.9879,-5.0637,-5.0937,-5.0921,-5.0917,-5.0952,-5.0952,-5.0952,-5.0976,-5.103,-5.1081,-5.1753,-5.2505,-5.257,-5.4145,-5.6093,-5.697,-5.8353,-5.9639,-5.9971,-6.0692,-6.1393,-6.1568,-6.1607,-6.1607,-6.1607,-6.1607,-6.1607,-6.1607,-6.1607,-6.1607,-6.1607,-6.1607,-6.1607,-6.1607,-6.1607,-6.1607,-6.1597,-6.1588,-6.1607,-6.1597,-6.1588,-6.1607,-6.1607,-6.1607,-6.1607,-6.1607,-6.1607,-6.1607,-6.1607,-6.1607,-6.1607,-6.1607,-6.1607,-6.1607,-6.1607,-6.1607,-6.1607,-6.1607,-6.1607,-6.1607,0.0,0.0,0.0,0.0,-3.3457,0.0,0.0,0.0,-3.1142,-2.9257,0.0,0.0,0.0,0.0,0.0,0.0,0.0,0.0,0.0,0.0,0.0,0.0,0.0,0.0,0.0,-4.2071,-4.2305,-4.3779,-4.3227,-4.3479,-4.4965,-4.5776,-4.62,-4.6191,-4.6191,-4.6191,-4.6191,-4.6128,-4.6128,-4.6186,-4.6131,-4.6142,-4.619,-4.6203,-4.6254,-4.6325,-4.6266,-4.6735,-4.7534,-4.7572,-4.8452,-4.9877,-5.0732,-5.1043,-5.099,-5.1056,-5.1081,-5.1081,-5.1081,-5.1081,-5.1093,-5.1105,-5.1753,-5.2505,-5.257,-5.3346,-5.4379,-5.5236,-5.6171,-5.7262,-5.8763,-5.9795,-6.0633,-6.1412,-6.1607,-6.1607,-6.1607,-6.1607,-6.1607,-6.1607,-6.1607,-6.1607,-6.1607,-6.1607,-6.1607,-6.1607,-6.1607,-6.1597,-6.1595,-6.1597,-6.1597,-6.1595,-6.1597,-6.1607,-6.1607,-6.1607,-6.1607,-6.1607,-6.1607,-6.1607,-6.1607,-6.1607,-6.1607,-6.1607,-6.1607,-6.1607,-6.1607,-6.1607,-6.1607,-6.1607,-6.1607,-6.1607,0.0,0.0,0.0,0.0,0.0,0.0,-3.1189,0.0,-3.0621,0.0,0.0,0.0,0.0,0.0,0.0,0.0,0.0,0.0,0.0,0.0,0.0,0.0,0.0,0.0,0.0,0.0,0.0,0.0,-4.1807,-4.2357,-4.4003,-4.4959,-4.5664,-4.6134,-4.6131,-4.614,-4.6133,-4.6112,-4.6091,-4.6084,-4.6091,-4.6111,-4.6146,-4.6146,-4.6154,-4.6196,-4.6162,-4.6368,-4.673,-4.722,-4.7816,-4.8545,-4.9926,-5.0703,-5.1069,-5.1093,-5.1105,-5.1105,-5.1105,-5.1105,-5.1105,-5.1139,-5.1444,-5.1802,-5.1838,-5.245,-5.3229,-5.3599,-5.5041,-5.6658,-5.736,-5.8918,-6.038,-6.075,-6.1237,-6.1607,-6.1607,-6.1607,-6.1607,-6.1607,-6.1607,-6.1607,-6.1607,-6.1607,-6.1607,-6.1607,-6.1597,-6.1595,-6.1603,-6.1603,-6.1592,-6.16,-6.1592,-6.1592,-6.1592,-6.1592,-6.1603,-6.1606,-6.1597,-6.1607,-6.1607,-6.1607,-6.1607,-6.1607,-6.1607,-6.1607,-6.1607,-6.1607,-6.1597,-6.1606,-6.1597,-6.1607,-3.4909,0.0,0.0,0.0,0.0,0.0,0.0,0.0,0.0,0.0,0.0,0.0,0.0,0.0,0.0,0.0,0.0,0.0,0.0,0.0,0.0,0.0,0.0,0.0,0.0,0.0,0.0,0.0,0.0,-4.0351,-4.2724,-4.3913,-4.4914,-4.5747,-4.5994,-4.6105,-4.6138,-4.6102,-4.6084,-4.6047,-4.6075,-4.6084,-4.6093,-4.6084,-4.6102,-4.6162,-4.6162,-4.6189,-4.6254,-4.6878,-4.7252,-4.7551,-4.8811,-5.0071,-5.115,-5.115,-5.115,-5.115,-5.115,-5.115,-5.1161,-5.122,-5.1256,-5.13,-5.13,-5.1749,-5.2294,-5.2528,-5.4145,-5.5899,-5.6386,-5.8042,-5.9717,-6.0185,-6.0769,-6.1315,-6.1549,-6.1607,-6.1607,-6.1607,-6.1607,-6.1588,-6.1597,-6.1597,-6.1597,-6.1597,-6.1595,-6.1612,-6.1639,-6.1607,-6.1615,-6.1621,-6.1621,-6.1595,-6.1595,-6.1595,-6.1607,-6.1592,-6.1595,-6.1606,-6.1606,-6.1606,-6.1606,-6.1606,-6.1606,-6.1606,-6.1606,-6.1606,-6.1595,-6.1592,-6.1606,-6.1597,0.0,0.0,0.0,-3.3402,0.0,0.0,0.0,0.0,-3.3044,0.0,0.0,0.0,0.0,0.0,0.0,-2.9773,0.0,0.0,0.0,0.0,0.0,0.0,0.0,0.0,0.0,0.0,0.0,0.0,0.0,0.0,-4.0955,-4.2747,-4.4047,-4.491,-4.5698,-4.6138,-4.6196,-4.6138,-4.6138,-4.6196,-4.6047,-4.6027,-4.6093,-4.6027,-4.6037,-4.6102,-4.6102,-4.6146,-4.6196,-4.6235,-4.6741,-4.7501,-4.756,-4.9099,-5.1292,-5.1292,-5.1292,-5.1292,-5.1292,-5.1292,-5.1292,-5.13,-5.13,-5.13,-5.13,-5.132,-5.1515,-5.2353,-5.3268,-5.4379,-5.6054,-5.7145,-5.8217,-5.9893,-6.0321,-6.0575,-6.1412,-6.1607,-6.1607,-6.1607,-6.1607,-6.1597,-6.1595,-6.1603,-6.1603,-6.1603,-6.16,-6.1621,-6.1693,-6.1648,-6.1621,-6.1699,-6.1648,-6.1595,-6.1595,-6.1595,-6.1595,-6.1595,-6.1595,-6.1595,-6.1595,-6.1595,-6.1595,-6.1595,-6.1595,-6.1595,-6.1595,-6.1595,-6.1595,-6.1595,-6.1595,-6.1595,0.0,0.0,-3.9833,-3.6391,0.0,0.0,0.0,0.0,0.0,0.0,0.0,0.0,0.0,0.0,-3.1718,-3.0554,-2.9886,0.0,0.0,0.0,0.0,0.0,0.0,0.0,0.0,0.0,0.0,0.0,-3.5123,0.0,0.0,-4.2349,-4.3969,-4.4733,-4.569,-4.6154,-4.6138,-4.6154,-4.6154,-4.6138,-4.6084,-4.6084,-4.6093,-4.6027,-4.6047,-4.6093,-4.6093,-4.6102,-4.6138,-4.6189,-4.6371,-4.6702,-4.7267,-4.8378,-4.9703,-5.0248,-5.1164,-5.208,-5.1495,-5.13,-5.13,-5.13,-5.13,-5.13,-5.13,-5.13,-5.1359,-5.1671,-5.2372,-5.3307,-5.4476,-5.584,-5.7184,-5.8314,-5.9016,-5.9678,-6.0555,-6.073,-6.0906,-6.149,-6.1597,-6.1595,-6.1603,-6.1646,-6.166,-6.1607,-6.1641,-6.1673,-6.1699,-6.1685,-6.1666,-6.1691,-6.1691,-6.1666,-6.1666,-6.1679,-6.1673,-6.1673,-6.1621,-6.1595,-6.1595,-6.1595,-6.1595,-6.1595,-6.1595,-6.1595,-6.1595,-6.1595,-6.1621,-6.1673,-6.1627,-6.16,-3.9579,-4.0727,0.0,-3.8487,-3.8209,0.0,-3.4599,0.0,0.0,0.0,0.0,0.0,0.0,0.0,0.0,-3.1825,-3.0465,0.0,0.0,0.0,0.0,0.0,0.0,0.0,0.0,0.0,-3.159,-3.3127,0.0,0.0,0.0,0.0,-4.286,-4.4267,-4.5204,-4.5842,-4.6119,-4.6189,-4.6189,-4.6138,-4.6102,-4.6093,-4.6093,-4.6027,-4.6017,-4.6047,-4.6047,-4.6084,-4.6102,-4.6146,-4.6189,-4.6254,-4.6819,-4.7754,-4.8943,-5.0053,-5.1378,-5.2489,-5.1593,-5.13,-5.13,-5.13,-5.13,-5.13,-5.13,-5.13,-5.13,-5.13,-5.1924,-5.2723,-5.3288,-5.473,-5.6249,-5.7068,-5.7925,-5.8782,-5.9639,-6.0088,-6.0477,-6.1023,-6.1392,-6.1603,-6.1592,-6.166,-6.1693,-6.1648,-6.1679,-6.1705,-6.1705,-6.1696,-6.1701,-6.1701,-6.1701,-6.1701,-6.1701,-6.1691,-6.1705,-6.1705,-6.166,-6.1634,-6.1634,-6.1634,-6.1634,-6.1634,-6.1634,-6.1634,-6.1634,-6.1634,-6.166,-6.1705,-6.166,-6.1634]}]]